[[{"header":{"parameterUnit":"m.s-1","parameterCategory":1,"la1":31.0,"la2":29.5877,"lo1":-88.7671,"lo2":-86.6584,"dy":0.0162,"dx":0.0185,"nx":115,"ny":88,"refTime":"2023-07-24T18:00:00:Z","depth":0,"parameterNumber":2,"parameterNumberName":"U-component_of_WINDS"},"data":[0.0,0.0,0.0,0.0,0.0,0.0,0.0,0.0,0.0,0.0,0.0,0.0,0.0,0.0,0.0,0.0,0.0,0.0,0.0,0.0,0.0,0.0,0.0,0.0,0.0,0.0,0.0,0.0,0.0,0.0,0.0,0.0,0.0,0.0,0.0,0.0,0.0,0.0,0.0,0.0,0.0,0.0,0.0,0.0,0.0,0.0,0.0,0.0,0.0,0.0,0.0,0.0,0.0,0.0,0.0,0.0,0.0,0.0,0.0,0.0,0.0,0.0,0.0,0.0,0.0,0.0,0.0,0.0,0.0,0.0,0.0,0.0,0.0,0.0,0.0,0.0,0.0,0.0,0.0,0.0,0.0,0.0,0.0,0.0,0.0,0.0,0.0,0.0,0.0,0.0,0.0,0.0,0.0,0.0,0.0,0.0,0.0,0.0,0.0,0.0,0.0,0.0,0.0,0.0,0.0,0.0,0.0,0.0,0.0,0.0,0.0,0.0,0.0,0.0,0.0,0.0,0.0,0.0,0.0,0.0,0.0,0.0,0.0,0.0,0.0,0.0,0.0,0.0,0.0,0.0,0.0,0.0,0.0,0.0,0.0,0.0,0.0,0.0,0.0,0.0,0.0,0.0,0.0,0.0,0.0,0.0,0.0,0.0,0.0,0.0,0.0,0.0,0.0,0.0,0.0,0.0,0.0,0.0,0.0,0.0,0.0,0.0,0.0,0.0,0.0,0.0,0.0,0.0,0.0,0.0,0.0,0.0,0.0,0.0,0.0,0.0,0.0,0.0,0.0,0.0,0.0,0.0,0.0,0.0,0.0,0.0,0.0,0.0,0.0,0.0,0.0,0.0,0.0,0.0,0.0,0.0,0.0,0.0,0.0,0.0,0.0,0.0,0.0,0.0,0.0,0.0,0.0,0.0,0.0,0.0,0.0,0.0,0.0,0.0,0.0,0.0,0.0,0.0,0.0,0.0,0.0,0.0,0.0,0.0,0.0,0.0,0.0,0.0,0.0,0.0,0.0,0.0,0.0,0.0,0.0,0.0,0.0,0.0,0.0,0.0,0.0,0.0,0.0,0.0,0.0,0.0,0.0,0.0,0.0,0.0,0.0,0.0,0.0,0.0,0.0,0.0,0.0,0.0,0.0,0.0,0.0,0.0,0.0,0.0,0.0,0.0,0.0,0.0,0.0,0.0,0.0,0.0,0.0,0.0,0.0,0.0,0.0,0.0,0.0,0.0,0.0,0.0,0.0,0.0,0.0,0.0,0.0,0.0,0.0,0.0,0.0,0.0,0.0,0.0,0.0,0.0,0.0,0.0,0.0,0.0,0.0,0.0,0.0,0.0,0.0,0.0,0.0,0.0,0.0,0.0,0.0,0.0,0.0,0.0,0.0,0.0,0.0,0.0,0.0,0.0,0.0,0.0,0.0,0.0,0.0,0.0,0.0,0.0,0.0,0.0,0.0,0.0,0.0,0.0,0.0,0.0,0.0,0.0,0.0,0.0,0.0,0.0,0.0,0.0,0.0,0.0,0.0,0.0,0.0,0.0,0.0,0.0,0.0,0.0,0.0,0.0,0.0,0.0,0.0,0.0,0.0,0.0,0.0,0.0,0.0,0.0,0.0,0.0,0.0,0.0,0.0,0.0,0.0,0.0,0.0,0.0,0.0,0.0,0.0,0.0,0.0,0.0,0.0,0.0,0.0,0.0,0.0,0.0,0.0,0.0,0.0,0.0,0.0,0.0,0.0,0.0,0.0,0.0,0.0,0.0,0.0,0.0,0.0,0.0,0.0,0.0,0.0,0.0,0.0,0.0,0.0,0.0,0.0,0.0,0.0,0.0,0.0,0.0,0.0,0.0,0.0,0.0,0.0,0.0,0.0,0.0,0.0,0.0,0.0,0.0,0.0,0.0,0.0,0.0,0.0,0.0,0.0,0.0,0.0,0.0,0.0,0.0,0.0,0.0,0.0,0.0,0.0,0.0,0.0,0.0,0.0,0.0,0.0,0.0,0.0,0.0,0.0,0.0,0.0,0.0,0.0,0.0,0.0,0.0,0.0,0.0,0.0,0.0,0.0,0.0,0.0,0.0,0.0,0.0,0.0,0.0,0.0,0.0,0.0,0.0,0.0,0.0,0.0,0.0,0.0,0.0,0.0,0.0,0.0,0.0,0.0,0.0,0.0,0.0,0.0,0.0,0.0,0.0,0.0,0.0,0.0,0.0,0.0,0.0,0.0,0.0,0.0,0.0,0.0,0.0,0.0,0.0,0.0,0.0,0.0,0.0,0.0,0.0,0.0,0.0,0.0,0.0,0.0,0.0,0.0,0.0,0.0,0.0,0.0,0.0,0.0,0.0,0.0,0.0,0.0,0.0,0.0,0.0,0.0,0.0,0.0,0.0,0.0,0.0,0.0,0.0,0.0,0.0,0.0,0.0,0.0,0.0,0.0,0.0,0.0,0.0,0.0,0.0,0.0,0.0,0.0,0.0,0.0,0.0,0.0,0.0,0.0,0.0,0.0,0.0,0.0,0.0,0.0,0.0,0.0,0.0,0.0,0.0,0.0,0.0,0.0,0.0,0.0,0.0,0.0,0.0,0.0,0.0,0.0,0.0,0.0,0.0,0.0,0.0,0.0,0.0,0.0,0.0,0.0,0.0,0.0,0.0,0.0,0.0,0.0,0.0,0.0,0.0,0.0,0.0,0.0,0.0,0.0,0.0,0.0,0.0,0.0,0.0,0.0,0.0,0.0,0.0,0.0,0.0,0.0,0.0,0.0,0.0,0.0,0.0,0.0,0.0,0.0,0.0,0.0,0.0,0.0,0.0,0.0,0.0,0.0,0.0,0.0,0.0,0.0,0.0,0.0,0.0,0.0,0.0,0.0,0.0,0.0,0.0,0.0,0.0,0.0,0.0,0.0,0.0,0.0,0.0,0.0,0.0,0.0,0.0,0.0,0.0,0.0,0.0,0.0,0.0,0.0,0.0,0.0,0.0,0.0,0.0,0.0,0.0,0.0,0.0,0.0,0.0,0.0,0.0,0.0,0.0,0.0,0.0,0.0,0.0,0.0,0.0,0.0,0.0,0.0,0.0,0.0,0.0,0.0,0.0,0.0,0.0,0.0,0.0,0.0,0.0,0.0,0.0,0.0,0.0,0.0,0.0,0.0,0.0,0.0,0.0,0.0,0.0,0.0,0.0,0.0,0.0,0.0,0.0,0.0,0.0,0.0,0.0,0.0,0.0,0.0,0.0,0.0,0.0,0.0,0.0,0.0,0.0,0.0,0.0,0.0,0.0,0.0,0.0,0.0,0.0,0.0,0.0,0.0,0.0,0.0,0.0,0.0,0.0,0.0,0.0,0.0,0.0,0.0,0.0,0.0,0.0,0.0,0.0,0.0,0.0,0.0,0.0,0.0,0.0,0.0,0.0,0.0,0.0,0.0,0.0,0.0,0.0,0.0,0.0,0.0,0.0,0.0,0.0,0.0,0.0,0.0,0.0,0.0,0.0,0.0,0.0,0.0,0.0,0.0,0.0,0.0,0.0,0.0,0.0,0.0,0.0,0.0,0.0,0.0,0.0,0.0,0.0,0.0,0.0,0.0,0.0,0.0,0.0,0.0,0.0,0.0,0.0,0.0,0.0,0.0,0.0,0.0,0.0,0.0,0.0,0.0,0.0,0.0,0.0,0.0,0.0,0.0,0.0,0.0,0.0,0.0,0.0,0.0,0.0,0.0,0.0,0.0,0.0,0.0,0.0,0.0,0.0,0.0,0.0,0.0,0.0,0.0,0.0,0.0,0.0,0.0,0.0,0.0,0.0,0.0,0.0,0.0,0.0,0.0,0.0,0.0,0.0,0.0,0.0,0.0,0.0,0.0,0.0,0.0,0.0,0.0,0.0,0.0,0.0,0.0,0.0,0.0,0.0,0.0,0.0,0.0,0.0,0.0,0.0,0.0,0.0,0.0,0.0,0.0,0.0,0.0,0.0,0.0,0.0,0.0,0.0,0.0,0.0,0.0,0.0,0.0,0.0,0.0,0.0,0.0,0.0,0.0,0.0,0.0,0.0,0.0,0.0,0.0,0.0,0.0,0.0,0.0,0.0,0.0,0.0,0.0,0.0,0.0,0.0,0.0,0.0,0.0,0.0,0.0,0.0,0.0,0.0,0.0,0.0,0.0,0.0,0.0,0.0,0.0,0.0,0.0,0.0,0.0,0.0,0.0,0.0,0.0,0.0,0.0,0.0,0.0,0.0,0.0,0.0,0.0,0.0,0.0,0.0,-1.2844,0.0,0.0,0.0,0.0,0.0,0.0,0.0,0.0,0.0,0.0,0.0,0.0,0.0,0.0,0.0,0.0,0.0,0.0,0.0,0.0,0.0,0.0,0.0,0.0,0.0,0.0,0.0,0.0,0.0,0.0,0.0,0.0,0.0,0.0,0.0,0.0,0.0,0.0,0.0,0.0,0.0,0.0,0.0,0.0,0.0,0.0,0.0,0.0,0.0,0.0,0.0,0.0,0.0,0.0,0.0,0.0,0.0,0.0,0.0,0.0,0.0,0.0,0.0,0.0,0.0,0.0,0.0,0.0,0.0,0.0,0.0,0.0,0.0,0.0,0.0,0.0,0.0,0.0,0.0,0.0,0.0,0.0,0.0,0.0,0.0,0.0,0.0,0.0,0.0,0.0,0.0,0.0,0.0,0.0,0.0,0.0,0.0,0.0,0.0,0.0,0.0,0.0,0.0,0.0,0.0,0.0,0.0,0.0,0.0,0.0,-1.219,-1.2224,-1.2622,-1.2898,-1.2966,0.0,0.0,0.0,0.0,0.0,0.0,0.0,0.0,0.0,0.0,0.0,0.0,0.0,0.0,0.0,0.0,0.0,0.0,0.0,0.0,0.0,0.0,0.0,0.0,0.0,0.0,0.0,0.0,0.0,0.0,0.0,0.0,0.0,0.0,0.0,0.0,0.0,0.0,0.0,0.0,0.0,0.0,0.0,0.0,0.0,0.0,0.0,0.0,0.0,0.0,0.0,0.0,0.0,0.0,0.0,0.0,0.0,0.0,0.0,0.0,0.0,0.0,0.0,0.0,0.0,0.0,0.0,0.0,0.0,0.0,0.0,0.0,0.0,0.0,0.0,0.0,0.0,0.0,0.0,0.0,0.0,0.0,0.0,0.0,0.0,0.0,0.0,0.0,0.0,0.0,0.0,0.0,0.0,0.0,0.0,0.0,0.0,0.0,0.0,0.0,0.0,0.0,0.0,0.0,0.0,0.0,0.0,0.0,0.0,0.0,0.0,0.0,-1.3063,-1.3414,-1.3472,0.0,0.0,0.0,0.0,0.0,0.0,0.0,0.0,0.0,0.0,0.0,0.0,0.0,0.0,0.0,0.0,0.0,0.0,0.0,0.0,0.0,0.0,0.0,0.0,0.0,0.0,0.0,0.0,0.0,0.0,0.0,0.0,0.0,0.0,0.0,0.0,0.0,0.0,0.0,0.0,0.0,0.0,0.0,0.0,0.0,0.0,0.0,0.0,0.0,0.0,0.0,0.0,0.0,0.0,0.0,0.0,0.0,0.0,0.0,0.0,0.0,0.0,0.0,0.0,0.0,0.0,0.0,0.0,0.0,0.0,0.0,0.0,0.0,0.0,0.0,0.0,0.0,0.0,0.0,0.0,0.0,0.0,0.0,0.0,0.0,0.0,0.0,0.0,0.0,0.0,0.0,0.0,0.0,0.0,0.0,0.0,0.0,0.0,0.0,0.0,0.0,0.0,0.0,0.0,0.0,0.0,0.0,0.0,0.0,0.0,-1.2885,-1.3948,-1.4523,0.0,-1.5145,0.0,0.0,0.0,0.0,0.0,0.0,0.0,0.0,0.0,0.0,0.0,0.0,0.0,0.0,0.0,0.0,0.0,0.0,0.0,0.0,0.0,0.0,0.0,0.0,0.0,0.0,0.0,0.0,0.0,0.0,0.0,0.0,0.0,0.0,0.0,0.0,0.0,0.0,0.0,0.0,0.0,0.0,0.0,0.0,0.0,0.0,0.0,0.0,0.0,0.0,0.0,0.0,0.0,0.0,0.0,0.0,0.0,0.0,0.0,0.0,0.0,0.0,0.0,0.0,0.0,0.0,0.0,0.0,0.0,0.0,0.0,0.0,0.0,0.0,0.0,0.0,0.0,0.0,0.0,0.0,0.0,0.0,0.0,0.0,0.0,0.0,0.0,0.0,0.0,0.0,0.0,0.0,0.0,0.0,0.0,0.0,0.0,0.0,0.0,0.0,0.0,0.0,0.0,0.0,0.0,0.0,0.0,0.0,0.0,0.0,-1.3417,-1.3705,-1.4417,-1.4473,0.0,0.0,0.0,0.0,0.0,0.0,0.0,0.0,0.0,0.0,0.0,0.0,0.0,0.0,0.0,0.0,0.0,0.0,0.0,0.0,0.0,0.0,0.0,0.0,0.0,0.0,0.0,0.0,0.0,0.0,0.0,0.0,0.0,0.0,0.0,0.0,0.0,0.0,0.0,0.0,0.0,0.0,0.0,0.0,0.0,0.0,0.0,0.0,0.0,0.0,0.0,0.0,0.0,0.0,0.0,0.0,0.0,0.0,0.0,0.0,0.0,0.0,0.0,0.0,0.0,0.0,0.0,0.0,0.0,0.0,0.0,0.0,0.0,0.0,0.0,0.0,0.0,0.0,0.0,0.0,0.0,0.0,0.0,0.0,0.0,0.0,0.0,0.0,0.0,0.0,0.0,0.0,0.0,0.0,0.0,0.0,0.0,0.0,0.0,0.0,0.0,0.0,0.0,0.0,0.0,0.0,0.0,0.0,0.0,0.0,-1.3422,-1.3803,-1.3889,-1.421,-1.3967,-1.3075,0.0,0.0,0.0,0.0,0.0,0.0,0.0,0.0,0.0,0.0,0.0,0.0,0.0,0.0,0.0,0.0,0.0,0.0,0.0,0.0,0.0,0.0,0.0,0.0,0.0,0.0,0.0,0.0,0.0,0.0,0.0,0.0,0.0,0.0,0.0,0.0,0.0,0.0,0.0,0.0,0.0,0.0,0.0,0.0,0.0,0.0,0.0,0.0,0.0,0.0,0.0,0.0,0.0,0.0,0.0,0.0,0.0,0.0,0.0,0.0,0.0,0.0,0.0,0.0,0.0,0.0,0.0,0.0,0.0,0.0,0.0,0.0,0.0,0.0,0.0,0.0,0.0,0.0,0.0,0.0,0.0,0.0,0.0,0.0,0.0,0.0,0.0,0.0,0.0,0.0,0.0,0.0,0.0,0.0,0.0,0.0,0.0,0.0,0.0,0.0,0.0,0.0,0.0,0.0,0.0,0.0,0.0,0.0,-1.3616,-1.3593,-1.405,-1.5031,-1.4166,-1.3792,0.0,0.0,0.0,0.0,0.0,0.0,0.0,0.0,0.0,0.0,0.0,0.0,0.0,0.0,0.0,0.0,0.0,0.0,0.0,0.0,0.0,0.0,0.0,0.0,0.0,0.0,0.0,0.0,0.0,0.0,0.0,0.0,0.0,0.0,0.0,0.0,0.0,0.0,0.0,0.0,0.0,0.0,0.0,0.0,0.0,0.0,0.0,0.0,0.0,0.0,0.0,0.0,0.0,0.0,0.0,0.0,0.0,0.0,0.0,0.0,0.0,0.0,0.0,0.0,0.0,0.0,0.0,0.0,0.0,0.0,0.0,0.0,0.0,0.0,0.0,0.0,0.0,0.0,0.0,0.0,0.0,0.0,0.0,0.0,0.0,0.0,0.0,0.0,0.0,0.0,0.0,0.0,0.0,0.0,0.0,0.0,0.0,0.0,0.0,0.0,0.0,0.0,0.0,0.0,0.0,0.0,0.0,0.0,0.0,-1.2427,-1.2804,-1.3619,-1.484,-1.4038,-1.3433,0.0,0.0,0.0,0.0,0.0,0.0,0.0,0.0,0.0,0.0,0.0,0.0,0.0,0.0,0.0,0.0,0.0,0.0,0.0,0.0,0.0,0.0,0.0,0.0,0.0,0.0,0.0,0.0,0.0,0.0,0.0,0.0,0.0,0.0,0.0,0.0,0.0,0.0,0.0,0.0,0.0,0.0,0.0,0.0,0.0,0.0,0.0,0.0,0.0,0.0,0.0,0.0,0.0,0.0,0.0,0.0,0.0,0.0,0.0,0.0,0.0,0.0,0.0,0.0,0.0,0.0,0.0,0.0,0.0,0.0,0.0,0.0,0.0,0.0,0.0,0.0,0.0,0.0,0.0,0.0,0.0,0.0,0.0,0.0,0.0,0.0,0.0,0.0,0.0,0.0,0.0,0.0,0.0,0.0,0.0,0.0,0.0,0.0,0.0,0.0,0.0,0.0,0.0,0.0,0.0,0.0,0.0,0.0,0.0,-1.2069,0.0,-1.3349,-1.4401,-1.381,-1.3214,0.0,0.0,0.0,0.0,0.0,0.0,0.0,0.0,0.0,0.0,0.0,0.0,0.0,0.0,0.0,0.0,0.0,0.0,0.0,0.0,0.0,0.0,0.0,0.0,0.0,0.0,0.0,0.0,0.0,0.0,0.0,0.0,0.0,0.0,0.0,0.0,0.0,0.0,0.0,0.0,0.0,0.0,0.0,0.0,0.0,0.0,0.0,0.0,0.0,0.0,0.0,0.0,0.0,0.0,0.0,0.0,0.0,0.0,0.0,0.0,0.0,0.0,0.0,0.0,0.0,0.0,0.0,0.0,0.0,0.0,0.0,0.0,0.0,0.0,0.0,0.0,0.0,0.0,0.0,0.0,0.0,0.0,0.0,0.0,0.0,0.0,0.0,0.0,0.0,0.0,0.0,0.0,0.0,0.0,0.0,0.0,0.0,0.0,0.0,0.0,0.0,0.0,0.0,0.0,0.0,0.0,0.0,0.0,-1.1877,-1.2723,-1.2835,-1.3251,-1.3865,-1.3525,-1.3267,0.0,0.0,0.0,0.0,0.0,0.0,0.0,0.0,0.0,0.0,0.0,0.0,0.0,0.0,0.0,0.0,0.0,0.0,0.0,0.0,0.0,0.0,0.0,0.0,0.0,0.0,0.0,0.0,0.0,0.0,0.0,0.0,0.0,0.0,0.0,0.0,0.0,0.0,0.0,0.0,0.0,0.0,0.0,0.0,0.0,0.0,0.0,0.0,0.0,0.0,0.0,0.0,0.0,0.0,0.0,0.0,0.0,0.0,0.0,0.0,0.0,0.0,0.0,0.0,0.0,0.0,0.0,0.0,0.0,0.0,0.0,0.0,0.0,0.0,0.0,0.0,0.0,0.0,0.0,0.0,0.0,0.0,0.0,0.0,0.0,0.0,0.0,0.0,0.0,0.0,0.0,0.0,0.0,0.0,0.0,0.0,0.0,0.0,0.0,0.0,0.0,0.0,0.0,0.0,0.0,0.0,0.0,0.0,0.0,-1.2435,-1.2729,-1.339,-1.4437,-1.3686,-1.3308,0.0,0.0,0.0,0.0,0.0,0.0,0.0,0.0,0.0,0.0,0.0,0.0,0.0,0.0,0.0,0.0,0.0,0.0,0.0,0.0,0.0,0.0,0.0,0.0,0.0,0.0,0.0,0.0,0.0,0.0,0.0,0.0,0.0,0.0,0.0,0.0,0.0,0.0,0.0,0.0,0.0,0.0,0.0,0.0,0.0,0.0,0.0,0.0,0.0,0.0,0.0,0.0,0.0,0.0,0.0,0.0,0.0,0.0,0.0,0.0,0.0,0.0,0.0,0.0,0.0,0.0,0.0,0.0,0.0,0.0,0.0,0.0,0.0,0.0,0.0,0.0,0.0,0.0,0.0,0.0,0.0,0.0,0.0,0.0,0.0,0.0,0.0,0.0,0.0,0.0,0.0,0.0,0.0,0.0,0.0,0.0,0.0,0.0,0.0,0.0,0.0,0.0,0.0,0.0,0.0,0.0,0.0,0.0,0.0,-1.2466,-1.2871,-1.3576,-1.4547,-1.4005,-1.3607,-1.3455,0.0,0.0,0.0,0.0,0.0,0.0,0.0,0.0,0.0,0.0,0.0,0.0,0.0,0.0,0.0,0.0,0.0,0.0,0.0,0.0,0.0,0.0,0.0,0.0,0.0,0.0,0.0,0.0,0.0,0.0,0.0,0.0,0.0,0.0,0.0,0.0,0.0,0.0,0.0,0.0,0.0,0.0,0.0,0.0,0.0,0.0,0.0,0.0,0.0,0.0,0.0,0.0,0.0,0.0,0.0,0.0,0.0,0.0,0.0,0.0,0.0,0.0,0.0,0.0,0.0,0.0,0.0,0.0,0.0,0.0,0.0,0.0,0.0,0.0,0.0,0.0,0.0,0.0,0.0,0.0,0.0,0.0,0.0,0.0,0.0,0.0,0.0,0.0,0.0,0.0,0.0,0.0,0.0,0.0,0.0,0.0,0.0,0.0,0.0,0.0,0.0,0.0,0.0,0.0,0.0,0.0,0.0,0.0,-1.2726,-1.3233,-1.3782,-1.429,-1.4403,-1.4059,0.0,0.0,0.0,0.0,0.0,0.0,0.0,0.0,0.0,0.0,0.0,0.0,0.0,0.0,0.0,0.0,0.0,0.0,0.0,0.0,0.0,0.0,0.0,0.0,0.0,0.0,0.0,0.0,0.0,0.0,0.0,0.0,0.0,0.0,0.0,0.0,0.0,0.0,0.0,0.0,0.0,0.0,0.0,0.0,0.0,0.0,0.0,0.0,0.0,0.0,0.0,0.0,0.0,0.0,0.0,0.0,0.0,0.0,0.0,0.0,0.0,0.0,0.0,0.0,0.0,0.0,0.0,0.0,0.0,0.0,0.0,0.0,0.0,0.0,0.0,0.0,0.0,0.0,0.0,0.0,0.0,0.0,0.0,0.0,0.0,0.0,0.0,0.0,0.0,0.0,0.0,0.0,0.0,0.0,0.0,0.0,0.0,0.0,0.0,0.0,0.0,0.0,0.0,0.0,0.0,0.0,0.0,0.0,0.0,-1.3114,-1.4266,-1.4945,-1.5048,-1.4681,-1.4158,0.0,0.0,0.0,0.0,0.0,0.0,0.0,0.0,0.0,0.0,0.0,0.0,0.0,0.0,0.0,0.0,0.0,0.0,0.0,0.0,0.0,0.0,0.0,0.0,0.0,0.0,0.0,0.0,0.0,0.0,0.0,0.0,0.0,0.0,0.0,0.0,0.0,0.0,0.0,0.0,0.0,0.0,0.0,0.0,0.0,0.0,0.0,0.0,0.0,0.0,0.0,0.0,0.0,0.0,0.0,0.0,0.0,0.0,0.0,0.0,0.0,0.0,0.0,0.0,0.0,0.0,0.0,0.0,0.0,0.0,0.0,0.0,0.0,0.0,0.0,0.0,0.0,0.0,0.0,0.0,0.0,0.0,0.0,0.0,0.0,0.0,0.0,0.0,0.0,0.0,0.0,0.0,0.0,0.0,0.0,0.0,0.0,0.0,0.0,0.0,0.0,0.0,0.0,0.0,0.0,0.0,0.0,0.0,-1.3205,-1.3411,-1.4817,-1.5445,-1.5332,-1.5042,-1.4336,0.0,0.0,0.0,0.0,0.0,0.0,0.0,0.0,0.0,0.0,0.0,0.0,0.0,0.0,0.0,0.0,0.0,0.0,0.0,0.0,0.0,0.0,0.0,0.0,0.0,0.0,0.0,0.0,0.0,0.0,0.0,0.0,0.0,0.0,0.0,0.0,0.0,0.0,0.0,0.0,0.0,0.0,0.0,0.0,0.0,0.0,0.0,0.0,0.0,0.0,0.0,0.0,0.0,0.0,0.0,0.0,0.0,0.0,0.0,0.0,0.0,0.0,0.0,0.0,0.0,0.0,0.0,0.0,0.0,0.0,0.0,0.0,0.0,0.0,0.0,0.0,0.0,0.0,0.0,0.0,0.0,0.0,0.0,0.0,0.0,0.0,0.0,0.0,0.0,0.0,0.0,0.0,0.0,0.0,0.0,0.0,0.0,0.0,0.0,0.0,0.0,0.0,0.0,0.0,0.0,0.0,0.0,0.0,-1.3174,-1.3728,-1.4972,-1.5508,-1.5196,-1.5243,-1.4489,0.0,0.0,0.0,0.0,0.0,0.0,0.0,0.0,0.0,0.0,0.0,0.0,0.0,0.0,0.0,0.0,0.0,0.0,0.0,0.0,0.0,0.0,0.0,0.0,0.0,0.0,0.0,0.0,0.0,0.0,0.0,0.0,0.0,0.0,0.0,0.0,0.0,0.0,0.0,0.0,0.0,0.0,0.0,0.0,0.0,0.0,0.0,0.0,0.0,0.0,0.0,0.0,0.0,0.0,0.0,0.0,0.0,0.0,0.0,0.0,0.0,0.0,0.0,0.0,0.0,0.0,0.0,0.0,0.0,0.0,0.0,0.0,0.0,0.0,0.0,0.0,0.0,0.0,0.0,0.0,0.0,0.0,0.0,0.0,0.0,0.0,0.0,0.0,0.0,0.0,0.0,0.0,0.0,0.0,0.0,0.0,0.0,0.0,0.0,0.0,0.0,0.0,0.0,0.0,0.0,0.0,0.0,0.0,-1.3299,-1.3835,-1.4828,-1.5274,-1.5205,-1.4678,-1.3998,0.0,0.0,0.0,0.0,0.0,0.0,0.0,0.0,0.0,0.0,0.0,0.0,0.0,0.0,0.0,0.0,0.0,0.0,0.0,0.0,0.0,0.0,0.0,0.0,0.0,0.0,0.0,0.0,0.0,0.0,0.0,0.0,0.0,0.0,0.0,0.0,0.0,0.0,0.0,0.0,0.0,0.0,0.0,0.0,0.0,0.0,0.0,0.0,-0.8925,0.0,0.0,0.0,0.0,0.0,0.0,0.0,0.0,0.0,0.0,0.0,0.0,0.0,0.0,0.0,0.0,0.0,0.0,0.0,0.0,0.0,0.0,0.0,0.0,0.0,0.0,0.0,0.0,0.0,0.0,0.0,0.0,0.0,0.0,0.0,0.0,0.0,0.0,0.0,0.0,0.0,0.0,0.0,0.0,0.0,0.0,0.0,0.0,0.0,0.0,0.0,0.0,0.0,0.0,0.0,0.0,0.0,0.0,0.0,-1.3372,-1.4196,-1.4811,-1.5098,-1.5079,-1.4458,-1.3828,0.0,0.0,0.0,0.0,0.0,0.0,0.0,0.0,0.0,0.0,0.0,0.0,0.0,0.0,0.0,0.0,0.0,0.0,0.0,0.0,0.0,0.0,0.0,0.0,0.0,0.0,0.0,0.0,0.0,0.0,0.0,0.0,0.0,0.0,0.0,0.0,0.0,0.0,0.0,0.0,0.0,0.0,0.0,0.0,0.0,0.0,0.0,0.0,0.0,0.0,0.0,0.0,0.0,0.0,0.0,0.0,0.0,0.0,0.0,0.0,0.0,0.0,0.0,0.0,0.0,0.0,0.0,0.0,0.0,0.0,0.0,0.0,0.0,0.0,0.0,0.0,0.0,0.0,0.0,0.0,0.0,0.0,0.0,0.0,0.0,0.0,0.0,0.0,0.0,0.0,0.0,0.0,0.0,0.0,0.0,0.0,0.0,0.0,0.0,0.0,0.0,0.0,0.0,0.0,0.0,0.0,0.0,-1.2292,-1.3366,-1.4553,-1.4906,-1.5037,-1.497,-1.4456,-1.3886,-1.3271,0.0,0.0,0.0,0.0,0.0,0.0,0.0,0.0,0.0,0.0,0.0,0.0,0.0,0.0,0.0,0.0,0.0,0.0,0.0,0.0,0.0,0.0,0.0,0.0,0.0,0.0,0.0,0.0,0.0,0.0,0.0,0.0,0.0,0.0,0.0,0.0,0.0,0.0,-0.7012,-0.7164,0.0,0.0,0.0,0.0,0.0,0.0,0.0,0.0,-0.8497,0.0,0.0,0.0,0.0,0.0,0.0,0.0,0.0,0.0,0.0,0.0,0.0,0.0,0.0,0.0,0.0,0.0,0.0,0.0,0.0,0.0,0.0,0.0,0.0,0.0,0.0,0.0,0.0,0.0,0.0,0.0,0.0,0.0,0.0,0.0,0.0,0.0,0.0,0.0,0.0,0.0,0.0,0.0,0.0,0.0,0.0,0.0,0.0,0.0,0.0,0.0,0.0,0.0,0.0,0.0,0.0,-1.1256,-1.2193,-1.3294,-1.4634,-1.5032,-1.5079,-1.4793,-1.4551,-1.4029,-1.315,0.0,0.0,0.0,0.0,0.0,0.0,0.0,0.0,0.0,0.0,0.0,0.0,0.0,0.0,0.0,0.0,0.0,0.0,0.0,0.0,0.0,0.0,0.0,0.0,0.0,0.0,0.0,0.0,0.0,0.0,0.0,0.0,0.0,0.0,0.0,0.0,0.0,0.0,0.0,-0.6889,-0.708,0.0,0.0,0.0,0.0,0.0,0.0,0.0,0.0,-0.8696,0.0,0.0,0.0,0.0,0.0,0.0,0.0,0.0,0.0,0.0,0.0,0.0,0.0,0.0,0.0,0.0,0.0,0.0,0.0,0.0,0.0,0.0,0.0,0.0,0.0,0.0,0.0,0.0,0.0,0.0,0.0,0.0,0.0,0.0,0.0,0.0,0.0,0.0,0.0,0.0,0.0,0.0,0.0,0.0,0.0,0.0,0.0,0.0,0.0,0.0,0.0,0.0,0.0,0.0,0.0,-1.0897,-1.1643,-1.278,-1.4364,-1.475,-1.4819,-1.4715,-1.4093,-1.3474,0.0,0.0,0.0,0.0,0.0,0.0,0.0,0.0,0.0,0.0,0.0,0.0,0.0,0.0,0.0,0.0,0.0,0.0,0.0,0.0,0.0,0.0,0.0,0.0,0.0,0.0,0.0,0.0,0.0,0.0,0.0,0.0,0.0,0.0,0.0,0.0,0.0,0.0,0.0,0.0,-0.7273,-0.7462,-0.7483,0.0,0.0,0.0,0.0,0.0,0.0,-0.8743,-0.9098,0.0,0.0,0.0,0.0,0.0,0.0,0.0,0.0,0.0,0.0,0.0,0.0,0.0,0.0,0.0,0.0,0.0,0.0,0.0,0.0,0.0,0.0,0.0,0.0,0.0,0.0,0.0,0.0,0.0,0.0,0.0,0.0,0.0,0.0,0.0,0.0,0.0,0.0,0.0,0.0,0.0,0.0,0.0,0.0,0.0,0.0,0.0,0.0,0.0,0.0,0.0,0.0,0.0,0.0,0.0,-1.0597,-1.126,-1.2449,-1.4049,-1.4459,-1.4602,-1.4526,-1.3679,-1.3012,0.0,0.0,0.0,0.0,0.0,0.0,0.0,0.0,0.0,0.0,0.0,0.0,0.0,0.0,0.0,0.0,0.0,0.0,0.0,0.0,0.0,0.0,0.0,0.0,0.0,0.0,0.0,0.0,0.0,0.0,0.0,0.0,0.0,0.0,0.0,0.0,0.0,0.0,0.0,0.0,0.0,-0.8069,-0.803,-0.858,0.0,0.0,0.0,0.0,-0.8377,-0.8996,0.0,0.0,0.0,0.0,0.0,0.0,0.0,0.0,0.0,0.0,0.0,0.0,0.0,0.0,0.0,0.0,0.0,0.0,0.0,0.0,0.0,0.0,0.0,0.0,0.0,0.0,0.0,0.0,0.0,0.0,0.0,0.0,0.0,0.0,0.0,0.0,0.0,0.0,0.0,0.0,0.0,0.0,0.0,0.0,0.0,0.0,0.0,0.0,0.0,0.0,0.0,0.0,0.0,0.0,0.0,0.0,-1.0668,-1.1756,-1.2841,-1.3957,-1.4662,-1.4689,-1.4031,-1.3864,-1.3359,0.0,0.0,0.0,0.0,0.0,0.0,0.0,0.0,0.0,0.0,0.0,0.0,0.0,0.0,0.0,0.0,0.0,0.0,0.0,0.0,0.0,0.0,0.0,0.0,0.0,0.0,0.0,0.0,0.0,0.0,0.0,0.0,0.0,0.0,0.0,0.0,0.0,0.0,0.0,0.0,0.0,-0.8809,-0.8692,-0.889,-0.9006,0.0,0.0,-0.9054,-0.8621,-0.896,0.0,0.0,0.0,0.0,0.0,0.0,0.0,0.0,0.0,0.0,0.0,0.0,0.0,0.0,0.0,0.0,0.0,0.0,0.0,0.0,0.0,0.0,0.0,0.0,0.0,0.0,0.0,0.0,0.0,0.0,0.0,0.0,0.0,0.0,0.0,0.0,0.0,0.0,0.0,0.0,0.0,0.0,0.0,0.0,0.0,0.0,0.0,0.0,0.0,0.0,0.0,0.0,0.0,0.0,0.0,-0.8859,-1.0355,-1.1149,-1.2175,-1.3408,-1.4118,-1.4288,-1.3997,-1.3385,-1.2978,0.0,0.0,0.0,0.0,0.0,0.0,0.0,0.0,0.0,0.0,0.0,0.0,0.0,0.0,0.0,0.0,0.0,0.0,0.0,0.0,0.0,0.0,0.0,0.0,0.0,0.0,0.0,0.0,0.0,0.0,0.0,0.0,0.0,0.0,0.0,0.0,0.0,0.0,0.0,0.0,0.0,0.0,-0.8947,-0.933,0.0,0.0,0.0,-0.9535,-0.9126,0.0,0.0,0.0,0.0,0.0,0.0,0.0,0.0,0.0,0.0,0.0,0.0,0.0,0.0,0.0,0.0,0.0,0.0,0.0,0.0,0.0,0.0,0.0,0.0,0.0,0.0,0.0,0.0,0.0,0.0,0.0,0.0,0.0,0.0,0.0,0.0,0.0,0.0,0.0,0.0,0.0,0.0,0.0,0.0,0.0,0.0,0.0,0.0,0.0,0.0,0.0,0.0,0.0,0.0,0.0,0.0,0.0,-1.0122,-1.0637,-1.1531,-1.2912,-1.3606,-1.3965,-1.385,-1.3085,0.0,0.0,0.0,0.0,0.0,0.0,0.0,0.0,0.0,0.0,0.0,0.0,0.0,0.0,0.0,0.0,0.0,0.0,0.0,0.0,0.0,0.0,0.0,0.0,0.0,0.0,0.0,-0.7666,0.0,0.0,0.0,0.0,0.0,0.0,0.0,0.0,0.0,0.0,0.0,0.0,0.0,0.0,-0.9356,-0.9213,-0.9717,-0.9842,0.0,0.0,-0.9825,-0.9352,-0.9371,-0.9358,0.0,0.0,0.0,0.0,0.0,0.0,0.0,0.0,0.0,0.0,0.0,0.0,0.0,0.0,0.0,0.0,0.0,0.0,0.0,0.0,0.0,0.0,0.0,0.0,0.0,0.0,0.0,0.0,0.0,0.0,0.0,0.0,0.0,0.0,0.0,0.0,0.0,0.0,0.0,0.0,0.0,0.0,0.0,0.0,0.0,0.0,0.0,0.0,0.0,0.0,0.0,0.0,0.0,0.0,0.0,-0.9875,-1.0577,-1.1469,-1.2672,-1.3578,-1.3841,-1.3487,-1.3331,-1.3075,0.0,0.0,0.0,0.0,0.0,0.0,0.0,0.0,0.0,0.0,0.0,0.0,0.0,0.0,0.0,0.0,0.0,0.0,0.0,0.0,0.0,0.0,0.0,0.0,0.0,0.0,0.0,0.0,0.0,0.0,0.0,0.0,0.0,0.0,0.0,0.0,0.0,0.0,0.0,0.0,0.0,-0.9901,-0.9748,-0.9888,-0.9952,0.0,0.0,-0.9642,-0.9174,-0.9349,-0.9199,-0.8339,0.0,0.0,0.0,0.0,0.0,0.0,0.0,0.0,0.0,0.0,0.0,0.0,0.0,0.0,0.0,0.0,0.0,0.0,0.0,0.0,0.0,0.0,0.0,0.0,0.0,0.0,0.0,0.0,0.0,0.0,0.0,0.0,0.0,0.0,0.0,0.0,0.0,0.0,0.0,0.0,0.0,0.0,0.0,0.0,0.0,0.0,0.0,0.0,0.0,0.0,0.0,0.0,0.0,-0.8826,-1.0028,-1.0745,-1.1467,-1.2281,-1.3143,-1.3399,-1.3087,-1.3108,-1.2977,0.0,0.0,0.0,0.0,0.0,0.0,0.0,0.0,0.0,0.0,0.0,0.0,0.0,0.0,0.0,0.0,0.0,0.0,0.0,0.0,0.0,0.0,0.0,0.0,0.0,0.0,0.0,0.0,-0.6562,-0.6343,-0.6835,0.0,0.0,0.0,0.0,0.0,0.0,0.0,0.0,0.0,0.0,-0.9731,-0.9627,-0.9792,0.0,0.0,-0.953,-0.9436,-0.9265,-0.908,-0.885,-0.8558,-0.8741,0.0,0.0,0.0,0.0,0.0,0.0,0.0,0.0,0.0,0.0,0.0,0.0,0.0,0.0,0.0,0.0,0.0,0.0,0.0,0.0,0.0,0.0,0.0,0.0,0.0,0.0,0.0,0.0,0.0,0.0,0.0,0.0,0.0,0.0,0.0,0.0,0.0,0.0,0.0,0.0,0.0,0.0,0.0,0.0,0.0,0.0,0.0,0.0,0.0,0.0,0.0,0.0,-0.904,-1.0058,-1.0824,-1.1493,-1.2027,-1.2897,-1.3271,-1.3193,-1.3146,-1.3041,0.0,0.0,0.0,0.0,0.0,0.0,0.0,0.0,0.0,0.0,0.0,0.0,0.0,0.0,0.0,0.0,0.0,0.0,0.0,0.0,0.0,0.0,0.0,0.0,0.0,0.0,0.0,0.0,-0.6611,-0.6399,-0.6961,0.0,0.0,0.0,0.0,0.0,0.0,0.0,0.0,0.0,0.0,-0.9387,-0.9372,-0.9602,-0.9722,-0.9509,-0.9515,-0.9568,-0.9437,-0.9162,-0.8896,-0.8874,0.0,0.0,0.0,0.0,0.0,0.0,0.0,0.0,0.0,0.0,0.0,0.0,0.0,0.0,0.0,0.0,0.0,0.0,0.0,0.0,0.0,0.0,0.0,0.0,0.0,0.0,0.0,0.0,0.0,0.0,-1.4179,0.0,0.0,0.0,0.0,0.0,0.0,0.0,0.0,0.0,0.0,0.0,0.0,0.0,0.0,0.0,0.0,0.0,0.0,0.0,0.0,0.0,0.0,-0.9098,-0.9829,-1.0767,-1.1543,-1.2192,-1.3067,-1.3563,-1.37,-1.3642,-1.3325,-1.2813,0.0,0.0,0.0,0.0,0.0,0.0,0.0,0.0,0.0,0.0,0.0,0.0,0.0,0.0,0.0,0.0,0.0,0.0,0.0,0.0,0.0,0.0,0.0,0.0,0.0,0.0,-0.792,-0.7565,-0.7265,0.0,0.0,0.0,0.0,0.0,0.0,0.0,0.0,0.0,0.0,-0.904,-0.9011,-0.9022,-0.9497,-0.9783,-0.9443,-0.9861,-1.0101,-0.9742,-0.9672,-0.9535,0.0,0.0,0.0,0.0,0.0,0.0,0.0,0.0,0.0,0.0,0.0,0.0,0.0,0.0,0.0,0.0,0.0,0.0,0.0,0.0,0.0,0.0,0.0,0.0,0.0,0.0,0.0,-1.6017,-1.5659,0.0,0.0,0.0,0.0,0.0,0.0,0.0,0.0,0.0,0.0,0.0,-1.2776,-1.2967,0.0,0.0,0.0,0.0,0.0,0.0,0.0,0.0,0.0,0.0,0.0,0.0,-0.9925,-1.0637,-1.1364,-1.1939,-1.2351,-1.3025,-1.3118,-1.2607,-1.3173,-1.3226,-1.2733,0.0,0.0,0.0,0.0,0.0,0.0,0.0,0.0,0.0,0.0,0.0,0.0,0.0,0.0,0.0,0.0,0.0,0.0,0.0,0.0,0.0,0.0,0.0,0.0,0.0,-0.7465,0.0,0.0,0.0,0.0,0.0,0.0,0.0,0.0,0.0,0.0,0.0,-0.8925,-0.9006,-0.9029,-0.9009,-0.9041,-0.9203,-0.9389,0.0,0.0,0.0,0.0,0.0,0.0,0.0,0.0,0.0,0.0,0.0,0.0,0.0,0.0,-0.8309,-0.7703,-0.7228,-0.6759,-0.625,0.0,0.0,0.0,0.0,0.0,0.0,0.0,0.0,0.0,0.0,0.0,0.0,0.0,0.0,0.0,0.0,-1.6197,0.0,0.0,0.0,0.0,0.0,0.0,0.0,0.0,-1.3185,-1.3446,-1.3648,-1.3917,-1.3853,0.0,-1.3341,-1.2351,0.0,0.0,0.0,0.0,0.0,0.0,0.0,0.0,-1.0574,-1.1193,-1.1872,-1.2278,-1.2534,-1.2828,-1.2792,-1.2225,-1.2788,-1.2974,-1.2629,-1.1851,-1.1394,0.0,0.0,0.0,0.0,0.0,0.0,0.0,0.0,0.0,0.0,0.0,0.0,0.0,0.0,0.0,0.0,0.0,0.0,0.0,0.0,0.0,0.0,0.0,-0.7068,0.0,0.0,0.0,0.0,0.0,0.0,0.0,0.0,0.0,-0.8011,-0.8414,-0.8816,-0.8989,-0.8879,-0.8881,-0.9135,0.0,0.0,0.0,0.0,0.0,0.0,0.0,-0.9349,-0.9264,-0.9259,-0.9303,-0.9071,-0.906,-0.9018,-0.8737,0.0,0.0,-0.7579,-0.7391,-0.7171,-0.6643,-0.6697,-0.6738,-0.6331,-0.6399,-0.6531,0.0,0.0,0.0,0.0,0.0,0.0,0.0,0.0,-1.6409,-1.6492,0.0,-1.6835,0.0,0.0,0.0,0.0,0.0,0.0,0.0,0.0,-1.3941,-1.417,-1.4219,-1.4609,-1.4479,-1.3924,-1.4611,-1.4211,-1.2894,-1.1626,0.0,0.0,0.0,0.0,0.0,0.0,-1.0979,-1.1403,-1.2172,-1.2619,-1.2738,-1.2645,-1.2654,-1.2654,-1.261,-1.259,-1.25,-1.2228,-1.1895,-1.1477,-1.0712,0.0,0.0,0.0,0.0,0.0,0.0,0.0,0.0,0.0,0.0,0.0,0.0,0.0,0.0,0.0,0.0,0.0,0.0,0.0,0.0,-0.705,0.0,0.0,0.0,0.0,0.0,0.0,0.0,0.0,0.0,0.0,-0.7934,-0.844,-0.8859,-0.9103,0.0,0.0,0.0,0.0,-0.9531,-0.9623,-0.992,-1.0137,-0.9911,-0.9911,-0.9836,-0.9626,0.0,0.0,-0.9276,-0.9092,-0.8962,-0.8941,-0.8604,-0.8125,-0.7456,-0.7534,-0.7437,-0.6962,-0.7233,-0.7362,-0.7015,-0.7132,-0.7495,-2.3178,0.0,0.0,0.0,0.0,-1.9211,-1.88,-1.8251,-1.8169,-1.7981,-1.7814,-1.7228,0.0,0.0,0.0,0.0,0.0,0.0,-1.4121,-1.4369,-1.4661,-1.4943,-1.5239,-1.5367,-1.5243,-1.4945,-1.4763,-1.4459,-1.3942,-1.315,-1.2288,-1.1396,0.0,0.0,0.0,0.0,-1.1973,-1.2698,-1.2633,-1.2784,-1.3132,-1.3067,-1.3217,-1.3605,-1.2756,-1.2511,-1.2878,-1.2035,-1.1379,-1.1074,-1.0671,0.0,0.0,0.0,0.0,0.0,0.0,0.0,0.0,0.0,0.0,0.0,0.0,0.0,0.0,0.0,0.0,0.0,0.0,0.0,-0.7817,-0.6867,-0.6591,0.0,0.0,0.0,0.0,0.0,0.0,0.0,0.0,0.0,-0.8805,-0.8673,-0.8723,0.0,0.0,-0.912,-0.9432,-0.9547,-0.9634,-0.9787,0.0,0.0,0.0,-0.9922,-0.9895,-0.9836,-0.9825,-0.9798,-0.9728,-0.9643,-0.9511,-0.9202,-0.9233,-0.9033,-0.8408,-0.8117,-0.7789,-0.7438,-0.7408,-0.7267,-0.6639,-0.6645,-0.6752,-2.4983,-2.3708,-2.2133,-2.1072,-2.0382,-1.9751,-1.9329,-1.9105,-1.9361,-1.9069,-1.8298,-1.7725,-1.7173,-1.6683,-1.6316,0.0,0.0,0.0,-1.4924,-1.5064,-1.5289,-1.5585,-1.5778,-1.573,-1.5604,-1.5536,-1.4994,-1.4764,-1.4716,-1.4063,-1.344,-1.2866,0.0,0.0,-1.2111,-1.2367,-1.2779,-1.3323,-1.3043,-1.3004,-1.3186,-1.2777,-1.2692,-1.294,-1.2377,-1.2193,-1.2431,-1.1818,-1.1319,-1.0981,-1.0769,-1.0455,0.0,0.0,0.0,0.0,0.0,0.0,0.0,0.0,0.0,0.0,0.0,-0.8924,0.0,0.0,0.0,0.0,-0.8154,-0.7884,-0.7532,-0.6995,0.0,0.0,0.0,0.0,0.0,0.0,0.0,-0.7785,-0.8283,-0.8851,-0.9152,-0.8958,-0.8964,-0.9427,-0.9324,-0.9324,-0.9669,0.0,-0.9663,-0.9884,-0.9922,-0.9922,-0.9922,-0.9922,-0.9922,-0.9922,-0.9922,-0.9922,-0.9922,-0.9771,-0.9567,-0.9383,-0.9229,-0.9025,-0.8748,-0.8422,-0.8096,-0.781,-0.7607,-0.7292,-0.6629,-0.6622,-0.6645,-2.6451,-2.5539,-2.301,-2.1675,-2.1112,-1.9737,-1.9457,-1.9944,-2.0054,-1.9636,-1.8893,-1.8154,-1.7763,-1.7583,-1.6376,0.0,-1.552,-1.5708,-1.5612,-1.5446,-1.592,-1.6077,-1.5924,-1.5828,-1.576,-1.5682,-1.5303,-1.5117,-1.5128,-1.4562,-1.4216,-1.4222,-1.3498,-1.2972,-1.2677,-1.3265,-1.3548,-1.3584,-1.3441,-1.3268,-1.3059,-1.206,-1.1538,-1.1591,-1.1766,-1.1766,-1.1547,-1.1619,-1.1471,-1.1048,-1.0922,-1.0698,-1.0286,0.0,0.0,0.0,0.0,0.0,0.0,0.0,0.0,0.0,0.0,0.0,0.0,0.0,0.0,0.0,-0.7126,0.0,-0.6999,-0.7315,0.0,0.0,0.0,-0.828,-0.797,-0.8244,-0.8382,-0.8052,0.0,0.0,-0.9125,0.0,-0.94,-0.983,-0.9529,-0.9421,-0.9863,-0.9739,-0.9685,-0.989,-0.9922,-0.9922,-0.9922,-0.9922,-0.9922,-0.9922,-0.9922,-0.9846,-0.9846,-0.9549,-0.9322,-0.9266,-0.8827,-0.8439,-0.8623,-0.8467,-0.8286,-0.8063,-0.7753,-0.7391,-0.6893,-0.6885,-0.6878,-2.7257,-2.6075,-2.4614,-2.3301,-2.2108,-2.0758,-2.0558,-2.1039,-1.9597,-1.9308,-1.9769,-1.8752,-1.8182,-1.7932,-1.6953,-1.6546,-1.6632,-1.6304,-1.6064,-1.5883,-1.5995,-1.6192,-1.6253,-1.6433,-1.6226,-1.5712,-1.589,-1.5692,-1.5244,-1.5308,-1.5179,-1.4803,-1.4906,-1.4506,-1.3676,-1.3877,-1.4047,-1.4241,-1.4004,-1.3589,-1.2894,-1.2095,-1.1885,-1.2169,-1.1828,-1.1631,-1.1643,-1.1301,-1.0953,-1.0675,-1.0624,-1.0354,-0.9897,-1.0384,0.0,0.0,0.0,0.0,0.0,0.0,0.0,0.0,0.0,-0.9048,-0.9188,0.0,-0.8629,0.0,-0.6719,-0.6698,-0.7872,-0.7566,0.0,0.0,-0.8468,-0.8353,-0.8286,-0.843,-0.8441,-0.8172,-0.853,-0.8885,-0.8937,-0.9265,-0.9534,-0.9647,-0.9712,-0.9793,-0.9906,-0.9879,-0.9857,-0.9911,-0.9922,-0.9922,-0.9922,-0.9922,-0.9922,-0.9922,-0.9771,-0.9695,-0.9695,-0.9473,-0.9271,-0.9104,-0.8803,-0.8588,-0.8495,-0.805,-0.7758,-0.7671,-0.7526,-0.7222,-0.641,-0.6279,-0.6268,-2.7448,-2.6485,-2.5171,-2.4034,-2.3076,-2.2016,-2.1463,-2.1217,-2.0167,-1.9653,-1.953,-1.8666,-1.8205,-1.8073,-1.7409,-1.7104,-1.7067,-1.6684,-1.641,-1.6171,-1.6239,-1.6316,-1.6405,-1.6448,-1.6242,-1.5904,-1.59,-1.5821,-1.5683,-1.5785,-1.5741,-1.5651,-1.5689,-1.5341,-1.4744,-1.4468,-1.4434,-1.4606,-1.4045,-1.3383,-1.2537,-1.1944,-1.1783,-1.2015,-1.1419,-1.1251,-1.1452,-1.1017,-1.0697,-1.058,-1.055,-1.0383,-1.0027,-1.0292,-1.0205,0.0,0.0,0.0,0.0,0.0,0.0,0.0,0.0,0.0,0.0,0.0,-0.8717,0.0,-0.7398,-0.7536,-0.8561,-0.827,-0.8352,-0.8992,-0.8799,-0.8633,-0.8691,-0.8564,-0.8447,-0.8371,-0.8559,-0.8748,-0.8923,-0.9098,-0.9303,-0.9394,-0.9518,-0.968,-0.9879,-0.9922,-0.9922,-0.9922,-0.9922,-0.9922,-0.9922,-0.9922,-0.9922,-0.9846,-0.9776,-0.9625,-0.962,-0.9322,-0.913,-0.9006,-0.8758,-0.8514,-0.8255,-0.7937,-0.7575,-0.724,-0.7202,-0.7044,-0.6533,-0.6419,-0.6412,-2.7284,-2.6499,-2.5084,-2.4227,-2.3633,-2.3007,-2.2196,-2.1252,-2.1064,-2.0254,-1.8892,-1.8499,-1.8334,-1.8279,-1.7934,-1.7634,-1.7333,-1.6941,-1.6648,-1.642,-1.6374,-1.6374,-1.6374,-1.6243,-1.6175,-1.6056,-1.576,-1.5812,-1.6307,-1.5943,-1.6023,-1.6423,-1.6075,-1.5741,-1.5552,-1.5021,-1.4715,-1.4588,-1.3803,-1.2993,-1.2147,-1.1617,-1.1362,-1.1461,-1.0809,-1.0665,-1.1006,-1.0689,-1.0501,-1.0616,-1.0473,-1.036,-1.0293,-1.0061,-0.9937,0.0,-0.9605,0.0,0.0,0.0,0.0,0.0,0.0,0.0,0.0,-0.915,-0.891,-0.8658,-0.8452,-0.8537,-0.9022,-0.907,-0.9184,-0.9448,-0.9221,-0.9022,-0.8952,-0.8705,-0.8517,-0.8517,-0.8517,-0.8597,-0.8781,-0.8861,-0.899,-0.9147,-0.9303,-0.943,-0.9707,-0.9863,-0.9868,-0.9911,-0.9922,-0.9922,-0.9922,-0.9846,-0.9846,-0.9846,-0.962,-0.9544,-0.9544,-0.917,-0.8937,-0.8878,-0.8625,-0.8271,-0.8116,-0.7851,-0.7525,-0.695,-0.6912,-0.6887,-0.6769,-0.6702,-0.6773,-2.6918,-2.5708,-2.4866,-2.4019,-2.3223,-2.309,-2.287,-2.2623,-2.151,-2.0499,-1.968,-1.9611,-1.9506,-1.9367,-1.8783,-1.8316,-1.7997,-1.7307,-1.6775,-1.6415,-1.641,-1.6374,-1.6394,-1.6688,-1.6588,-1.6155,-1.6305,-1.6337,-1.6317,-1.6125,-1.6103,-1.6191,-1.6103,-1.5829,-1.5439,0.0,0.0,0.0,-1.3453,-1.2845,-1.2389,-1.1391,-1.0825,-1.0871,-1.0488,0.0,-1.0246,-1.0296,-1.0296,-1.0135,-0.9925,0.0,0.0,0.0,0.0,0.0,0.0,0.0,0.0,0.0,0.0,0.0,-0.9649,-0.9745,-0.9494,-0.9309,-0.9004,-0.8713,-0.855,-0.8616,-0.9034,-0.9009,-0.906,-0.9448,-0.9221,-0.9022,-0.9017,-0.87,-0.8517,-0.8517,-0.8517,-0.8533,-0.8603,-0.8899,-0.9077,-0.8985,-0.9278,-0.9495,-0.9427,-0.9585,-0.9723,-0.9879,-0.9846,-0.9846,-0.9922,-0.9771,-0.97,-0.9625,-0.9327,-0.9175,-0.9099,-0.8932,-0.8713,-0.8579,-0.8283,-0.8089,-0.7869,-0.7527,-0.727,-0.7131,-0.6968,-0.6764,-0.636,-0.6256,-0.6256,-2.6533,0.0,-2.4408,-2.3644,0.0,-2.3125,-2.303,-2.2896,-2.2172,-2.1209,-2.0111,-1.9948,-1.9795,-1.9677,-1.9226,-1.8664,-1.8082,-1.7589,-1.7009,-1.6389,-1.6363,-1.6374,-1.6384,-1.6612,-1.6598,-1.6461,-1.6507,-1.6718,-1.6931,-1.6556,-1.6602,-1.7012,-1.6602,-1.6279,-1.6064,-1.5377,-1.4753,-1.413,-1.3339,-1.2865,-1.2489,-1.1455,-1.0909,-1.0942,0.0,0.0,0.0,0.0,0.0,0.0,0.0,0.0,0.0,0.0,0.0,-1.0043,-1.0102,-1.0051,-0.9836,-0.9621,-0.953,-0.9542,-0.9918,-1.0008,-0.9699,-0.9545,-0.9298,-0.9071,-0.9126,-0.9192,-0.9256,-0.9274,-0.9265,-0.939,-0.9145,-0.8952,-0.8894,-0.8641,-0.8517,-0.8517,-0.8517,-0.8554,-0.8678,-0.8872,-0.8985,-0.8831,-0.8948,-0.9057,-0.9073,-0.9238,-0.9505,-0.9604,-0.962,-0.9625,-0.9625,-0.9549,-0.9473,-0.9397,-0.9175,-0.9027,-0.9027,-0.8779,-0.8514,-0.8406,-0.8226,-0.8014,-0.7692,-0.749,-0.7256,-0.703,-0.6872,-0.67,-0.634,-0.6356,-0.6487,-2.6143,-2.5316,-2.3991,-2.3394,-2.3288,-2.3301,-2.323,-2.3108,0.0,0.0,0.0,-2.0569,-2.0282,-1.9941,-1.9587,-1.8963,-1.8145,-1.7668,-1.7122,-1.6498,-1.6431,-1.6374,-1.6384,-1.6456,-1.6677,-1.697,-1.6739,-1.7006,-1.7675,-1.7037,-1.7064,-1.7764,-1.7109,-1.6665,-1.649,-1.5501,-1.4634,-1.3986,-1.3319,-1.2781,-1.2419,-1.16,-1.1191,-1.1363,-1.0485,-1.0166,-1.0423,-1.0128,-0.997,-1.0002,-0.9708,-0.9768,-1.0198,-0.9976,-0.9963,-1.0331,-1.0128,-0.997,-0.991,-0.9592,-0.9512,-0.982,-1.0075,-1.0133,-0.9831,-0.9726,-0.9587,-0.9476,-0.9611,-0.9676,-0.9548,-0.9478,-0.9408,-0.9332,-0.9081,-0.8958,-0.8829,-0.8641,-0.8517,-0.8517,-0.8517,-0.8581,-0.8754,-0.8834,-0.8778,-0.8555,-0.8581,-0.8574,-0.8659,-0.9033,-0.9306,-0.9316,-0.9397,-0.9322,-0.9322,-0.9246,-0.9246,-0.9246,-0.9064,-0.8888,-0.8859,-0.856,-0.8359,-0.833,-0.817,-0.7906,-0.7619,-0.7464,-0.727,-0.6841,-0.6741,-0.6609,-0.6486,-0.6552,-0.6626,-2.6069,-2.515,-2.3932,-2.3669,-2.4052,-2.404,-2.4167,-2.4322,-2.3538,-2.2841,-2.24,-2.2645,-2.2092,-2.0928,-2.0036,-1.9393,-1.8784,-1.738,-1.6757,0.0,-1.6488,-1.6374,-1.6394,-1.6777,-1.7131,-1.7544,-1.7265,-1.752,-1.8145,-1.7258,-1.6982,-1.7373,-1.6973,-1.6475,-1.5982,-1.4881,-1.415,-1.3802,-1.3215,-1.2666,-1.2174,-1.1593,-1.136,-1.1521,-1.1267,-1.0894,-1.0547,-1.0493,-1.0249,-0.9874,-0.9449,-0.9503,-1.0082,-1.0013,-1.0108,-1.0539,-1.0624,-1.0617,-1.0512,-1.0342,-1.0257,-1.0265,-0.9953,-0.9682,-0.948,-0.9775,-0.9799,-0.9558,-0.9524,-0.9548,-0.9478,-0.9408,-0.9338,-0.9274,-0.9022,-0.8835,-0.877,-0.8582,-0.8511,-0.8517,-0.8517,-0.8452,-0.8396,-0.8487,-0.855,-0.8225,-0.8333,-0.8343,-0.8331,-0.8813,-0.9216,-0.9322,-0.9322,-0.9322,-0.9226,-0.917,-0.8993,-0.9022,-0.8707,-0.8522,-0.8517,-0.8341,-0.8146,-0.8132,-0.7981,-0.7848,-0.7723,-0.7493,-0.7162,-0.6841,-0.6766,-0.656,-0.6358,-0.6218,-0.6156,-2.625,-2.4728,-2.3981,-2.3841,-2.4191,-2.4343,-2.4613,-2.4834,-2.4274,-2.3562,-2.2745,-2.2829,-2.2098,-2.0694,-2.0172,-1.936,-1.8294,-1.7755,-1.7296,-1.7096,-1.7113,-1.7108,-1.715,-1.7564,-1.7946,-1.826,-1.8395,-1.8586,-1.8704,-1.823,-1.7898,-1.7686,-1.7006,-1.6453,-1.6085,-1.5376,-1.4444,-1.3427,-1.2819,-1.2458,-1.2375,-1.185,-1.1521,-1.1453,-1.1282,-1.0854,-1.0196,-1.0401,-1.0287,-0.9807,-0.985,-1.0004,-1.0361,-1.0494,-1.0658,-1.0857,-1.0808,-1.0751,-1.0701,-1.0581,-1.0331,-0.9877,-0.9835,-0.9737,-0.9493,-0.9603,-0.967,-0.9548,-0.9478,-0.9478,-0.9408,-0.9338,-0.921,-0.9022,-0.8899,-0.8705,-0.8501,-0.8511,-0.8452,-0.8252,-0.8312,-0.8289,-0.8276,-0.8497,-0.8551,-0.826,-0.8367,-0.8251,-0.7971,-0.8418,-0.8798,-0.869,-0.8661,-0.8719,-0.8807,-0.866,-0.8577,-0.8668,-0.8441,-0.8245,-0.8212,-0.8056,-0.7985,-0.7906,-0.778,-0.7647,-0.7637,-0.7324,-0.695,-0.6638,-0.6423,-0.6131,-0.5926,-0.576,-0.5693,-2.6706,-2.4827,-2.4365,-2.4285,-2.4507,-2.4691,-2.5004,-2.5283,-2.5012,-2.422,-2.3203,-2.3107,-2.2133,-2.0494,-2.024,-1.936,-1.8002,-1.7884,-1.7684,-1.7396,-1.753,-1.7626,-1.7771,-1.8175,-1.8616,-1.9008,-1.9328,-1.9454,-1.9343,-1.9203,-1.8784,-1.8115,-1.7053,-1.6515,-1.6395,-1.5716,-1.4675,-1.3413,-1.2586,-1.2251,-1.2428,-1.204,-1.1709,-1.1526,-1.1395,-1.0997,-1.034,-1.0529,-1.0514,-1.0158,-1.0361,-1.0582,-1.0823,-1.102,-1.1195,-1.1256,-1.1156,-1.0974,-1.0872,-1.0742,-1.0336,-0.9618,-0.98,-0.9792,-0.9542,-0.9478,-0.9478,-0.9478,-0.9478,-0.9408,-0.9338,-0.921,-0.9087,-0.8835,-0.87,-0.8571,-0.8301,-0.8312,-0.8317,-0.8052,-0.8153,-0.8261,-0.829,-0.8398,-0.8384,-0.8151,-0.817,-0.8027,-0.7697,-0.7918,-0.8002,-0.7941,-0.7943,-0.8151,-0.8292,-0.8207,-0.8251,-0.8384,-0.8227,-0.807,-0.8037,-0.7855,-0.7739,-0.7733,-0.7622,-0.7516,-0.7416,-0.7225,-0.6855,-0.6502,-0.6177,-0.5866,-0.5389,-0.5229,-0.5226,-2.743,-2.6399,-2.5484,-2.5242,-2.5315,-2.5444,-2.571,-2.5849,-2.5369,-2.4779,-2.4294,-2.4331,-2.3051,-2.1186,-2.047,-1.9306,-1.793,-1.7241,-1.7179,-1.7472,-1.7385,-1.7457,-1.7792,-1.8206,-1.8847,-1.9603,-1.9551,-1.9849,-2.027,-1.972,-1.9209,-1.8434,-1.7269,-1.6693,-1.6642,-1.5411,-1.4513,-1.4082,-1.277,-1.213,-1.2135,-1.1903,-1.1927,-1.2212,-1.2074,-1.1919,-1.1523,-1.1557,-1.1411,-1.1158,-1.0918,-1.1085,-1.1468,-1.1434,-1.1586,-1.192,-1.182,-1.1527,-1.1093,-1.0878,-1.0501,-1.0009,-0.9843,-0.9734,-0.9548,-0.9478,-0.9478,-0.9478,-0.9408,-0.9332,-0.9274,-0.9022,-0.8835,-0.877,-0.8436,-0.8236,-0.8187,-0.8112,-0.8047,-0.7982,-0.8174,-0.8233,-0.8107,-0.8079,-0.788,-0.7511,-0.7617,-0.7584,-0.722,-0.7343,-0.7432,-0.7279,-0.7584,-0.8018,-0.8127,-0.8108,-0.8103,-0.826,-0.8031,-0.7869,-0.7859,-0.7674,-0.7513,-0.7446,-0.7459,-0.738,-0.7254,-0.73,-0.7053,-0.6309,-0.6022,-0.5945,-0.5135,-0.4761,-0.4761,-2.7326,-2.6125,-2.5426,-2.5396,-2.5785,-2.603,-2.6152,-2.6029,-2.5369,-2.4747,-2.4151,-2.3688,-2.2396,-2.0614,-1.9666,-1.8548,-1.7413,-1.7536,-1.7754,-1.7927,-1.8239,-1.8404,-1.8557,-1.8982,-1.9417,-1.9768,-1.9897,-2.0002,-2.0018,-1.9409,-1.8818,-1.8383,-1.7217,-1.6583,-1.6489,-1.5436,-1.4522,-1.385,-1.3016,-1.2482,-1.2282,-1.2243,-1.2204,-1.2161,-1.2379,-1.2221,-1.1739,-1.1791,-1.1752,-1.1429,-1.1406,-1.1526,-1.1835,-1.1926,-1.1974,-1.205,-1.1677,-1.1247,-1.0688,-1.0555,-1.0308,-0.9734,-0.967,-0.9542,-0.9408,-0.9408,-0.9344,-0.9215,-0.9274,-0.921,-0.9022,-0.877,-0.8576,-0.8436,-0.8242,-0.8093,-0.8097,-0.8107,-0.8163,-0.8074,-0.8064,-0.8049,-0.7909,-0.7777,-0.7609,-0.7446,-0.7443,-0.7388,-0.7124,-0.7274,-0.7356,-0.7306,-0.7579,-0.7726,-0.773,-0.773,-0.7801,-0.7934,-0.7812,-0.7672,-0.7624,-0.7473,-0.7253,-0.7146,-0.7029,-0.6931,-0.6585,-0.6428,-0.6172,-0.5791,-0.5364,-0.5052,-0.459,-0.4364,-0.4295,-2.7195,-2.6073,-2.5696,-2.5793,-2.614,-2.624,-2.6052,-2.5654,-2.5074,-2.4297,-2.3565,-2.2474,-2.1236,-2.0023,-1.9137,-1.8151,-1.7251,-1.7777,-1.8116,-1.8246,-1.8731,-1.9007,-1.9162,-1.9406,-1.9634,-1.973,-1.9878,-1.99,-1.9715,-1.8862,-1.8443,-1.8399,-1.7467,-1.6849,-1.6553,-1.5609,-1.4715,-1.3924,-1.3395,-1.2877,-1.2561,-1.2621,-1.2562,-1.2218,-1.2538,-1.2426,-1.1887,-1.2094,-1.2118,-1.1871,-1.1968,-1.2051,-1.2178,-1.2226,-1.212,-1.1872,-1.1498,-1.0989,-1.0308,-1.0244,-0.9989,-0.9542,-0.9478,-0.9478,-0.9338,-0.9332,-0.921,-0.9022,-0.9022,-0.8958,-0.877,-0.8511,-0.8306,-0.8172,-0.7982,-0.7931,-0.7922,-0.8028,-0.8005,-0.7941,-0.7933,-0.7913,-0.7792,-0.7697,-0.7582,-0.7413,-0.733,-0.7265,-0.7068,-0.7085,-0.713,-0.7166,-0.7178,-0.7334,-0.7486,-0.7522,-0.7593,-0.7517,-0.7433,-0.738,-0.7288,-0.7089,-0.7005,-0.6868,-0.6671,-0.6479,-0.6308,-0.5899,-0.5656,-0.5429,-0.5009,-0.453,-0.4447,-0.4198,-0.4051,-2.7183,-2.6648,-2.6786,-2.6644,-2.6427,-2.5889,-2.529,-2.4781,-2.4164,-2.3496,-2.2633,-2.102,-1.9862,-1.9366,-1.9232,-1.8567,-1.7486,-1.7615,-1.798,-1.8235,-1.8522,-1.8791,-1.9121,-1.9106,-1.9266,-1.9469,-1.942,-1.9445,-1.9481,-1.8546,-1.8397,-1.887,-1.8128,-1.7592,-1.7198,-1.605,-1.5134,-1.4579,-1.3942,-1.3405,-1.3026,-1.2997,-1.285,-1.2581,-1.2544,-1.2573,-1.2663,-1.2634,-1.2634,-1.274,-1.2557,-1.252,-1.2528,-1.2297,-1.1872,-1.1428,-1.1185,-1.087,-1.0364,-1.011,-0.9862,-0.9542,-0.9478,-0.9414,-0.928,-0.9274,-0.9081,-0.8835,-0.8635,-0.8576,-0.8447,-0.8312,-0.8177,-0.8052,-0.7857,-0.7746,-0.77,-0.7673,-0.7545,-0.7636,-0.7769,-0.7826,-0.7773,-0.7813,-0.7568,-0.7264,-0.7056,-0.6865,-0.6702,-0.6557,-0.6492,-0.6478,-0.6612,-0.6814,-0.7334,-0.7326,-0.7301,-0.7208,-0.7105,-0.7097,-0.683,-0.67,-0.664,-0.6551,-0.6263,-0.6133,-0.6005,-0.5912,-0.5711,-0.5423,-0.4939,-0.4568,-0.4471,-0.4227,-0.4081,-2.6035,-2.5504,-2.5743,-2.6246,-2.6686,-2.5574,-2.4468,-2.3501,-2.3357,-2.2726,-2.1696,-2.0438,-1.9409,-1.846,-1.8681,-1.8321,-1.7629,-1.7862,-1.8161,-1.8491,-1.8749,-1.8975,-1.9054,-1.8998,-1.8936,-1.8992,-1.8499,-1.8237,-1.8232,-1.8133,-1.8283,-1.8356,-1.8145,-1.7779,-1.7252,-1.6456,-1.5732,-1.5086,-1.4313,-1.3737,-1.3397,-1.3235,-1.3119,-1.2867,-1.2936,-1.305,-1.3111,-1.2928,-1.2858,-1.2928,-1.2744,-1.2621,-1.256,-1.2313,-1.174,-1.1059,-1.0926,-1.0618,-1.0053,-0.9932,-0.9734,-0.9408,-0.9338,-0.928,-0.9017,-0.8958,-0.8823,-0.8501,-0.8371,-0.8242,-0.8057,-0.7922,-0.7922,-0.7922,-0.7727,-0.7659,-0.7698,-0.7731,-0.7711,-0.7815,-0.7829,-0.773,-0.764,-0.7511,-0.7301,-0.7039,-0.6828,-0.6683,-0.6591,-0.6547,-0.6461,-0.6442,-0.6489,-0.6486,-0.6579,-0.6847,-0.6832,-0.6607,-0.6526,-0.6521,-0.6377,-0.6225,-0.613,-0.6056,-0.5857,-0.5631,-0.5479,-0.5473,-0.5419,-0.524,-0.4756,-0.4679,-0.466,-0.4325,-0.4183,-2.5075,-2.4529,-2.5049,-2.5408,-2.5597,-2.4887,-2.3671,-2.2455,-2.2488,-2.1938,-2.0843,-2.0053,-1.9083,-1.8251,-1.8266,-1.8208,-1.8048,-1.8246,-1.8428,-1.8615,-1.8923,-1.9075,-1.9008,-1.8875,-1.8751,-1.8516,-1.774,-1.735,-1.7512,-1.76,-1.7951,-1.8347,-1.8295,-1.799,-1.7451,-1.6975,-1.6338,-1.5463,-1.4647,-1.4015,-1.3777,-1.3479,-1.3294,-1.3172,-1.3241,-1.3241,-1.318,-1.305,-1.2989,-1.292,-1.2744,-1.256,-1.2436,-1.2058,-1.156,-1.0863,-1.0611,-1.0301,-0.9862,-0.974,-0.9536,-0.9338,-0.921,-0.9081,-0.8835,-0.8711,-0.8506,-0.8301,-0.8107,-0.7917,-0.7857,-0.7727,-0.7756,-0.7876,-0.7697,-0.7617,-0.7758,-0.7841,-0.7796,-0.7801,-0.773,-0.7631,-0.7527,-0.7377,-0.7236,-0.7045,-0.6869,-0.6757,-0.6578,-0.6479,-0.6381,-0.6277,-0.6146,-0.6039,-0.5983,-0.5987,-0.6239,-0.6118,-0.6108,-0.6046,-0.6012,-0.5864,-0.5709,-0.5556,-0.5326,-0.5171,-0.5093,-0.5018,-0.4969,-0.4896,-0.4806,-0.4719,-0.4651,-0.4485,-0.4285,-2.4455,-2.3846,-2.4807,-2.4455,-2.3599,-2.3803,-2.3121,-2.1806,-2.1678,-2.1202,-2.0296,-1.9536,-1.8994,-1.8534,-1.8424,-1.8427,-1.8554,-1.8615,-1.8647,-1.871,-1.8944,-1.8931,-1.8808,-1.8741,-1.8509,-1.816,-1.7194,-1.7057,-1.7504,-1.7072,-1.7404,-1.8564,-1.8453,-1.8138,-1.8008,-1.7326,-1.672,-1.5833,-1.4906,-1.4326,-1.411,-1.3697,-1.3441,-1.3302,-1.3241,-1.318,-1.2989,-1.2981,-1.292,-1.2805,-1.2683,-1.2436,-1.2127,-1.1685,-1.1178,-1.0807,-1.0301,-0.9989,-0.9804,-0.9472,-0.9338,-0.921,-0.9145,-0.8958,-0.8705,-0.8576,-0.8376,-0.8177,-0.7922,-0.7792,-0.7862,-0.7681,-0.7621,-0.773,-0.7793,-0.7716,-0.7768,-0.7773,-0.7769,-0.7617,-0.7564,-0.7499,-0.7482,-0.7458,-0.7403,-0.7187,-0.7061,-0.6863,-0.6409,-0.6307,-0.6096,-0.5761,-0.5597,-0.556,-0.536,-0.5228,-0.5484,-0.5733,-0.5745,-0.5786,-0.5631,-0.5479,-0.5401,-0.5246,-0.5093,-0.4937,-0.5015,-0.494,-0.494,-0.4876,-0.4803,-0.4747,-0.4625,-0.4491,-0.438,-2.4092,-2.3654,-2.4,-2.3768,-2.3163,-2.3339,-2.2702,-2.1661,-2.1518,-2.098,-2.0295,-1.9717,-1.9361,-1.921,-1.9236,-1.91,-1.8909,-1.8967,-1.8977,-1.893,-1.8813,-1.8751,-1.8741,-1.8414,-1.7919,-1.7321,-1.6735,-1.6689,-1.7035,-1.7044,-1.7543,-1.8043,-1.8128,-1.788,-1.7479,-1.6838,-1.6245,-1.5965,-1.53,-1.4797,-1.4504,-1.4047,-1.3546,-1.3136,-1.3111,-1.2867,-1.2428,-1.2683,-1.2797,-1.2744,-1.2691,-1.2436,-1.212,-1.1747,-1.1247,-1.0751,-1.0364,-0.9983,-0.953,-0.9344,-0.9215,-0.9022,-0.8894,-0.87,-0.8436,-0.8301,-0.8177,-0.7917,-0.7727,-0.7727,-0.7681,-0.7731,-0.776,-0.7899,-0.7712,-0.765,-0.774,-0.7655,-0.7541,-0.7545,-0.7526,-0.7489,-0.7532,-0.7471,-0.7416,-0.7179,-0.6993,-0.6662,-0.6388,-0.6028,-0.5712,-0.5467,-0.5299,-0.5252,-0.5158,-0.5089,-0.5149,-0.5351,-0.5389,-0.5401,-0.5249,-0.5171,-0.509,-0.5012,-0.4857,-0.4859,-0.4859,-0.4859,-0.4781,-0.4758,-0.4683,-0.4594,-0.4691,-0.4574,-0.4355,-2.3878,-2.3616,-2.3582,-2.339,-2.3125,-2.3125,-2.2764,-2.2115,-2.1584,-2.1149,-2.0643,-2.0002,-1.9832,-1.9933,-1.9893,-1.9653,-1.9407,-1.9243,-1.9121,-1.9053,-1.8745,-1.8559,-1.8472,-1.8056,-1.761,-1.7149,-1.693,-1.6959,-1.7145,-1.7207,-1.7465,-1.7779,-1.7697,-1.7397,-1.6911,-1.6554,-1.6192,-1.587,-1.5333,-1.4908,-1.4629,-1.3902,-1.3285,-1.2929,-1.2685,-1.2313,-1.1934,-1.2189,-1.2367,-1.2367,-1.2251,-1.2127,-1.1872,-1.1498,-1.0996,-1.0561,-1.011,-0.9722,-0.9338,-0.921,-0.9022,-0.8835,-0.8705,-0.8571,-0.8306,-0.8172,-0.7982,-0.7792,-0.7666,-0.7596,-0.7545,-0.7565,-0.775,-0.7904,-0.7817,-0.7711,-0.7758,-0.7522,-0.7461,-0.7489,-0.7456,-0.7382,-0.7368,-0.7381,-0.73,-0.7002,-0.6742,-0.6385,-0.6133,-0.5792,-0.5556,-0.5295,-0.5059,-0.4991,-0.4982,-0.4958,-0.4901,-0.4953,-0.5093,-0.5093,-0.4937,-0.4937,-0.4857,-0.4776,-0.4621,-0.4621,-0.4623,-0.4543,-0.454,-0.4503,-0.4484,-0.4496,-0.4501,-0.4464,-0.4265,-2.3798,-2.3569,-2.3501,-2.3334,-2.3128,-2.3153,-2.3046,-2.2686,-2.187,-2.1248,-2.1004,-2.0281,-2.0205,-2.0469,-2.0268,-2.0031,-1.989,-1.9293,-1.8984,-1.8933,-1.8702,-1.8367,-1.8008,-1.7716,-1.7482,-1.7326,-1.7453,-1.7593,-1.7441,-1.7246,-1.7266,-1.7515,-1.7144,-1.6786,-1.6315,-1.6403,-1.6044,-1.5505,-1.4941,-1.4723,-1.4714,-1.3518,-1.275,-1.2718,-1.2148,-1.1747,-1.1622,-1.156,-1.156,-1.1622,-1.1685,-1.1622,-1.1435,-1.0933,-1.0498,-1.0238,-0.9658,-0.9402,-0.921,-0.9022,-0.8835,-0.877,-0.8576,-0.8376,-0.8177,-0.8047,-0.7917,-0.7661,-0.7596,-0.7526,-0.7526,-0.7579,-0.7607,-0.7768,-0.791,-0.7933,-0.7768,-0.7456,-0.7318,-0.7418,-0.7291,-0.719,-0.7182,-0.7187,-0.7037,-0.6772,-0.6565,-0.6304,-0.5825,-0.5562,-0.5404,-0.5206,-0.4999,-0.4942,-0.5004,-0.4985,-0.486,-0.4809,-0.4862,-0.4862,-0.4781,-0.4704,-0.4701,-0.4543,-0.4389,-0.4387,-0.4375,-0.429,-0.4375,-0.4448,-0.4445,-0.4382,-0.429,-0.4257,-0.4094,-2.4013,-2.362,-2.3908,-2.3665,-2.3232,-2.3567,-2.2904,-2.1717,-2.1383,-2.0885,-2.0387,-2.0182,-2.0144,-2.036,-2.0531,-2.0202,-1.9493,-1.9229,-1.8711,-1.8213,-1.8174,-1.7901,-1.7539,-1.7382,-1.7245,-1.7125,-1.725,-1.7172,-1.7125,-1.707,-1.6839,-1.6477,-1.6011,-1.5574,-1.53,-1.5054,-1.4999,-1.5172,-1.4722,-1.4336,-1.403,-1.3275,-1.2584,-1.2054,-1.1792,-1.1498,-1.1247,-1.087,-1.0996,-1.1553,-1.1435,-1.1247,-1.0989,-1.0611,-1.0168,-0.9779,-0.9466,-0.921,-0.8958,-0.8829,-0.877,-0.8576,-0.8441,-0.8242,-0.8047,-0.7857,-0.7727,-0.7596,-0.7526,-0.7526,-0.755,-0.7588,-0.7707,-0.765,-0.7892,-0.7943,-0.7664,-0.7511,-0.7342,-0.7118,-0.7038,-0.698,-0.6954,-0.7007,-0.6969,-0.6656,-0.637,-0.6106,-0.5693,-0.5329,-0.5174,-0.5096,-0.4988,-0.4993,-0.5002,-0.4991,-0.4905,-0.4761,-0.4781,-0.4706,-0.4628,-0.455,-0.4467,-0.4384,-0.4164,-0.4088,-0.4126,-0.4101,-0.4194,-0.4314,-0.4151,-0.4075,-0.4075,-0.3979,-0.374,-2.4429,-2.4187,-2.4393,-2.4293,-2.4053,-2.3912,-2.303,-2.1927,-2.1215,-2.0753,-2.0275,-1.9959,-1.9981,-2.0216,-2.0316,-2.0018,-1.928,-1.8994,-1.8589,-1.8081,-1.7762,-1.7461,-1.7226,-1.7157,-1.7181,-1.7174,-1.7463,-1.7383,-1.714,-1.7095,-1.6655,-1.5904,-1.5244,-1.485,-1.4573,-1.4483,-1.4362,-1.4437,-1.4147,-1.3816,-1.3518,-1.2767,-1.2188,-1.1736,-1.1529,-1.131,-1.0933,-1.0555,-1.0681,-1.1178,-1.1052,-1.0674,-1.0491,-1.0168,-0.9786,-0.9396,-0.921,-0.9022,-0.8835,-0.8705,-0.8571,-0.8441,-0.8236,-0.8112,-0.7922,-0.7731,-0.7666,-0.7526,-0.7526,-0.7526,-0.748,-0.7579,-0.7548,-0.7514,-0.7683,-0.7697,-0.7315,-0.7167,-0.7096,-0.6931,-0.6873,-0.6767,-0.6643,-0.6785,-0.663,-0.6353,-0.598,-0.58,-0.5461,-0.5165,-0.5018,-0.494,-0.4937,-0.4854,-0.4779,-0.4774,-0.4719,-0.4575,-0.4437,-0.4432,-0.4356,-0.4277,-0.4135,-0.4058,-0.388,-0.3785,-0.3847,-0.3834,-0.3927,-0.387,-0.3853,-0.3763,-0.3763,-0.3606,-0.3448,-2.5013,-2.5,-2.4885,-2.4998,-2.5021,-2.423,-2.3309,-2.2365,-2.1197,-2.0565,-2.0268,-1.9684,-1.9615,-1.9961,-1.9733,-1.9528,-1.935,-1.8737,-1.8379,-1.7989,-1.7562,-1.7088,-1.7001,-1.7088,-1.7186,-1.7401,-1.8035,-1.7688,-1.7153,-1.7116,-1.6517,-1.5551,-1.4955,-1.4487,-1.4064,-1.4243,-1.4148,-1.363,-1.3381,-1.3095,-1.2821,-1.2136,-1.1639,-1.1396,-1.1164,-1.1003,-1.0681,-1.0421,-1.0421,-1.1045,-1.0364,-1.004,-0.9919,-0.9588,-0.9332,-0.9139,-0.8894,-0.87,-0.87,-0.8511,-0.8376,-0.8236,-0.8236,-0.8042,-0.7792,-0.7666,-0.7596,-0.7526,-0.7526,-0.7456,-0.7461,-0.7344,-0.7251,-0.7346,-0.7394,-0.7237,-0.6974,-0.6805,-0.6789,-0.6827,-0.6707,-0.6612,-0.6474,-0.6343,-0.6106,-0.5915,-0.5632,-0.5582,-0.5306,-0.5087,-0.4937,-0.4937,-0.4781,-0.4701,-0.4631,-0.4557,-0.4437,-0.4386,-0.4097,-0.3945,-0.3949,-0.3877,-0.3737,-0.3658,-0.3551,-0.3542,-0.354,-0.3532,-0.3588,-0.3638,-0.361,-0.3526,-0.3448,-0.3292,-0.3057,-2.4872,-2.5,-2.4885,-2.4682,-2.4542,-2.4809,-2.342,-2.1007,-2.0521,-1.9924,-1.9281,-1.9072,-1.8914,-1.8754,-1.911,-1.9017,-1.8517,-1.8286,-1.8155,-1.7533,-1.7181,-1.6968,-1.689,-1.6968,-1.7024,-1.7147,-1.7512,-1.7323,-1.6792,-1.633,-1.5783,-1.5033,-1.4305,-1.3619,-1.338,-1.348,-1.3288,-1.3012,-1.2618,-1.2325,-1.2109,-1.1645,-1.1166,-1.0941,-1.0678,-1.0504,-1.0295,-0.9907,-0.9779,-0.9773,-0.9709,-0.946,-0.9274,-0.9145,-0.8947,-0.8624,-0.8431,-0.8366,-0.8301,-0.8306,-0.8236,-0.8172,-0.8047,-0.7922,-0.7731,-0.7596,-0.7526,-0.7526,-0.7526,-0.7391,-0.7265,-0.7204,-0.718,-0.7133,-0.7082,-0.7072,-0.7024,-0.7102,-0.6863,-0.6499,-0.6179,-0.5981,-0.5744,-0.5844,-0.5692,-0.5482,-0.5373,-0.5348,-0.5143,-0.4916,-0.4849,-0.4768,-0.4545,-0.4389,-0.4325,-0.4202,-0.4114,-0.3995,-0.3779,-0.3566,-0.3569,-0.3471,-0.3413,-0.3316,-0.3366,-0.328,-0.3284,-0.3287,-0.3326,-0.3387,-0.3372,-0.3214,-0.3057,-0.2901,-0.2744,-2.535,-2.4935,-2.5095,-2.4878,-2.4514,-2.4542,-2.334,-2.1218,-2.0211,-1.9437,-1.8879,-1.8664,-1.8468,-1.8309,-1.8517,-1.8309,-1.7929,-1.7798,-1.7609,-1.7153,-1.6978,-1.6908,-1.6908,-1.6908,-1.6917,-1.6963,-1.7312,-1.7024,-1.6345,-1.5895,-1.5424,-1.4513,-1.3864,-1.3593,-1.3335,-1.3173,-1.298,-1.2755,-1.2313,-1.1875,-1.1424,-1.1459,-1.1416,-1.1104,-1.067,-1.0347,-1.0296,-0.9713,-0.9408,-0.9268,-0.9151,-0.9022,-0.8894,-0.8694,-0.8495,-0.8296,-0.8107,-0.8107,-0.8107,-0.8112,-0.8042,-0.7982,-0.7857,-0.7792,-0.7661,-0.7526,-0.7526,-0.7456,-0.7396,-0.7265,-0.7082,-0.7047,-0.7,-0.6937,-0.6904,-0.6995,-0.6999,-0.6877,-0.6683,-0.6226,-0.5938,-0.571,-0.5577,-0.5431,-0.5355,-0.5167,-0.4806,-0.483,-0.4822,-0.4607,-0.4578,-0.4516,-0.4224,-0.4081,-0.4019,-0.3922,-0.3704,-0.359,-0.3386,-0.3259,-0.3205,-0.3181,-0.3072,-0.3131,-0.3103,-0.3175,-0.3162,-0.316,-0.3086,-0.3066,-0.2981,-0.2824,-0.2746,-0.2589,-0.2433,-2.5594,-2.4766,-2.5203,-2.5026,-2.4494,-2.4108,-2.305,-2.1465,-2.0149,-1.9192,-1.8802,-1.8405,-1.8319,-1.8221,-1.8037,-1.7872,-1.7588,-1.7382,-1.7194,-1.6987,-1.6908,-1.6908,-1.6908,-1.6908,-1.6908,-1.6875,-1.7021,-1.6627,-1.6052,-1.565,-1.5059,-1.423,-1.378,-1.3555,-1.3556,-1.3268,-1.2794,-1.2347,-1.2028,-1.1591,-1.1063,-1.1313,-1.1606,-1.1337,-1.0757,-1.028,-1.0116,-0.9694,-0.9296,-0.9,-0.875,-0.8685,-0.8663,-0.8447,-0.8172,-0.8172,-0.7987,-0.7922,-0.7922,-0.7922,-0.7857,-0.7666,-0.7731,-0.7596,-0.7461,-0.7396,-0.7396,-0.733,-0.7204,-0.7073,-0.6894,-0.6894,-0.6924,-0.6863,-0.6933,-0.7048,-0.6925,-0.6573,-0.6302,-0.5997,-0.5587,-0.5247,-0.5101,-0.502,-0.5007,-0.49,-0.453,-0.4312,-0.4385,-0.4346,-0.4339,-0.4247,-0.4042,-0.3893,-0.3757,-0.3655,-0.342,-0.333,-0.3123,-0.3063,-0.3014,-0.2974,-0.2935,-0.2935,-0.3004,-0.2971,-0.2843,-0.2778,-0.2723,-0.2686,-0.2589,-0.2511,-0.2354,-0.2276,-0.2042,-2.4788,-2.4586,-2.4262,-2.374,-2.3379,-2.4126,-2.297,-2.0698,-1.9604,-1.8941,-1.8559,-1.8337,-1.8212,-1.8076,-1.7852,-1.7579,-1.7373,-1.7166,-1.7107,-1.6908,-1.6908,-1.6908,-1.6908,-1.6908,-1.683,-1.6591,-1.645,-1.6129,-1.573,-1.5164,-1.4744,-1.4303,-1.3917,-1.3614,-1.3399,-1.2951,-1.2476,-1.2065,-1.164,-1.1204,-1.0934,-1.0967,-1.1215,-1.1086,-1.0554,-1.0188,-0.988,-0.961,-0.9375,-0.9157,-0.8954,-0.8859,-0.8727,-0.8398,-0.8072,-0.7877,-0.7802,-0.7727,-0.7797,-0.7731,-0.7731,-0.7731,-0.7666,-0.754,-0.7339,-0.7283,-0.725,-0.7127,-0.7056,-0.6902,-0.6749,-0.6835,-0.6821,-0.6839,-0.6956,-0.7151,-0.7036,-0.6555,-0.6105,-0.5755,-0.527,-0.4756,-0.4683,-0.4566,-0.4566,-0.4515,-0.4295,-0.4164,-0.4254,-0.4239,-0.4166,-0.3989,-0.3879,-0.3656,-0.3578,-0.3453,-0.3303,-0.3217,-0.3084,-0.2992,-0.2919,-0.2894,-0.2874,-0.2762,-0.2725,-0.2595,-0.2476,-0.2365,-0.2251,-0.2208,-0.2201,-0.2119,-0.2041,-0.1885,-0.1492,-2.4161,-2.3589,-2.3496,-2.3038,-2.2553,-2.2873,-2.2038,-2.0207,-1.9246,-1.8714,-1.8482,-1.8279,-1.8076,-1.793,-1.7784,-1.751,-1.7235,-1.7097,-1.6978,-1.6908,-1.6908,-1.6908,-1.6839,-1.683,-1.6621,-1.6305,-1.5901,-1.563,-1.5469,-1.5052,-1.4572,-1.4073,-1.3717,-1.3478,-1.3377,-1.2788,-1.2407,-1.204,-1.1597,-1.1193,-1.0832,-1.079,-1.0776,-1.0756,-1.0343,-0.9921,-0.9794,-0.9465,-0.9216,-0.8975,-0.8817,-0.8622,-0.8373,-0.8112,-0.7912,-0.7854,-0.7659,-0.7596,-0.7596,-0.7596,-0.7526,-0.7466,-0.747,-0.7395,-0.7256,-0.7167,-0.7126,-0.7065,-0.7031,-0.6967,-0.6919,-0.6987,-0.6974,-0.6891,-0.707,-0.7056,-0.6794,-0.6173,-0.5767,-0.5492,-0.4997,-0.4631,-0.4332,-0.4258,-0.4138,-0.4054,-0.4063,-0.4091,-0.4123,-0.4046,-0.3976,-0.382,-0.3628,-0.3365,-0.328,-0.3191,-0.3181,-0.3081,-0.3019,-0.2926,-0.29,-0.2782,-0.2666,-0.2556,-0.2433,-0.222,-0.212,-0.2096,-0.1911,-0.1735,-0.1732,-0.1729,-0.1572,-0.1415,-0.11,-2.3638,-2.2641,-2.2858,-2.2492,-2.1715,-2.1353,-2.0714,-1.9834,-1.8961,-1.8472,-1.8414,-1.8212,-1.8076,-1.794,-1.7725,-1.7432,-1.7166,-1.6968,-1.6908,-1.6908,-1.683,-1.683,-1.676,-1.6612,-1.6403,-1.6088,-1.5687,-1.5215,-1.5146,-1.49,-1.441,-1.405,-1.3549,-1.35,-1.3535,-1.2972,-1.2767,-1.2405,-1.1922,-1.1349,-1.0974,-1.0711,-1.0602,-1.0867,-1.0197,-0.9901,-0.9823,-0.9652,-0.9275,-0.9017,-0.8793,-0.8562,-0.8107,-0.7884,-0.7851,-0.7909,-0.7664,-0.7555,-0.7526,-0.7461,-0.7396,-0.7269,-0.725,-0.7149,-0.7111,-0.7117,-0.7129,-0.7195,-0.7141,-0.7124,-0.6986,-0.7102,-0.7098,-0.6969,-0.698,-0.697,-0.6432,-0.5937,-0.5399,-0.5024,-0.4768,-0.445,-0.411,-0.3982,-0.3933,-0.3944,-0.388,-0.3919,-0.3951,-0.3929,-0.3857,-0.3553,-0.3367,-0.3071,-0.2948,-0.298,-0.2985,-0.3024,-0.2931,-0.2911,-0.2788,-0.2664,-0.2461,-0.2341,-0.2132,-0.2012,-0.1842,-0.1761,-0.1592,-0.1505,-0.1419,-0.1422,-0.1591,-0.1423,-0.11,-2.303,-2.2395,-2.2198,-2.1621,-2.0975,-2.0282,-1.9677,-1.9225,-1.8721,-1.8432,-1.8337,-1.8269,-1.8144,-1.794,-1.7676,-1.7323,-1.7019,-1.6899,-1.6802,-1.6766,-1.6655,-1.6603,-1.6533,-1.6272,-1.6061,-1.585,-1.5579,-1.5228,-1.493,-1.4657,-1.434,-1.4024,-1.3885,-1.392,-1.366,-1.3014,-1.2947,-1.2518,-1.1936,-1.1356,-1.094,-1.0715,-1.0587,-1.0467,-1.0284,-1.0016,-0.9905,-0.9766,-0.9569,-0.9416,-0.9219,-0.9095,-0.8846,-0.846,-0.8136,-0.7855,-0.7653,-0.7526,-0.7484,-0.7367,-0.7263,-0.7238,-0.718,-0.7124,-0.7038,-0.7091,-0.7107,-0.7007,-0.7044,-0.7077,-0.7049,-0.7139,-0.6964,-0.6861,-0.6805,-0.6554,-0.6167,-0.567,-0.512,-0.4748,-0.4462,-0.4231,-0.3906,-0.3774,-0.3654,-0.3673,-0.3695,-0.3734,-0.3712,-0.3696,-0.3678,-0.3448,-0.3265,-0.296,-0.2874,-0.2818,-0.283,-0.2862,-0.2835,-0.2803,-0.2672,-0.2542,-0.2322,-0.212,-0.1924,-0.1753,-0.1677,-0.1518,-0.1355,-0.1355,-0.1354,-0.1524,-0.178,-0.1521,-0.118,-2.239,-2.1999,-2.1632,-2.1073,-2.0453,-2.0053,-1.9526,-1.8931,-1.8402,-1.8267,-1.8259,-1.8134,-1.8008,-1.7735,-1.7539,-1.7123,-1.667,-1.666,-1.6606,-1.6482,-1.6426,-1.6324,-1.6263,-1.6061,-1.5859,-1.5576,-1.5284,-1.5013,-1.4709,-1.4536,-1.4411,-1.4064,-1.375,-1.3492,-1.3422,-1.2729,-1.24,-1.2019,-1.1499,-1.0946,-1.069,-1.0479,-1.0341,-1.0346,-1.0137,-0.9992,-0.9922,-0.9922,-0.9686,-0.9394,-0.9129,-0.8906,-0.8519,-0.8187,-0.7946,-0.781,-0.759,-0.7432,-0.7328,-0.7243,-0.7216,-0.7172,-0.7207,-0.7153,-0.7128,-0.7204,-0.724,-0.7257,-0.7253,-0.7244,-0.7092,-0.7096,-0.6862,-0.6734,-0.654,-0.6166,-0.579,-0.5431,-0.4924,-0.4538,-0.4231,-0.3997,-0.3845,-0.375,-0.3722,-0.3653,-0.3677,-0.3632,-0.3557,-0.3406,-0.3377,-0.3265,-0.3149,-0.2931,-0.2915,-0.2828,-0.2818,-0.2831,-0.2807,-0.277,-0.2637,-0.2505,-0.2208,-0.1948,-0.17,-0.1609,-0.1443,-0.1525,-0.1451,-0.1452,-0.1371,-0.1533,-0.1692,-0.2073,-0.0,-2.1916,-2.1475,-2.1141,-2.0688,-2.0183,-2.0041,-1.9491,-1.8674,-1.82,-1.8075,-1.8124,-1.7998,-1.7735,-1.7461,-1.7364,-1.7058,-1.63,-1.6441,-1.6264,-1.6133,-1.6042,-1.5956,-1.5762,-1.563,-1.5434,-1.5284,-1.4856,-1.4553,-1.4418,-1.4258,-1.4099,-1.3912,-1.3462,-1.3191,-1.2935,-1.2383,-1.1904,-1.149,-1.1031,-1.0692,-1.0437,-1.023,-1.0132,-1.0112,-0.9992,-0.9922,-0.9922,-0.9846,-0.951,-0.9209,-0.8881,-0.8607,-0.8262,-0.8061,-0.7794,-0.7686,-0.7566,-0.7451,-0.7267,-0.7224,-0.718,-0.7186,-0.7233,-0.7227,-0.7327,-0.7419,-0.7476,-0.7435,-0.7367,-0.7302,-0.7176,-0.693,-0.6678,-0.6364,-0.6157,-0.5783,-0.5401,-0.501,-0.4618,-0.4309,-0.3997,-0.3919,-0.3773,-0.3712,-0.3714,-0.3716,-0.3659,-0.3534,-0.3385,-0.3241,-0.3203,-0.3158,-0.3093,-0.2952,-0.2853,-0.2838,-0.2824,-0.279,-0.2767,-0.2728,-0.259,-0.2385,-0.2102,-0.1856,-0.1627,-0.1482,-0.1489,-0.156,-0.1631,-0.147,-0.1385,-0.1286,-0.1515,-0.1976,-0.0,-2.1701,-2.0969,-2.09,-2.0677,-2.0279,-1.9833,-1.9225,-1.8489,-1.8133,-1.8017,-1.7998,-1.7784,-1.7569,-1.7285,-1.7111,-1.6807,-1.6245,-1.6312,-1.5989,-1.579,-1.5635,-1.5367,-1.518,-1.5054,-1.4864,-1.4641,-1.4353,-1.4145,-1.3855,-1.3702,-1.3564,-1.3492,-1.3119,-1.3007,-1.2702,-1.2111,-1.1454,-1.1057,-1.0756,-1.0479,-1.0151,-1.0019,-1.0054,-0.9948,-0.9922,-0.9922,-0.9922,-0.9695,-0.9453,-0.9165,-0.8748,-0.8505,-0.8291,-0.7995,-0.7721,-0.7642,-0.7569,-0.7392,-0.7273,-0.7225,-0.7233,-0.7208,-0.7248,-0.7261,-0.7403,-0.7452,-0.7484,-0.7403,-0.7257,-0.7022,-0.6868,-0.671,-0.6328,-0.5938,-0.5628,-0.5318,-0.4932,-0.4545,-0.4233,-0.3921,-0.3845,-0.3771,-0.3724,-0.3669,-0.3712,-0.3639,-0.3469,-0.342,-0.331,-0.3225,-0.3178,-0.3121,-0.3037,-0.2959,-0.2865,-0.2843,-0.2801,-0.2748,-0.2709,-0.2664,-0.261,-0.2335,-0.2089,-0.2028,-0.1888,-0.1674,-0.1528,-0.1764,-0.1833,-0.1577,-0.1401,-0.1635,-0.1527,-0.1747,-0.1344,-2.1806,-2.1195,-2.0749,-2.02,-1.9575,-1.9365,-1.8772,-1.8075,-1.7957,-1.7949,-1.7842,-1.7706,-1.729,-1.6838,-1.6762,-1.6242,-1.5419,-1.5523,-1.5316,-1.5022,-1.4849,-1.4807,-1.4625,-1.4553,-1.4497,-1.4281,-1.3992,-1.3783,-1.3645,-1.3193,-1.2753,-1.2673,-1.2599,-1.2419,-1.2055,-1.1588,-1.0937,-1.0646,-1.0364,-1.0045,-1.016,-0.9918,-0.992,-0.9911,-0.9922,-0.9846,-0.9695,-0.9544,-0.9241,-0.8912,-0.8614,-0.8339,-0.8223,-0.7921,-0.7744,-0.7668,-0.7589,-0.7438,-0.7342,-0.7302,-0.7241,-0.7347,-0.7425,-0.7411,-0.748,-0.7407,-0.7253,-0.7099,-0.6945,-0.6714,-0.6325,-0.6096,-0.5789,-0.5395,-0.5085,-0.4776,-0.4543,-0.4233,-0.3999,-0.3841,-0.3777,-0.3708,-0.3671,-0.3551,-0.3598,-0.3643,-0.3475,-0.3285,-0.3143,-0.3083,-0.3109,-0.3028,-0.2938,-0.285,-0.2846,-0.2811,-0.2768,-0.2713,-0.2654,-0.2619,-0.2585,-0.2431,-0.2189,-0.221,-0.224,-0.203,-0.1966,-0.2134,-0.2124,-0.1941,-0.1933,-0.2177,-0.197,-0.1596,-0.1191,-2.1768,-2.1128,-2.0557,-1.9921,-1.9254,-1.8992,-1.8475,-1.7893,-1.7967,-1.7736,-1.7465,-1.7273,-1.6796,-1.6318,-1.6242,-1.578,-1.5112,-1.4997,-1.4673,-1.4495,-1.4364,-1.4322,-1.4289,-1.4145,-1.4072,-1.3848,-1.363,-1.3419,-1.3046,-1.2606,-1.2157,-1.1855,-1.1706,-1.1571,-1.1378,-1.0813,-1.0392,-1.0132,-1.0092,-0.9846,-0.9999,-0.9903,-0.9887,-0.9906,-0.9922,-0.9771,-0.9549,-0.9316,-0.9008,-0.8675,-0.8339,-0.8121,-0.7982,-0.7838,-0.7681,-0.7621,-0.7561,-0.748,-0.7443,-0.7403,-0.7358,-0.7423,-0.7452,-0.7472,-0.7407,-0.7253,-0.7022,-0.6868,-0.656,-0.6251,-0.5783,-0.5556,-0.5243,-0.4851,-0.454,-0.4309,-0.4231,-0.3997,-0.3919,-0.3843,-0.3698,-0.3638,-0.3489,-0.3374,-0.3355,-0.3401,-0.3205,-0.306,-0.2963,-0.2898,-0.2918,-0.2917,-0.2904,-0.2818,-0.2816,-0.2751,-0.2692,-0.2674,-0.2624,-0.2604,-0.2503,-0.2354,-0.2389,-0.2431,-0.2462,-0.2403,-0.2403,-0.2476,-0.2394,-0.2399,-0.2279,-0.2062,-0.187,-0.1583,-0.1586,-2.1381,-2.0592,-2.0231,-1.989,-1.9367,-1.8741,-1.8317,-1.8111,-1.7929,-1.7494,-1.6836,-1.6384,-1.6001,-1.5717,-1.5716,-1.5274,-1.483,-1.4763,-1.4529,-1.412,-1.4055,-1.3977,-1.3855,-1.3783,-1.3637,-1.3266,-1.3039,-1.2746,-1.2378,-1.2003,-1.1558,-1.1186,-1.0962,-1.0743,-1.0818,-1.0588,-1.017,-0.9799,-1.001,-0.9903,-0.9797,-0.9803,-0.9879,-0.9906,-0.9771,-0.9625,-0.9256,-0.9003,-0.8685,-0.833,-0.7886,-0.7761,-0.7778,-0.7438,-0.737,-0.7472,-0.7484,-0.7484,-0.748,-0.7472,-0.7472,-0.7476,-0.748,-0.733,-0.718,-0.7022,-0.671,-0.6405,-0.6093,-0.5786,-0.5476,-0.509,-0.4698,-0.4384,-0.4073,-0.3841,-0.3841,-0.3763,-0.3608,-0.3642,-0.3555,-0.3408,-0.3273,-0.3194,-0.3178,-0.3057,-0.3015,-0.2928,-0.2811,-0.2816,-0.2838,-0.2826,-0.2813,-0.2809,-0.2792,-0.2679,-0.2617,-0.2608,-0.2518,-0.2504,-0.2514,-0.2456,-0.2502,-0.2648,-0.2658,-0.2483,-0.2565,-0.2729,-0.2459,-0.2264,-0.1877,-0.1677,-0.158,-0.1497,-0.1422,-2.1144,-2.0211,-1.9975,-1.9403,-1.8627,-1.8506,-1.814,-1.7701,-1.7164,-1.6672,-1.6151,-1.5845,-1.5541,-1.527,-1.4959,-1.472,-1.4266,-1.4182,-1.3871,-1.372,-1.3738,-1.3535,-1.3419,-1.3346,-1.3193,-1.282,-1.2592,-1.2298,-1.1929,-1.1484,-1.1111,-1.0669,-1.0363,-1.0137,-1.0143,-1.0143,-0.9932,-0.9825,-0.9948,-0.9948,-0.982,-0.9879,-0.9841,-0.9836,-0.9604,-0.9331,-0.8926,-0.8628,-0.8277,-0.7912,-0.7543,-0.7571,-0.7561,-0.7311,-0.7271,-0.733,-0.7334,-0.7334,-0.7334,-0.7403,-0.748,-0.7403,-0.7249,-0.7096,-0.6945,-0.6483,-0.6173,-0.5786,-0.5398,-0.501,-0.4545,-0.4309,-0.3997,-0.3759,-0.3526,-0.345,-0.3372,-0.3376,-0.3306,-0.3282,-0.3299,-0.3282,-0.3118,-0.3005,-0.2979,-0.2824,-0.2679,-0.286,-0.2838,-0.2845,-0.2861,-0.2841,-0.2826,-0.2816,-0.2773,-0.2331,-0.2226,-0.2329,-0.2296,-0.2257,-0.2275,-0.2311,-0.2586,-0.2631,-0.2636,-0.264,-0.262,-0.2599,-0.2235,-0.1954,-0.1693,-0.1526,-0.1448,-0.1354,-0.118,-2.0626,-1.9935,-1.9415,-1.8895,-1.8289,-1.8228,-1.7908,-1.7249,-1.6459,-1.5911,-1.5622,-1.5349,-1.5078,-1.478,-1.4413,-1.4234,-1.387,-1.3742,-1.3564,-1.3426,-1.3506,-1.328,-1.3119,-1.29,-1.2673,-1.2378,-1.2077,-1.1781,-1.1484,-1.1111,-1.0669,-1.0293,-1.0067,-0.9992,-0.9922,-0.9916,-0.9916,-0.9895,-0.9916,-0.9836,-0.9825,-0.9755,-0.9718,-0.9541,-0.9301,-0.8995,-0.8594,-0.8248,-0.7893,-0.7601,-0.7479,-0.7484,-0.7411,-0.7257,-0.7184,-0.7103,-0.7103,-0.7103,-0.7099,-0.7099,-0.7099,-0.7099,-0.6945,-0.6788,-0.6556,-0.6015,-0.555,-0.5165,-0.4701,-0.4389,-0.4077,-0.3765,-0.3528,-0.3292,-0.3214,-0.3137,-0.3061,-0.3062,-0.3092,-0.3144,-0.3038,-0.2944,-0.2934,-0.29,-0.2769,-0.2597,-0.2334,-0.2506,-0.2677,-0.2506,-0.2497,-0.2555,-0.2355,-0.2073,-0.1958,-0.1742,-0.1742,-0.1947,-0.1921,-0.1883,-0.189,-0.1921,-0.2265,-0.2596,-0.2575,-0.2562,-0.2566,-0.2468,-0.2298,-0.2053,-0.1808,-0.164,-0.1395,-0.1134,-0.0797,-1.9734,-1.9662,-1.8664,-1.8334,-1.8372,-1.788,-1.7474,-1.6965,-1.5873,-1.542,-1.534,-1.4669,-1.455,-1.4493,-1.404,-1.386,-1.3984,-1.3688,-1.3411,-1.3273,-1.3368,-1.306,-1.2753,-1.2452,-1.2298,-1.2003,-1.1632,-1.1335,-1.1037,-1.0663,-1.0293,-1.0045,-0.9895,-0.9884,-0.9879,-0.99,-0.9906,-0.9922,-0.9841,-0.9765,-0.9695,-0.9544,-0.9386,-0.9195,-0.8905,-0.8646,-0.8309,-0.7974,-0.7816,-0.76,-0.7468,-0.733,-0.7261,-0.7184,-0.7026,-0.6945,-0.6868,-0.6868,-0.6868,-0.6714,-0.656,-0.656,-0.6633,-0.6402,-0.6015,-0.5473,-0.5087,-0.4621,-0.4233,-0.3999,-0.3765,-0.3452,-0.3139,-0.2981,-0.2902,-0.2824,-0.2824,-0.2841,-0.2951,-0.2916,-0.2719,-0.2616,-0.2522,-0.2487,-0.2515,-0.2424,-0.215,-0.1685,-0.1774,-0.1609,-0.1683,-0.2072,-0.1707,-0.118,-0.0999,-0.1082,-0.126,-0.146,-0.1369,-0.135,-0.1354,-0.1438,-0.1697,-0.1933,-0.2351,-0.2576,-0.255,-0.2562,-0.2467,-0.2226,-0.1829,-0.125,-0.0916,-0.0578,-0.0245,-1.9329,-1.8344,-1.853,-1.8077,-1.7209,-1.645,-1.6224,-1.6326,-1.569,-1.5269,-1.5022,-1.4551,-1.4487,-1.4765,-1.4247,-1.3972,-1.3777,-1.3564,-1.3266,-1.3127,-1.306,-1.2914,-1.2606,-1.2144,-1.1996,-1.1781,-1.1409,-1.0962,-1.0738,-1.0363,-0.9947,-0.9707,-0.983,-0.9809,-0.9809,-0.9846,-0.982,-0.9771,-0.969,-0.9539,-0.9468,-0.9311,-0.908,-0.892,-0.8566,-0.8214,-0.7979,-0.7761,-0.7567,-0.7342,-0.7283,-0.7249,-0.7184,-0.6949,-0.6718,-0.6718,-0.6641,-0.6641,-0.6486,-0.6563,-0.6328,-0.5864,-0.5783,-0.5705,-0.5395,-0.5007,-0.4543,-0.4155,-0.3765,-0.353,-0.3294,-0.2981,-0.2746,-0.2668,-0.2668,-0.2668,-0.2592,-0.2531,-0.2564,-0.2639,-0.2515,-0.2138,-0.2025,-0.2225,-0.2246,-0.2155,-0.1877,-0.1327,-0.0882,-0.0712,-0.0974,-0.138,-0.0941,-0.0425,-0.0512,-0.0599,-0.0775,-0.0955,-0.0779,-0.0865,-0.1042,-0.1127,-0.1121,-0.1354,-0.1726,-0.2135,-0.2499,-0.2419,-0.2256,-0.2174,-0.1767,-0.1097,-0.0506,-0.0168,0.0167,-1.8697,-1.7968,-1.7916,-1.7313,-1.6427,-1.5647,-1.5448,-1.5681,-1.5368,-1.5022,-1.4747,-1.451,-1.4527,-1.4594,-1.4117,-1.387,-1.3897,-1.3419,-1.3046,-1.2826,-1.2753,-1.2452,-1.2077,-1.1687,-1.1471,-1.1248,-1.0962,-1.0519,-1.0421,-1.0112,-0.9707,-0.976,-0.982,-0.976,-0.9702,-0.9712,-0.9679,-0.9539,-0.9387,-0.9236,-0.9079,-0.8922,-0.8737,-0.8543,-0.8129,-0.7912,-0.7703,-0.7517,-0.7342,-0.7226,-0.7194,-0.7042,-0.6919,-0.6641,-0.6409,-0.6331,-0.6177,-0.6099,-0.5944,-0.5786,-0.5553,-0.524,-0.501,-0.4932,-0.4776,-0.4465,-0.4075,-0.3763,-0.3374,-0.3061,-0.2824,-0.2588,-0.251,-0.2431,-0.2431,-0.2433,-0.2287,-0.2142,-0.2198,-0.2435,-0.2144,-0.1659,-0.1595,-0.0,-0.17,-0.1245,-0.0888,-0.0532,-0.0088,0.0266,-0.0265,-0.0867,-0.026,0.0346,0.0174,0.0087,0.0087,-0.0,-0.0,-0.0088,-0.0532,-0.0,-0.0,-0.0,-0.1088,-0.1514,-0.1863,-0.2044,-0.1964,-0.1796,-0.1461,-0.078,-0.0173,0.0172,0.0516,-1.7885,-1.7972,-1.6883,-1.6365,-1.6085,-1.5359,-1.4967,-1.4898,-1.4755,-1.4693,-1.4591,-1.4564,-1.4589,-1.4543,-1.4042,-1.3805,-1.3715,-1.3339,-1.2826,-1.2526,-1.2378,-1.1983,-1.1409,-1.092,-1.0896,-1.0628,-1.0432,-1.0212,-1.0082,-0.9829,-0.9707,-0.9857,-0.9707,-0.9631,-0.9622,-0.9557,-0.9458,-0.9236,-0.8922,-0.8689,-0.8623,-0.8452,-0.8174,-0.7922,-0.7752,-0.7647,-0.7522,-0.7356,-0.7171,-0.7143,-0.7007,-0.676,-0.6513,-0.6331,-0.6099,-0.5867,-0.5709,-0.5476,-0.5243,-0.5087,-0.4854,-0.4621,-0.4465,-0.4387,-0.4311,-0.4108,-0.3803,-0.3467,-0.3153,-0.2835,-0.2598,-0.2512,-0.2431,-0.2353,-0.2353,-0.2209,-0.1911,-0.1618,-0.1334,-0.1542,-0.157,-0.0,-0.0,-0.0,-0.0,-0.0,-0.0,-0.0,0.0443,0.0799,0.0529,-0.0262,0.0263,0.0878,0.0966,0.0879,0.1051,0.1055,0.0797,0.0355,-0.0178,-0.0,-0.0,-0.0,-0.0,-0.0,-0.0947,-0.1123,-0.1305,-0.1233,-0.0886,-0.0446,0.0089,0.0527,0.0879,-1.6918,-1.6345,-1.5688,-1.5704,-1.6004,-1.4705,-1.3865,-1.3535,-1.3939,-1.4393,-1.4881,-1.4562,-1.4409,-1.4355,-1.4095,-1.3837,-1.3571,-1.3178,-1.2746,-1.2305,-1.1929,-1.1556,-1.0918,-1.0421,-1.0381,-1.0341,-1.0239,-0.9938,-0.9905,-0.9753,-0.9497,-0.9448,-0.9459,-0.9515,-0.9327,-0.9293,-0.9231,-0.8856,-0.847,-0.8309,-0.8322,-0.8178,-0.7842,-0.7732,-0.7702,-0.7548,-0.7399,-0.7259,-0.721,-0.7161,-0.6842,-0.6458,-0.6093,-0.5867,-0.5634,-0.5398,-0.5165,-0.4854,-0.4696,-0.4462,-0.4384,-0.4311,-0.4155,-0.4157,-0.4021,-0.3754,-0.3527,-0.3261,-0.3015,-0.2774,-0.2608,-0.252,-0.2433,-0.2354,-0.2277,-0.1906,-0.1529,-0.1078,-0.0598,-0.0,-0.0,-0.0,-0.0,-0.0,-0.0,-0.0,-0.0,-0.0,-0.0,0.0974,0.1152,0.0705,0.0888,0.1334,0.1421,0.133,0.1238,0.1329,0.1159,0.0714,0.0178,-0.0,-0.0,-0.0,-0.0,-0.0,-0.0174,-0.0262,-0.0352,-0.0447,-0.009,0.0359,0.0628,0.1067,0.1338,-1.6457,-1.586,-1.5157,-1.4976,-1.498,-1.4013,-1.3294,-1.2972,-1.332,-1.3827,-1.4404,-1.4304,-1.4148,-1.4042,-1.3912,-1.3727,-1.3345,-1.2931,-1.2512,-1.2003,-1.1552,-1.1045,-1.0564,-1.0107,-1.0013,-1.0036,-0.9796,-0.9604,-0.9723,-0.9561,-0.9357,-0.931,-0.9447,-0.9343,-0.9073,-0.912,-0.9003,-0.8551,-0.8089,-0.794,-0.8021,-0.7791,-0.7642,-0.7638,-0.7561,-0.7484,-0.7298,-0.721,-0.7046,-0.6769,-0.6402,-0.6009,-0.5705,-0.5473,-0.5243,-0.501,-0.4701,-0.4309,-0.4157,-0.4084,-0.4008,-0.3936,-0.3927,-0.3929,-0.3936,-0.3667,-0.3634,-0.3297,-0.3268,-0.3028,-0.2822,-0.2804,-0.2456,-0.2288,-0.1976,-0.1592,-0.1064,-0.0423,-0.0,-0.0,-0.0,-0.0,-0.0,-0.0,-0.0,-0.0,-0.0,-0.0,-0.0,0.1063,0.1241,0.133,0.1339,0.1344,0.143,0.1251,0.1072,0.1254,0.1256,0.0806,-0.0,-0.0,-0.0,-0.0,-0.0,-0.0,0.0616,0.044,0.0354,0.0268,0.0718,0.1256,0.1436,0.1436,0.1525,-1.6031,-1.5632,-1.4827,-1.4276,-1.3891,-1.3407,-1.2932,-1.2609,-1.283,-1.3099,-1.3302,-1.3648,-1.3444,-1.3378,-1.3327,-1.3294,-1.3077,-1.2545,-1.2118,-1.1781,-1.136,-1.081,-1.0273,-0.9932,-0.9813,-0.9661,-0.9387,-0.9435,-0.9458,-0.9272,-0.9216,-0.9452,-0.9319,-0.9153,-0.908,-0.8851,-0.8551,-0.8255,-0.7949,-0.7718,-0.7638,-0.748,-0.7484,-0.7484,-0.7484,-0.7334,-0.7206,-0.7015,-0.6764,-0.6364,-0.5892,-0.5578,-0.5288,-0.5067,-0.4833,-0.4604,-0.4229,-0.3989,-0.3824,-0.3671,-0.3584,-0.3572,-0.3638,-0.3716,-0.3732,-0.3519,-0.3404,-0.3527,-0.3416,-0.3248,-0.3118,-0.2918,-0.2564,-0.2072,-0.1757,-0.1286,-0.0583,-0.0,-0.0,-0.0,-0.0,-0.0,-0.0,-0.0,-0.0,-0.0,0.053,0.0802,0.0986,0.1161,0.1338,0.1338,0.1163,0.1256,0.1166,-0.0,-0.0,0.0808,0.0808,0.0539,-0.0,-0.0,-0.0,-0.0,-0.0,0.0973,0.1063,0.0975,0.0892,0.0896,0.1076,0.1436,0.1436,0.1436,0.1525,-1.4768,-1.4344,-1.3891,-1.3649,-1.3493,-1.2989,-1.256,-1.2251,-1.2259,-1.2203,-1.2172,-1.2282,-1.2417,-1.2668,-1.2546,-1.2622,-1.2707,-1.2083,-1.1707,-1.1459,-1.1135,-1.049,-0.9961,-0.9766,-0.9659,-0.9369,-0.9171,-0.9228,-0.9114,-0.8939,-0.8924,-0.9059,-0.8921,-0.8744,-0.8556,-0.843,-0.8255,-0.803,-0.7876,-0.7646,-0.7565,-0.7484,-0.7407,-0.7334,-0.7261,-0.7103,-0.7007,-0.6762,-0.6458,-0.5964,-0.5486,-0.5086,-0.488,-0.4691,-0.4553,-0.4216,-0.3832,-0.3609,-0.3446,-0.3362,-0.3277,-0.3282,-0.3433,-0.3493,-0.3338,-0.3017,-0.313,-0.3647,-0.3514,-0.3338,-0.3136,-0.3027,-0.2756,-0.2112,-0.1629,-0.0991,-0.0339,-0.0,-0.0,-0.0,-0.0,-0.0,-0.0,-0.0,-0.0,-0.0,-0.0,0.0993,0.1166,0.1346,0.1346,0.1256,0.1166,0.0628,-0.0,-0.0,-0.0,-0.0,0.0359,0.0359,0.0539,0.0897,0.0986,0.09,0.0804,0.0973,0.1064,0.1256,0.125,0.1164,0.1255,0.1436,0.1436,0.1436,0.1436]},{"header":{"parameterUnit":"m.s-1","parameterCategory":1,"la1":31.0,"la2":29.5877,"lo1":-88.7671,"lo2":-86.6584,"dy":0.0162,"dx":0.0185,"nx":115,"ny":88,"refTime":"2023-07-24T18:00:00:Z","depth":0,"parameterNumber":3,"parameterNumberName":"V-component_of_WINDS"},"data":[0.0,0.0,0.0,0.0,0.0,0.0,0.0,0.0,0.0,0.0,0.0,0.0,0.0,0.0,0.0,0.0,0.0,0.0,0.0,0.0,0.0,0.0,0.0,0.0,0.0,0.0,0.0,0.0,0.0,0.0,0.0,0.0,0.0,0.0,0.0,0.0,0.0,0.0,0.0,0.0,0.0,0.0,0.0,0.0,0.0,0.0,0.0,0.0,0.0,0.0,0.0,0.0,0.0,0.0,0.0,0.0,0.0,0.0,0.0,0.0,0.0,0.0,0.0,0.0,0.0,0.0,0.0,0.0,0.0,0.0,0.0,0.0,0.0,0.0,0.0,0.0,0.0,0.0,0.0,0.0,0.0,0.0,0.0,0.0,0.0,0.0,0.0,0.0,0.0,0.0,0.0,0.0,0.0,0.0,0.0,0.0,0.0,0.0,0.0,0.0,0.0,0.0,0.0,0.0,0.0,0.0,0.0,0.0,0.0,0.0,0.0,0.0,0.0,0.0,0.0,0.0,0.0,0.0,0.0,0.0,0.0,0.0,0.0,0.0,0.0,0.0,0.0,0.0,0.0,0.0,0.0,0.0,0.0,0.0,0.0,0.0,0.0,0.0,0.0,0.0,0.0,0.0,0.0,0.0,0.0,0.0,0.0,0.0,0.0,0.0,0.0,0.0,0.0,0.0,0.0,0.0,0.0,0.0,0.0,0.0,0.0,0.0,0.0,0.0,0.0,0.0,0.0,0.0,0.0,0.0,0.0,0.0,0.0,0.0,0.0,0.0,0.0,0.0,0.0,0.0,0.0,0.0,0.0,0.0,0.0,0.0,0.0,0.0,0.0,0.0,0.0,0.0,0.0,0.0,0.0,0.0,0.0,0.0,0.0,0.0,0.0,0.0,0.0,0.0,0.0,0.0,0.0,0.0,0.0,0.0,0.0,0.0,0.0,0.0,0.0,0.0,0.0,0.0,0.0,0.0,0.0,0.0,0.0,0.0,0.0,0.0,0.0,0.0,0.0,0.0,0.0,0.0,0.0,0.0,0.0,0.0,0.0,0.0,0.0,0.0,0.0,0.0,0.0,0.0,0.0,0.0,0.0,0.0,0.0,0.0,0.0,0.0,0.0,0.0,0.0,0.0,0.0,0.0,0.0,0.0,0.0,0.0,0.0,0.0,0.0,0.0,0.0,0.0,0.0,0.0,0.0,0.0,0.0,0.0,0.0,0.0,0.0,0.0,0.0,0.0,0.0,0.0,0.0,0.0,0.0,0.0,0.0,0.0,0.0,0.0,0.0,0.0,0.0,0.0,0.0,0.0,0.0,0.0,0.0,0.0,0.0,0.0,0.0,0.0,0.0,0.0,0.0,0.0,0.0,0.0,0.0,0.0,0.0,0.0,0.0,0.0,0.0,0.0,0.0,0.0,0.0,0.0,0.0,0.0,0.0,0.0,0.0,0.0,0.0,0.0,0.0,0.0,0.0,0.0,0.0,0.0,0.0,0.0,0.0,0.0,0.0,0.0,0.0,0.0,0.0,0.0,0.0,0.0,0.0,0.0,0.0,0.0,0.0,0.0,0.0,0.0,0.0,0.0,0.0,0.0,0.0,0.0,0.0,0.0,0.0,0.0,0.0,0.0,0.0,0.0,0.0,0.0,0.0,0.0,0.0,0.0,0.0,0.0,0.0,0.0,0.0,0.0,0.0,0.0,0.0,0.0,0.0,0.0,0.0,0.0,0.0,0.0,0.0,0.0,0.0,0.0,0.0,0.0,0.0,0.0,0.0,0.0,0.0,0.0,0.0,0.0,0.0,0.0,0.0,0.0,0.0,0.0,0.0,0.0,0.0,0.0,0.0,0.0,0.0,0.0,0.0,0.0,0.0,0.0,0.0,0.0,0.0,0.0,0.0,0.0,0.0,0.0,0.0,0.0,0.0,0.0,0.0,0.0,0.0,0.0,0.0,0.0,0.0,0.0,0.0,0.0,0.0,0.0,0.0,0.0,0.0,0.0,0.0,0.0,0.0,0.0,0.0,0.0,0.0,0.0,0.0,0.0,0.0,0.0,0.0,0.0,0.0,0.0,0.0,0.0,0.0,0.0,0.0,0.0,0.0,0.0,0.0,0.0,0.0,0.0,0.0,0.0,0.0,0.0,0.0,0.0,0.0,0.0,0.0,0.0,0.0,0.0,0.0,0.0,0.0,0.0,0.0,0.0,0.0,0.0,0.0,0.0,0.0,0.0,0.0,0.0,0.0,0.0,0.0,0.0,0.0,0.0,0.0,0.0,0.0,0.0,0.0,0.0,0.0,0.0,0.0,0.0,0.0,0.0,0.0,0.0,0.0,0.0,0.0,0.0,0.0,0.0,0.0,0.0,0.0,0.0,0.0,0.0,0.0,0.0,0.0,0.0,0.0,0.0,0.0,0.0,0.0,0.0,0.0,0.0,0.0,0.0,0.0,0.0,0.0,0.0,0.0,0.0,0.0,0.0,0.0,0.0,0.0,0.0,0.0,0.0,0.0,0.0,0.0,0.0,0.0,0.0,0.0,0.0,0.0,0.0,0.0,0.0,0.0,0.0,0.0,0.0,0.0,0.0,0.0,0.0,0.0,0.0,0.0,0.0,0.0,0.0,0.0,0.0,0.0,0.0,0.0,0.0,0.0,0.0,0.0,0.0,0.0,0.0,0.0,0.0,0.0,0.0,0.0,0.0,0.0,0.0,0.0,0.0,0.0,0.0,0.0,0.0,0.0,0.0,0.0,0.0,0.0,0.0,0.0,0.0,0.0,0.0,0.0,0.0,0.0,0.0,0.0,0.0,0.0,0.0,0.0,0.0,0.0,0.0,0.0,0.0,0.0,0.0,0.0,0.0,0.0,0.0,0.0,0.0,0.0,0.0,0.0,0.0,0.0,0.0,0.0,0.0,0.0,0.0,0.0,0.0,0.0,0.0,0.0,0.0,0.0,0.0,0.0,0.0,0.0,0.0,0.0,0.0,0.0,0.0,0.0,0.0,0.0,0.0,0.0,0.0,0.0,0.0,0.0,0.0,0.0,0.0,0.0,0.0,0.0,0.0,0.0,0.0,0.0,0.0,0.0,0.0,0.0,0.0,0.0,0.0,0.0,0.0,0.0,0.0,0.0,0.0,0.0,0.0,0.0,0.0,0.0,0.0,0.0,0.0,0.0,0.0,0.0,0.0,0.0,0.0,0.0,0.0,0.0,0.0,0.0,0.0,0.0,0.0,0.0,0.0,0.0,0.0,0.0,0.0,0.0,0.0,0.0,0.0,0.0,0.0,0.0,0.0,0.0,0.0,0.0,0.0,0.0,0.0,0.0,0.0,0.0,0.0,0.0,0.0,0.0,0.0,0.0,0.0,0.0,0.0,0.0,0.0,0.0,0.0,0.0,0.0,0.0,0.0,0.0,0.0,0.0,0.0,0.0,0.0,0.0,0.0,0.0,0.0,0.0,0.0,0.0,0.0,0.0,0.0,0.0,0.0,0.0,0.0,0.0,0.0,0.0,0.0,0.0,0.0,0.0,0.0,0.0,0.0,0.0,0.0,0.0,0.0,0.0,0.0,0.0,0.0,0.0,0.0,0.0,0.0,0.0,0.0,0.0,0.0,0.0,0.0,0.0,0.0,0.0,0.0,0.0,0.0,0.0,0.0,0.0,0.0,0.0,0.0,0.0,0.0,0.0,0.0,0.0,0.0,0.0,0.0,0.0,0.0,0.0,0.0,0.0,0.0,0.0,0.0,0.0,0.0,0.0,0.0,0.0,0.0,0.0,0.0,0.0,0.0,0.0,0.0,0.0,0.0,0.0,0.0,0.0,0.0,0.0,0.0,0.0,0.0,0.0,0.0,0.0,0.0,0.0,0.0,0.0,0.0,0.0,0.0,0.0,0.0,0.0,0.0,0.0,0.0,0.0,0.0,0.0,0.0,0.0,0.0,0.0,0.0,0.0,0.0,0.0,0.0,0.0,0.0,0.0,0.0,0.0,0.0,0.0,0.0,0.0,0.0,0.0,0.0,0.0,0.0,0.0,0.0,0.0,0.0,0.0,0.0,0.0,0.0,0.0,0.0,0.0,0.0,0.0,0.0,0.0,0.0,0.0,0.0,0.0,0.0,0.0,0.0,0.0,0.0,0.0,0.0,0.0,0.0,0.0,0.0,0.0,0.0,0.0,0.0,0.0,0.0,0.0,0.0,0.0,0.0,0.0,0.0,0.0,0.0,0.0,0.0,0.0,0.0,0.0,0.0,0.0,0.0,0.0,0.0,0.0,0.0,-1.203,0.0,0.0,0.0,0.0,0.0,0.0,0.0,0.0,0.0,0.0,0.0,0.0,0.0,0.0,0.0,0.0,0.0,0.0,0.0,0.0,0.0,0.0,0.0,0.0,0.0,0.0,0.0,0.0,0.0,0.0,0.0,0.0,0.0,0.0,0.0,0.0,0.0,0.0,0.0,0.0,0.0,0.0,0.0,0.0,0.0,0.0,0.0,0.0,0.0,0.0,0.0,0.0,0.0,0.0,0.0,0.0,0.0,0.0,0.0,0.0,0.0,0.0,0.0,0.0,0.0,0.0,0.0,0.0,0.0,0.0,0.0,0.0,0.0,0.0,0.0,0.0,0.0,0.0,0.0,0.0,0.0,0.0,0.0,0.0,0.0,0.0,0.0,0.0,0.0,0.0,0.0,0.0,0.0,0.0,0.0,0.0,0.0,0.0,0.0,0.0,0.0,0.0,0.0,0.0,0.0,0.0,0.0,0.0,0.0,0.0,-1.3361,-1.3224,-1.2789,-1.251,-1.2412,0.0,0.0,0.0,0.0,0.0,0.0,0.0,0.0,0.0,0.0,0.0,0.0,0.0,0.0,0.0,0.0,0.0,0.0,0.0,0.0,0.0,0.0,0.0,0.0,0.0,0.0,0.0,0.0,0.0,0.0,0.0,0.0,0.0,0.0,0.0,0.0,0.0,0.0,0.0,0.0,0.0,0.0,0.0,0.0,0.0,0.0,0.0,0.0,0.0,0.0,0.0,0.0,0.0,0.0,0.0,0.0,0.0,0.0,0.0,0.0,0.0,0.0,0.0,0.0,0.0,0.0,0.0,0.0,0.0,0.0,0.0,0.0,0.0,0.0,0.0,0.0,0.0,0.0,0.0,0.0,0.0,0.0,0.0,0.0,0.0,0.0,0.0,0.0,0.0,0.0,0.0,0.0,0.0,0.0,0.0,0.0,0.0,0.0,0.0,0.0,0.0,0.0,0.0,0.0,0.0,0.0,0.0,0.0,0.0,0.0,0.0,0.0,-1.3586,-1.324,-1.3181,0.0,0.0,0.0,0.0,0.0,0.0,0.0,0.0,0.0,0.0,0.0,0.0,0.0,0.0,0.0,0.0,0.0,0.0,0.0,0.0,0.0,0.0,0.0,0.0,0.0,0.0,0.0,0.0,0.0,0.0,0.0,0.0,0.0,0.0,0.0,0.0,0.0,0.0,0.0,0.0,0.0,0.0,0.0,0.0,0.0,0.0,0.0,0.0,0.0,0.0,0.0,0.0,0.0,0.0,0.0,0.0,0.0,0.0,0.0,0.0,0.0,0.0,0.0,0.0,0.0,0.0,0.0,0.0,0.0,0.0,0.0,0.0,0.0,0.0,0.0,0.0,0.0,0.0,0.0,0.0,0.0,0.0,0.0,0.0,0.0,0.0,0.0,0.0,0.0,0.0,0.0,0.0,0.0,0.0,0.0,0.0,0.0,0.0,0.0,0.0,0.0,0.0,0.0,0.0,0.0,0.0,0.0,0.0,0.0,0.0,-1.522,-1.6187,-1.5779,0.0,-1.5211,0.0,0.0,0.0,0.0,0.0,0.0,0.0,0.0,0.0,0.0,0.0,0.0,0.0,0.0,0.0,0.0,0.0,0.0,0.0,0.0,0.0,0.0,0.0,0.0,0.0,0.0,0.0,0.0,0.0,0.0,0.0,0.0,0.0,0.0,0.0,0.0,0.0,0.0,0.0,0.0,0.0,0.0,0.0,0.0,0.0,0.0,0.0,0.0,0.0,0.0,0.0,0.0,0.0,0.0,0.0,0.0,0.0,0.0,0.0,0.0,0.0,0.0,0.0,0.0,0.0,0.0,0.0,0.0,0.0,0.0,0.0,0.0,0.0,0.0,0.0,0.0,0.0,0.0,0.0,0.0,0.0,0.0,0.0,0.0,0.0,0.0,0.0,0.0,0.0,0.0,0.0,0.0,0.0,0.0,0.0,0.0,0.0,0.0,0.0,0.0,0.0,0.0,0.0,0.0,0.0,0.0,0.0,0.0,0.0,0.0,-1.6276,-1.6924,-1.6296,-1.5318,0.0,0.0,0.0,0.0,0.0,0.0,0.0,0.0,0.0,0.0,0.0,0.0,0.0,0.0,0.0,0.0,0.0,0.0,0.0,0.0,0.0,0.0,0.0,0.0,0.0,0.0,0.0,0.0,0.0,0.0,0.0,0.0,0.0,0.0,0.0,0.0,0.0,0.0,0.0,0.0,0.0,0.0,0.0,0.0,0.0,0.0,0.0,0.0,0.0,0.0,0.0,0.0,0.0,0.0,0.0,0.0,0.0,0.0,0.0,0.0,0.0,0.0,0.0,0.0,0.0,0.0,0.0,0.0,0.0,0.0,0.0,0.0,0.0,0.0,0.0,0.0,0.0,0.0,0.0,0.0,0.0,0.0,0.0,0.0,0.0,0.0,0.0,0.0,0.0,0.0,0.0,0.0,0.0,0.0,0.0,0.0,0.0,0.0,0.0,0.0,0.0,0.0,0.0,0.0,0.0,0.0,0.0,0.0,0.0,0.0,-1.695,-1.7046,-1.7228,-1.6347,-1.5176,-1.3899,0.0,0.0,0.0,0.0,0.0,0.0,0.0,0.0,0.0,0.0,0.0,0.0,0.0,0.0,0.0,0.0,0.0,0.0,0.0,0.0,0.0,0.0,0.0,0.0,0.0,0.0,0.0,0.0,0.0,0.0,0.0,0.0,0.0,0.0,0.0,0.0,0.0,0.0,0.0,0.0,0.0,0.0,0.0,0.0,0.0,0.0,0.0,0.0,0.0,0.0,0.0,0.0,0.0,0.0,0.0,0.0,0.0,0.0,0.0,0.0,0.0,0.0,0.0,0.0,0.0,0.0,0.0,0.0,0.0,0.0,0.0,0.0,0.0,0.0,0.0,0.0,0.0,0.0,0.0,0.0,0.0,0.0,0.0,0.0,0.0,0.0,0.0,0.0,0.0,0.0,0.0,0.0,0.0,0.0,0.0,0.0,0.0,0.0,0.0,0.0,0.0,0.0,0.0,0.0,0.0,0.0,0.0,0.0,-1.8401,-1.7635,-1.7273,-1.7445,-1.6153,-1.5727,0.0,0.0,0.0,0.0,0.0,0.0,0.0,0.0,0.0,0.0,0.0,0.0,0.0,0.0,0.0,0.0,0.0,0.0,0.0,0.0,0.0,0.0,0.0,0.0,0.0,0.0,0.0,0.0,0.0,0.0,0.0,0.0,0.0,0.0,0.0,0.0,0.0,0.0,0.0,0.0,0.0,0.0,0.0,0.0,0.0,0.0,0.0,0.0,0.0,0.0,0.0,0.0,0.0,0.0,0.0,0.0,0.0,0.0,0.0,0.0,0.0,0.0,0.0,0.0,0.0,0.0,0.0,0.0,0.0,0.0,0.0,0.0,0.0,0.0,0.0,0.0,0.0,0.0,0.0,0.0,0.0,0.0,0.0,0.0,0.0,0.0,0.0,0.0,0.0,0.0,0.0,0.0,0.0,0.0,0.0,0.0,0.0,0.0,0.0,0.0,0.0,0.0,0.0,0.0,0.0,0.0,0.0,0.0,0.0,-1.7502,-1.7543,-1.759,-1.7608,-1.6878,-1.6441,0.0,0.0,0.0,0.0,0.0,0.0,0.0,0.0,0.0,0.0,0.0,0.0,0.0,0.0,0.0,0.0,0.0,0.0,0.0,0.0,0.0,0.0,0.0,0.0,0.0,0.0,0.0,0.0,0.0,0.0,0.0,0.0,0.0,0.0,0.0,0.0,0.0,0.0,0.0,0.0,0.0,0.0,0.0,0.0,0.0,0.0,0.0,0.0,0.0,0.0,0.0,0.0,0.0,0.0,0.0,0.0,0.0,0.0,0.0,0.0,0.0,0.0,0.0,0.0,0.0,0.0,0.0,0.0,0.0,0.0,0.0,0.0,0.0,0.0,0.0,0.0,0.0,0.0,0.0,0.0,0.0,0.0,0.0,0.0,0.0,0.0,0.0,0.0,0.0,0.0,0.0,0.0,0.0,0.0,0.0,0.0,0.0,0.0,0.0,0.0,0.0,0.0,0.0,0.0,0.0,0.0,0.0,0.0,0.0,-1.7157,0.0,-1.7796,-1.7943,-1.744,-1.699,0.0,0.0,0.0,0.0,0.0,0.0,0.0,0.0,0.0,0.0,0.0,0.0,0.0,0.0,0.0,0.0,0.0,0.0,0.0,0.0,0.0,0.0,0.0,0.0,0.0,0.0,0.0,0.0,0.0,0.0,0.0,0.0,0.0,0.0,0.0,0.0,0.0,0.0,0.0,0.0,0.0,0.0,0.0,0.0,0.0,0.0,0.0,0.0,0.0,0.0,0.0,0.0,0.0,0.0,0.0,0.0,0.0,0.0,0.0,0.0,0.0,0.0,0.0,0.0,0.0,0.0,0.0,0.0,0.0,0.0,0.0,0.0,0.0,0.0,0.0,0.0,0.0,0.0,0.0,0.0,0.0,0.0,0.0,0.0,0.0,0.0,0.0,0.0,0.0,0.0,0.0,0.0,0.0,0.0,0.0,0.0,0.0,0.0,0.0,0.0,0.0,0.0,0.0,0.0,0.0,0.0,0.0,0.0,-1.7362,-1.7674,-1.7666,-1.799,-1.8483,-1.7786,-1.7368,0.0,0.0,0.0,0.0,0.0,0.0,0.0,0.0,0.0,0.0,0.0,0.0,0.0,0.0,0.0,0.0,0.0,0.0,0.0,0.0,0.0,0.0,0.0,0.0,0.0,0.0,0.0,0.0,0.0,0.0,0.0,0.0,0.0,0.0,0.0,0.0,0.0,0.0,0.0,0.0,0.0,0.0,0.0,0.0,0.0,0.0,0.0,0.0,0.0,0.0,0.0,0.0,0.0,0.0,0.0,0.0,0.0,0.0,0.0,0.0,0.0,0.0,0.0,0.0,0.0,0.0,0.0,0.0,0.0,0.0,0.0,0.0,0.0,0.0,0.0,0.0,0.0,0.0,0.0,0.0,0.0,0.0,0.0,0.0,0.0,0.0,0.0,0.0,0.0,0.0,0.0,0.0,0.0,0.0,0.0,0.0,0.0,0.0,0.0,0.0,0.0,0.0,0.0,0.0,0.0,0.0,0.0,0.0,0.0,-1.7925,-1.8435,-1.9212,-2.0146,-1.9099,-1.8744,0.0,0.0,0.0,0.0,0.0,0.0,0.0,0.0,0.0,0.0,0.0,0.0,0.0,0.0,0.0,0.0,0.0,0.0,0.0,0.0,0.0,0.0,0.0,0.0,0.0,0.0,0.0,0.0,0.0,0.0,0.0,0.0,0.0,0.0,0.0,0.0,0.0,0.0,0.0,0.0,0.0,0.0,0.0,0.0,0.0,0.0,0.0,0.0,0.0,0.0,0.0,0.0,0.0,0.0,0.0,0.0,0.0,0.0,0.0,0.0,0.0,0.0,0.0,0.0,0.0,0.0,0.0,0.0,0.0,0.0,0.0,0.0,0.0,0.0,0.0,0.0,0.0,0.0,0.0,0.0,0.0,0.0,0.0,0.0,0.0,0.0,0.0,0.0,0.0,0.0,0.0,0.0,0.0,0.0,0.0,0.0,0.0,0.0,0.0,0.0,0.0,0.0,0.0,0.0,0.0,0.0,0.0,0.0,0.0,-1.9105,-1.9446,-2.0127,-2.1166,-2.0283,-1.9798,-1.9761,0.0,0.0,0.0,0.0,0.0,0.0,0.0,0.0,0.0,0.0,0.0,0.0,0.0,0.0,0.0,0.0,0.0,0.0,0.0,0.0,0.0,0.0,0.0,0.0,0.0,0.0,0.0,0.0,0.0,0.0,0.0,0.0,0.0,0.0,0.0,0.0,0.0,0.0,0.0,0.0,0.0,0.0,0.0,0.0,0.0,0.0,0.0,0.0,0.0,0.0,0.0,0.0,0.0,0.0,0.0,0.0,0.0,0.0,0.0,0.0,0.0,0.0,0.0,0.0,0.0,0.0,0.0,0.0,0.0,0.0,0.0,0.0,0.0,0.0,0.0,0.0,0.0,0.0,0.0,0.0,0.0,0.0,0.0,0.0,0.0,0.0,0.0,0.0,0.0,0.0,0.0,0.0,0.0,0.0,0.0,0.0,0.0,0.0,0.0,0.0,0.0,0.0,0.0,0.0,0.0,0.0,0.0,0.0,-2.0972,-2.0772,-2.1021,-2.1693,-2.1454,-2.0649,0.0,0.0,0.0,0.0,0.0,0.0,0.0,0.0,0.0,0.0,0.0,0.0,0.0,0.0,0.0,0.0,0.0,0.0,0.0,0.0,0.0,0.0,0.0,0.0,0.0,0.0,0.0,0.0,0.0,0.0,0.0,0.0,0.0,0.0,0.0,0.0,0.0,0.0,0.0,0.0,0.0,0.0,0.0,0.0,0.0,0.0,0.0,0.0,0.0,0.0,0.0,0.0,0.0,0.0,0.0,0.0,0.0,0.0,0.0,0.0,0.0,0.0,0.0,0.0,0.0,0.0,0.0,0.0,0.0,0.0,0.0,0.0,0.0,0.0,0.0,0.0,0.0,0.0,0.0,0.0,0.0,0.0,0.0,0.0,0.0,0.0,0.0,0.0,0.0,0.0,0.0,0.0,0.0,0.0,0.0,0.0,0.0,0.0,0.0,0.0,0.0,0.0,0.0,0.0,0.0,0.0,0.0,0.0,0.0,-2.1719,-2.3167,-2.4033,-2.4199,-2.3045,-2.2012,0.0,0.0,0.0,0.0,0.0,0.0,0.0,0.0,0.0,0.0,0.0,0.0,0.0,0.0,0.0,0.0,0.0,0.0,0.0,0.0,0.0,0.0,0.0,0.0,0.0,0.0,0.0,0.0,0.0,0.0,0.0,0.0,0.0,0.0,0.0,0.0,0.0,0.0,0.0,0.0,0.0,0.0,0.0,0.0,0.0,0.0,0.0,0.0,0.0,0.0,0.0,0.0,0.0,0.0,0.0,0.0,0.0,0.0,0.0,0.0,0.0,0.0,0.0,0.0,0.0,0.0,0.0,0.0,0.0,0.0,0.0,0.0,0.0,0.0,0.0,0.0,0.0,0.0,0.0,0.0,0.0,0.0,0.0,0.0,0.0,0.0,0.0,0.0,0.0,0.0,0.0,0.0,0.0,0.0,0.0,0.0,0.0,0.0,0.0,0.0,0.0,0.0,0.0,0.0,0.0,0.0,0.0,0.0,-2.1869,-2.2543,-2.466,-2.5832,-2.59,-2.4547,-2.3054,0.0,0.0,0.0,0.0,0.0,0.0,0.0,0.0,0.0,0.0,0.0,0.0,0.0,0.0,0.0,0.0,0.0,0.0,0.0,0.0,0.0,0.0,0.0,0.0,0.0,0.0,0.0,0.0,0.0,0.0,0.0,0.0,0.0,0.0,0.0,0.0,0.0,0.0,0.0,0.0,0.0,0.0,0.0,0.0,0.0,0.0,0.0,0.0,0.0,0.0,0.0,0.0,0.0,0.0,0.0,0.0,0.0,0.0,0.0,0.0,0.0,0.0,0.0,0.0,0.0,0.0,0.0,0.0,0.0,0.0,0.0,0.0,0.0,0.0,0.0,0.0,0.0,0.0,0.0,0.0,0.0,0.0,0.0,0.0,0.0,0.0,0.0,0.0,0.0,0.0,0.0,0.0,0.0,0.0,0.0,0.0,0.0,0.0,0.0,0.0,0.0,0.0,0.0,0.0,0.0,0.0,0.0,0.0,-2.2818,-2.3422,-2.5545,-2.6725,-2.6859,-2.5748,-2.3877,0.0,0.0,0.0,0.0,0.0,0.0,0.0,0.0,0.0,0.0,0.0,0.0,0.0,0.0,0.0,0.0,0.0,0.0,0.0,0.0,0.0,0.0,0.0,0.0,0.0,0.0,0.0,0.0,0.0,0.0,0.0,0.0,0.0,0.0,0.0,0.0,0.0,0.0,0.0,0.0,0.0,0.0,0.0,0.0,0.0,0.0,0.0,0.0,0.0,0.0,0.0,0.0,0.0,0.0,0.0,0.0,0.0,0.0,0.0,0.0,0.0,0.0,0.0,0.0,0.0,0.0,0.0,0.0,0.0,0.0,0.0,0.0,0.0,0.0,0.0,0.0,0.0,0.0,0.0,0.0,0.0,0.0,0.0,0.0,0.0,0.0,0.0,0.0,0.0,0.0,0.0,0.0,0.0,0.0,0.0,0.0,0.0,0.0,0.0,0.0,0.0,0.0,0.0,0.0,0.0,0.0,0.0,0.0,-2.3151,-2.433,-2.5944,-2.6859,-2.6876,-2.5423,-2.4123,0.0,0.0,0.0,0.0,0.0,0.0,0.0,0.0,0.0,0.0,0.0,0.0,0.0,0.0,0.0,0.0,0.0,0.0,0.0,0.0,0.0,0.0,0.0,0.0,0.0,0.0,0.0,0.0,0.0,0.0,0.0,0.0,0.0,0.0,0.0,0.0,0.0,0.0,0.0,0.0,0.0,0.0,0.0,0.0,0.0,0.0,0.0,0.0,-2.2514,0.0,0.0,0.0,0.0,0.0,0.0,0.0,0.0,0.0,0.0,0.0,0.0,0.0,0.0,0.0,0.0,0.0,0.0,0.0,0.0,0.0,0.0,0.0,0.0,0.0,0.0,0.0,0.0,0.0,0.0,0.0,0.0,0.0,0.0,0.0,0.0,0.0,0.0,0.0,0.0,0.0,0.0,0.0,0.0,0.0,0.0,0.0,0.0,0.0,0.0,0.0,0.0,0.0,0.0,0.0,0.0,0.0,0.0,0.0,-2.3515,-2.5091,-2.6313,-2.6959,-2.6925,-2.5817,-2.4692,0.0,0.0,0.0,0.0,0.0,0.0,0.0,0.0,0.0,0.0,0.0,0.0,0.0,0.0,0.0,0.0,0.0,0.0,0.0,0.0,0.0,0.0,0.0,0.0,0.0,0.0,0.0,0.0,0.0,0.0,0.0,0.0,0.0,0.0,0.0,0.0,0.0,0.0,0.0,0.0,0.0,0.0,0.0,0.0,0.0,0.0,0.0,0.0,0.0,0.0,0.0,0.0,0.0,0.0,0.0,0.0,0.0,0.0,0.0,0.0,0.0,0.0,0.0,0.0,0.0,0.0,0.0,0.0,0.0,0.0,0.0,0.0,0.0,0.0,0.0,0.0,0.0,0.0,0.0,0.0,0.0,0.0,0.0,0.0,0.0,0.0,0.0,0.0,0.0,0.0,0.0,0.0,0.0,0.0,0.0,0.0,0.0,0.0,0.0,0.0,0.0,0.0,0.0,0.0,0.0,0.0,0.0,-2.264,-2.3989,-2.5853,-2.6753,-2.7127,-2.7007,-2.6487,-2.5442,-2.3818,0.0,0.0,0.0,0.0,0.0,0.0,0.0,0.0,0.0,0.0,0.0,0.0,0.0,0.0,0.0,0.0,0.0,0.0,0.0,0.0,0.0,0.0,0.0,0.0,0.0,0.0,0.0,0.0,0.0,0.0,0.0,0.0,0.0,0.0,0.0,0.0,0.0,0.0,-2.2936,-2.3073,0.0,0.0,0.0,0.0,0.0,0.0,0.0,0.0,-2.3033,0.0,0.0,0.0,0.0,0.0,0.0,0.0,0.0,0.0,0.0,0.0,0.0,0.0,0.0,0.0,0.0,0.0,0.0,0.0,0.0,0.0,0.0,0.0,0.0,0.0,0.0,0.0,0.0,0.0,0.0,0.0,0.0,0.0,0.0,0.0,0.0,0.0,0.0,0.0,0.0,0.0,0.0,0.0,0.0,0.0,0.0,0.0,0.0,0.0,0.0,0.0,0.0,0.0,0.0,0.0,0.0,-2.2825,-2.3423,-2.4741,-2.6813,-2.7686,-2.7772,-2.7105,-2.708,-2.6385,-2.4862,0.0,0.0,0.0,0.0,0.0,0.0,0.0,0.0,0.0,0.0,0.0,0.0,0.0,0.0,0.0,0.0,0.0,0.0,0.0,0.0,0.0,0.0,0.0,0.0,0.0,0.0,0.0,0.0,0.0,0.0,0.0,0.0,0.0,0.0,0.0,0.0,0.0,0.0,0.0,-2.185,-2.1953,0.0,0.0,0.0,0.0,0.0,0.0,0.0,0.0,-2.373,0.0,0.0,0.0,0.0,0.0,0.0,0.0,0.0,0.0,0.0,0.0,0.0,0.0,0.0,0.0,0.0,0.0,0.0,0.0,0.0,0.0,0.0,0.0,0.0,0.0,0.0,0.0,0.0,0.0,0.0,0.0,0.0,0.0,0.0,0.0,0.0,0.0,0.0,0.0,0.0,0.0,0.0,0.0,0.0,0.0,0.0,0.0,0.0,0.0,0.0,0.0,0.0,0.0,0.0,0.0,-2.3106,-2.3352,-2.4681,-2.7158,-2.7594,-2.7579,-2.7103,-2.6506,-2.5883,0.0,0.0,0.0,0.0,0.0,0.0,0.0,0.0,0.0,0.0,0.0,0.0,0.0,0.0,0.0,0.0,0.0,0.0,0.0,0.0,0.0,0.0,0.0,0.0,0.0,0.0,0.0,0.0,0.0,0.0,0.0,0.0,0.0,0.0,0.0,0.0,0.0,0.0,0.0,0.0,-2.2383,-2.2465,-2.2046,0.0,0.0,0.0,0.0,0.0,0.0,-2.4689,-2.4997,0.0,0.0,0.0,0.0,0.0,0.0,0.0,0.0,0.0,0.0,0.0,0.0,0.0,0.0,0.0,0.0,0.0,0.0,0.0,0.0,0.0,0.0,0.0,0.0,0.0,0.0,0.0,0.0,0.0,0.0,0.0,0.0,0.0,0.0,0.0,0.0,0.0,0.0,0.0,0.0,0.0,0.0,0.0,0.0,0.0,0.0,0.0,0.0,0.0,0.0,0.0,0.0,0.0,0.0,0.0,-2.3524,-2.3344,-2.4565,-2.7278,-2.7483,-2.7319,-2.6894,-2.5863,-2.5264,0.0,0.0,0.0,0.0,0.0,0.0,0.0,0.0,0.0,0.0,0.0,0.0,0.0,0.0,0.0,0.0,0.0,0.0,0.0,0.0,0.0,0.0,0.0,0.0,0.0,0.0,0.0,0.0,0.0,0.0,0.0,0.0,0.0,0.0,0.0,0.0,0.0,0.0,0.0,0.0,0.0,-2.36,-2.3655,-2.4063,0.0,0.0,0.0,0.0,-2.4857,-2.576,0.0,0.0,0.0,0.0,0.0,0.0,0.0,0.0,0.0,0.0,0.0,0.0,0.0,0.0,0.0,0.0,0.0,0.0,0.0,0.0,0.0,0.0,0.0,0.0,0.0,0.0,0.0,0.0,0.0,0.0,0.0,0.0,0.0,0.0,0.0,0.0,0.0,0.0,0.0,0.0,0.0,0.0,0.0,0.0,0.0,0.0,0.0,0.0,0.0,0.0,0.0,0.0,0.0,0.0,0.0,0.0,-2.439,-2.4102,-2.5066,-2.7391,-2.8016,-2.7627,-2.6251,-2.6074,-2.5391,0.0,0.0,0.0,0.0,0.0,0.0,0.0,0.0,0.0,0.0,0.0,0.0,0.0,0.0,0.0,0.0,0.0,0.0,0.0,0.0,0.0,0.0,0.0,0.0,0.0,0.0,0.0,0.0,0.0,0.0,0.0,0.0,0.0,0.0,0.0,0.0,0.0,0.0,0.0,0.0,0.0,-2.5225,-2.5245,-2.5279,-2.5611,0.0,0.0,-2.6483,-2.5579,-2.6206,0.0,0.0,0.0,0.0,0.0,0.0,0.0,0.0,0.0,0.0,0.0,0.0,0.0,0.0,0.0,0.0,0.0,0.0,0.0,0.0,0.0,0.0,0.0,0.0,0.0,0.0,0.0,0.0,0.0,0.0,0.0,0.0,0.0,0.0,0.0,0.0,0.0,0.0,0.0,0.0,0.0,0.0,0.0,0.0,0.0,0.0,0.0,0.0,0.0,0.0,0.0,0.0,0.0,0.0,0.0,-2.1255,-2.4694,-2.4045,-2.4963,-2.7643,-2.7857,-2.7594,-2.6887,-2.5576,-2.4798,0.0,0.0,0.0,0.0,0.0,0.0,0.0,0.0,0.0,0.0,0.0,0.0,0.0,0.0,0.0,0.0,0.0,0.0,0.0,0.0,0.0,0.0,0.0,0.0,0.0,0.0,0.0,0.0,0.0,0.0,0.0,0.0,0.0,0.0,0.0,0.0,0.0,0.0,0.0,0.0,0.0,0.0,-2.6169,-2.6532,0.0,0.0,0.0,-2.7888,-2.7078,0.0,0.0,0.0,0.0,0.0,0.0,0.0,0.0,0.0,0.0,0.0,0.0,0.0,0.0,0.0,0.0,0.0,0.0,0.0,0.0,0.0,0.0,0.0,0.0,0.0,0.0,0.0,0.0,0.0,0.0,0.0,0.0,0.0,0.0,0.0,0.0,0.0,0.0,0.0,0.0,0.0,0.0,0.0,0.0,0.0,0.0,0.0,0.0,0.0,0.0,0.0,0.0,0.0,0.0,0.0,0.0,0.0,-2.4896,-2.3891,-2.4729,-2.7533,-2.7589,-2.7409,-2.7183,-2.527,0.0,0.0,0.0,0.0,0.0,0.0,0.0,0.0,0.0,0.0,0.0,0.0,0.0,0.0,0.0,0.0,0.0,0.0,0.0,0.0,0.0,0.0,0.0,0.0,0.0,0.0,0.0,-1.9462,0.0,0.0,0.0,0.0,0.0,0.0,0.0,0.0,0.0,0.0,0.0,0.0,0.0,0.0,-2.6606,-2.7337,-2.7825,-2.7988,0.0,0.0,-2.8944,-2.8155,-2.8211,-2.7968,0.0,0.0,0.0,0.0,0.0,0.0,0.0,0.0,0.0,0.0,0.0,0.0,0.0,0.0,0.0,0.0,0.0,0.0,0.0,0.0,0.0,0.0,0.0,0.0,0.0,0.0,0.0,0.0,0.0,0.0,0.0,0.0,0.0,0.0,0.0,0.0,0.0,0.0,0.0,0.0,0.0,0.0,0.0,0.0,0.0,0.0,0.0,0.0,0.0,0.0,0.0,0.0,0.0,0.0,0.0,-2.4911,-2.3897,-2.4456,-2.6717,-2.7233,-2.7165,-2.6469,-2.5472,-2.4591,0.0,0.0,0.0,0.0,0.0,0.0,0.0,0.0,0.0,0.0,0.0,0.0,0.0,0.0,0.0,0.0,0.0,0.0,0.0,0.0,0.0,0.0,0.0,0.0,0.0,0.0,0.0,0.0,0.0,0.0,0.0,0.0,0.0,0.0,0.0,0.0,0.0,0.0,0.0,0.0,0.0,-2.896,-2.9135,-2.9129,-2.9107,0.0,0.0,-2.9026,-2.8234,-2.8773,-2.8739,-2.7065,0.0,0.0,0.0,0.0,0.0,0.0,0.0,0.0,0.0,0.0,0.0,0.0,0.0,0.0,0.0,0.0,0.0,0.0,0.0,0.0,0.0,0.0,0.0,0.0,0.0,0.0,0.0,0.0,0.0,0.0,0.0,0.0,0.0,0.0,0.0,0.0,0.0,0.0,0.0,0.0,0.0,0.0,0.0,0.0,0.0,0.0,0.0,0.0,0.0,0.0,0.0,0.0,0.0,-2.2406,-2.4976,-2.442,-2.5017,-2.6792,-2.7401,-2.7321,-2.6538,-2.5588,-2.4666,0.0,0.0,0.0,0.0,0.0,0.0,0.0,0.0,0.0,0.0,0.0,0.0,0.0,0.0,0.0,0.0,0.0,0.0,0.0,0.0,0.0,0.0,0.0,0.0,0.0,0.0,0.0,0.0,-1.9058,-1.9379,-2.0882,0.0,0.0,0.0,0.0,0.0,0.0,0.0,0.0,0.0,0.0,-2.8667,-2.9196,-2.9265,0.0,0.0,-2.933,-2.9258,-2.8944,-2.8798,-2.8501,-2.7774,-2.7512,0.0,0.0,0.0,0.0,0.0,0.0,0.0,0.0,0.0,0.0,0.0,0.0,0.0,0.0,0.0,0.0,0.0,0.0,0.0,0.0,0.0,0.0,0.0,0.0,0.0,0.0,0.0,0.0,0.0,0.0,0.0,0.0,0.0,0.0,0.0,0.0,0.0,0.0,0.0,0.0,0.0,0.0,0.0,0.0,0.0,0.0,0.0,0.0,0.0,0.0,0.0,0.0,-2.2805,-2.4585,-2.4599,-2.5219,-2.6543,-2.7346,-2.7513,-2.69,-2.5941,-2.5051,0.0,0.0,0.0,0.0,0.0,0.0,0.0,0.0,0.0,0.0,0.0,0.0,0.0,0.0,0.0,0.0,0.0,0.0,0.0,0.0,0.0,0.0,0.0,0.0,0.0,0.0,0.0,0.0,-1.9475,-2.0141,-2.1909,0.0,0.0,0.0,0.0,0.0,0.0,0.0,0.0,0.0,0.0,-2.8678,-2.9279,-2.9553,-2.9699,-2.9706,-2.9951,-3.0118,-3.016,-2.9734,-2.9325,-2.9025,0.0,0.0,0.0,0.0,0.0,0.0,0.0,0.0,0.0,0.0,0.0,0.0,0.0,0.0,0.0,0.0,0.0,0.0,0.0,0.0,0.0,0.0,0.0,0.0,0.0,0.0,0.0,0.0,0.0,0.0,-1.997,0.0,0.0,0.0,0.0,0.0,0.0,0.0,0.0,0.0,0.0,0.0,0.0,0.0,0.0,0.0,0.0,0.0,0.0,0.0,0.0,0.0,0.0,-2.3097,-2.3728,-2.4325,-2.4896,-2.5561,-2.694,-2.7654,-2.7477,-2.6631,-2.5872,-2.5147,0.0,0.0,0.0,0.0,0.0,0.0,0.0,0.0,0.0,0.0,0.0,0.0,0.0,0.0,0.0,0.0,0.0,0.0,0.0,0.0,0.0,0.0,0.0,0.0,0.0,0.0,-2.268,-2.2286,-2.1872,0.0,0.0,0.0,0.0,0.0,0.0,0.0,0.0,0.0,0.0,-2.8892,-2.9474,-2.9511,-3.012,-3.0562,-3.0648,-3.1275,-3.1793,-3.1864,-3.1885,-3.1682,0.0,0.0,0.0,0.0,0.0,0.0,0.0,0.0,0.0,0.0,0.0,0.0,0.0,0.0,0.0,0.0,0.0,0.0,0.0,0.0,0.0,0.0,0.0,0.0,0.0,0.0,0.0,-2.0227,-1.9863,0.0,0.0,0.0,0.0,0.0,0.0,0.0,0.0,0.0,0.0,0.0,-2.3777,-2.4007,0.0,0.0,0.0,0.0,0.0,0.0,0.0,0.0,0.0,0.0,0.0,0.0,-2.3667,-2.4318,-2.4935,-2.5314,-2.5464,-2.7003,-2.7045,-2.5425,-2.5993,-2.5681,-2.433,0.0,0.0,0.0,0.0,0.0,0.0,0.0,0.0,0.0,0.0,0.0,0.0,0.0,0.0,0.0,0.0,0.0,0.0,0.0,0.0,0.0,0.0,0.0,0.0,0.0,-2.168,0.0,0.0,0.0,0.0,0.0,0.0,0.0,0.0,0.0,0.0,0.0,-2.8744,-2.9005,-2.9304,-2.9699,-3.028,-3.0579,-3.0951,0.0,0.0,0.0,0.0,0.0,0.0,0.0,0.0,0.0,0.0,0.0,0.0,0.0,0.0,-2.9963,-2.9519,-2.9539,-2.9569,-2.9402,0.0,0.0,0.0,0.0,0.0,0.0,0.0,0.0,0.0,0.0,0.0,0.0,0.0,0.0,0.0,0.0,-2.0731,0.0,0.0,0.0,0.0,0.0,0.0,0.0,0.0,-2.391,-2.4257,-2.4748,-2.4978,-2.4992,0.0,-2.4959,-2.4505,0.0,0.0,0.0,0.0,0.0,0.0,0.0,0.0,-2.4175,-2.4562,-2.5173,-2.5455,-2.5417,-2.6448,-2.6226,-2.4655,-2.5509,-2.5327,-2.3877,-2.3641,-2.3105,0.0,0.0,0.0,0.0,0.0,0.0,0.0,0.0,0.0,0.0,0.0,0.0,0.0,0.0,0.0,0.0,0.0,0.0,0.0,0.0,0.0,0.0,0.0,-2.1916,0.0,0.0,0.0,0.0,0.0,0.0,0.0,0.0,0.0,-2.8404,-2.8633,-2.9063,-2.9868,-2.9738,-2.9982,-3.1088,0.0,0.0,0.0,0.0,0.0,0.0,0.0,-3.2876,-3.2575,-3.2557,-3.2443,-3.2163,-3.2126,-3.1975,-3.1506,0.0,0.0,-3.0116,-3.0203,-3.0456,-3.0596,-3.0844,-3.1035,-3.112,-3.1106,-3.1059,0.0,0.0,0.0,0.0,0.0,0.0,0.0,0.0,-2.1677,-2.1786,0.0,-2.1645,0.0,0.0,0.0,0.0,0.0,0.0,0.0,0.0,-2.4269,-2.4543,-2.4628,-2.5304,-2.5334,-2.4863,-2.6224,-2.631,-2.5171,-2.397,0.0,0.0,0.0,0.0,0.0,0.0,-2.4659,-2.4594,-2.5094,-2.531,-2.5272,-2.5362,-2.538,-2.538,-2.5292,-2.4843,-2.4012,-2.3998,-2.3728,-2.302,-2.2459,0.0,0.0,0.0,0.0,0.0,0.0,0.0,0.0,0.0,0.0,0.0,0.0,0.0,0.0,0.0,0.0,0.0,0.0,0.0,0.0,-2.2024,0.0,0.0,0.0,0.0,0.0,0.0,0.0,0.0,0.0,0.0,-2.8608,-2.9195,-2.9907,-3.0731,0.0,0.0,0.0,0.0,-3.2437,-3.3285,-3.4033,-3.4498,-3.4564,-3.4564,-3.4301,-3.3569,0.0,0.0,-3.2349,-3.2238,-3.2315,-3.224,-3.2392,-3.1992,-3.0468,-3.0791,-3.1276,-3.1405,-3.1965,-3.2537,-3.2653,-3.2508,-3.2466,-2.4425,0.0,0.0,0.0,0.0,-2.3724,-2.3529,-2.2842,-2.3255,-2.3328,-2.3111,-2.2452,0.0,0.0,0.0,0.0,0.0,0.0,-2.4458,-2.5014,-2.5139,-2.5494,-2.6,-2.6219,-2.6269,-2.6148,-2.6094,-2.5951,-2.5678,-2.4862,-2.4646,-2.5006,0.0,0.0,0.0,0.0,-2.4822,-2.575,-2.5477,-2.5227,-2.5092,-2.5784,-2.6365,-2.6847,-2.5307,-2.4555,-2.4739,-2.3877,-2.333,-2.3217,-2.3147,0.0,0.0,0.0,0.0,0.0,0.0,0.0,0.0,0.0,0.0,0.0,0.0,0.0,0.0,0.0,0.0,0.0,0.0,0.0,-2.3705,-2.2286,-2.1901,0.0,0.0,0.0,0.0,0.0,0.0,0.0,0.0,0.0,-3.096,-3.0246,-3.0171,0.0,0.0,-3.1804,-3.2893,-3.3023,-3.3323,-3.4132,0.0,0.0,0.0,-3.4602,-3.4508,-3.4301,-3.4264,-3.417,-3.3926,-3.3909,-3.3723,-3.3181,-3.3578,-3.3713,-3.2807,-3.2256,-3.2136,-3.2219,-3.2086,-3.2118,-3.2632,-3.303,-3.3187,-2.6212,-2.5535,-2.4907,-2.4563,-2.4507,-2.5167,-2.4852,-2.391,-2.4231,-2.4188,-2.3847,-2.3204,-2.2789,-2.2546,-2.298,0.0,0.0,0.0,-2.4961,-2.5446,-2.5698,-2.6067,-2.6521,-2.6572,-2.6623,-2.664,-2.6367,-2.6228,-2.6277,-2.5634,-2.568,-2.6234,0.0,0.0,-2.5535,-2.5216,-2.5492,-2.6289,-2.5599,-2.5114,-2.5063,-2.5077,-2.5317,-2.5673,-2.4689,-2.4191,-2.4267,-2.3832,-2.3467,-2.3283,-2.336,-2.3074,0.0,0.0,0.0,0.0,0.0,0.0,0.0,0.0,0.0,0.0,0.0,-2.1545,0.0,0.0,0.0,0.0,-2.2867,-2.3395,-2.3531,-2.288,0.0,0.0,0.0,0.0,0.0,0.0,0.0,-2.9053,-2.9869,-3.0865,-3.1917,-3.1241,-3.126,-3.2874,-3.2518,-3.2518,-3.3719,0.0,-3.37,-3.447,-3.4602,-3.4602,-3.4602,-3.4602,-3.4602,-3.4602,-3.4602,-3.4602,-3.4602,-3.4645,-3.4499,-3.4124,-3.4146,-3.4281,-3.4131,-3.3468,-3.3086,-3.3496,-3.3282,-3.3233,-3.371,-3.4069,-3.4184,-2.7511,-2.7031,-2.6009,-2.5717,-2.5955,-2.6311,-2.6056,-2.5413,-2.4876,-2.4686,-2.4622,-2.3982,-2.3787,-2.3871,-2.3606,0.0,-2.3899,-2.4776,-2.5228,-2.533,-2.5979,-2.6364,-2.6502,-2.6605,-2.6622,-2.6623,-2.691,-2.6993,-2.6875,-2.6407,-2.6595,-2.7321,-2.6068,-2.546,-2.5565,-2.6034,-2.6306,-2.6375,-2.5547,-2.5086,-2.5086,-2.3798,-2.3142,-2.3247,-2.3858,-2.3858,-2.316,-2.3821,-2.3915,-2.3294,-2.3289,-2.2941,-2.2184,0.0,0.0,0.0,0.0,0.0,0.0,0.0,0.0,0.0,0.0,0.0,0.0,0.0,0.0,0.0,-2.243,0.0,-2.2368,-2.3742,0.0,0.0,0.0,-2.8408,-2.8496,-2.9231,-2.9719,-2.979,0.0,0.0,-3.1823,0.0,-3.278,-3.4282,-3.3231,-3.2856,-3.4395,-3.3963,-3.3776,-3.4489,-3.4602,-3.4602,-3.4602,-3.4602,-3.4602,-3.4602,-3.4602,-3.4623,-3.4623,-3.4727,-3.4788,-3.4581,-3.4131,-3.3847,-3.4586,-3.396,-3.3864,-3.458,-3.4971,-3.5149,-3.5051,-3.5013,-3.4975,-2.798,-2.784,-2.7457,-2.6923,-2.6348,-2.6809,-2.6914,-2.6688,-2.6244,-2.6094,-2.6115,-2.4998,-2.4571,-2.4681,-2.4324,-2.4531,-2.5248,-2.5716,-2.5959,-2.6047,-2.623,-2.6293,-2.6393,-2.6947,-2.7004,-2.6673,-2.7248,-2.7317,-2.6944,-2.7334,-2.7383,-2.7122,-2.731,-2.7282,-2.6986,-2.6377,-2.6419,-2.7068,-2.6199,-2.5557,-2.5171,-2.4392,-2.4234,-2.4813,-2.4523,-2.4249,-2.4005,-2.3693,-2.349,-2.3424,-2.3448,-2.3119,-2.2361,-2.2785,0.0,0.0,0.0,0.0,0.0,0.0,0.0,0.0,0.0,-2.297,-2.3628,0.0,-2.3547,0.0,-2.1637,-2.2256,-2.4591,-2.4748,0.0,0.0,-2.7699,-2.8427,-2.8426,-2.9157,-2.9682,-2.9717,-3.0246,-3.0733,-3.1166,-3.2311,-3.325,-3.3644,-3.3869,-3.4151,-3.4545,-3.4451,-3.4376,-3.4564,-3.4602,-3.4602,-3.4602,-3.4602,-3.4602,-3.4602,-3.4645,-3.4666,-3.4666,-3.4747,-3.46,-3.3977,-3.3734,-3.3507,-3.3147,-3.2897,-3.2947,-3.3227,-3.4301,-3.5105,-3.4587,-3.4293,-3.4236,-2.8176,-2.791,-2.7955,-2.7527,-2.6781,-2.7309,-2.7225,-2.6673,-2.6401,-2.608,-2.5683,-2.5111,-2.4942,-2.4989,-2.4862,-2.5121,-2.5663,-2.5937,-2.6134,-2.626,-2.6241,-2.6239,-2.6253,-2.6709,-2.6766,-2.6468,-2.6993,-2.7266,-2.73,-2.7759,-2.7964,-2.7947,-2.8015,-2.7963,-2.773,-2.6926,-2.6722,-2.7184,-2.6554,-2.5709,-2.4739,-2.4489,-2.4566,-2.491,-2.435,-2.4127,-2.4421,-2.3762,-2.3608,-2.4045,-2.3695,-2.332,-2.2923,-2.2847,-2.2265,0.0,0.0,0.0,0.0,0.0,0.0,0.0,0.0,0.0,0.0,0.0,-2.3951,0.0,-2.3287,-2.4083,-2.6544,-2.6432,-2.6692,-2.7883,-2.8558,-2.8914,-2.8877,-2.9383,-2.9701,-2.9682,-3.0096,-3.0509,-3.0865,-3.1729,-3.2443,-3.2762,-3.3193,-3.3757,-3.4451,-3.4602,-3.4602,-3.4602,-3.4602,-3.4602,-3.4602,-3.4602,-3.4602,-3.4623,-3.4663,-3.4706,-3.4687,-3.4788,-3.4678,-3.4205,-3.3866,-3.3525,-3.3107,-3.2743,-3.2488,-3.2324,-3.3172,-3.3865,-3.3609,-3.3412,-3.3374,-2.8254,-2.7681,-2.7981,-2.7748,-2.7307,-2.7786,-2.7288,-2.6244,-2.6245,-2.5691,-2.4844,-2.5114,-2.5234,-2.5274,-2.5376,-2.5538,-2.5697,-2.584,-2.6007,-2.6151,-2.6203,-2.6203,-2.6203,-2.6376,-2.6395,-2.633,-2.6622,-2.7113,-2.7683,-2.7894,-2.832,-2.888,-2.8268,-2.7964,-2.7913,-2.7381,-2.7103,-2.7149,-2.6658,-2.5778,-2.4497,-2.4494,-2.4506,-2.4438,-2.3857,-2.3815,-2.4432,-2.3868,-2.3866,-2.4562,-2.3943,-2.3544,-2.3531,-2.2865,-2.245,0.0,-2.1828,0.0,0.0,0.0,0.0,0.0,0.0,0.0,0.0,-2.4312,-2.4816,-2.569,-2.582,-2.647,-2.7976,-2.8124,-2.8477,-2.9295,-2.947,-2.9511,-2.9512,-2.9626,-2.9701,-2.9701,-2.9701,-2.9983,-3.0621,-3.0903,-3.1354,-3.1898,-3.2443,-3.3158,-3.4135,-3.4395,-3.4414,-3.4564,-3.4602,-3.4602,-3.4602,-3.4623,-3.4623,-3.4623,-3.4687,-3.4708,-3.4708,-3.4829,-3.4869,-3.4642,-3.3961,-3.3486,-3.3483,-3.2703,-3.1958,-3.1348,-3.1836,-3.2401,-3.2546,-3.2579,-3.2565,-2.8119,-2.7328,-2.7861,-2.7876,-2.7554,-2.764,-2.762,-2.7444,-2.7163,-2.6836,-2.6475,-2.6502,-2.6603,-2.6656,-2.6211,-2.6158,-2.6308,-2.5902,-2.5832,-2.6016,-2.6134,-2.6203,-2.6236,-2.6836,-2.6806,-2.6362,-2.7002,-2.7461,-2.77,-2.7789,-2.7892,-2.8044,-2.7892,-2.7555,-2.7012,0.0,0.0,0.0,-2.6836,-2.6483,-2.6268,-2.5287,-2.4748,-2.4706,-2.3978,0.0,-2.3849,-2.3679,-2.3679,-2.3876,-2.3815,0.0,0.0,0.0,0.0,0.0,0.0,0.0,0.0,0.0,0.0,0.0,-2.4496,-2.4899,-2.5059,-2.5752,-2.6335,-2.6618,-2.6712,-2.7121,-2.8013,-2.8144,-2.8517,-2.9295,-2.947,-2.9511,-2.9492,-2.9608,-2.9701,-2.9701,-2.9701,-2.9758,-3.0002,-3.1034,-3.1654,-3.1335,-3.2896,-3.3951,-3.3707,-3.3703,-3.3907,-3.4451,-3.4623,-3.4623,-3.4602,-3.4645,-3.4685,-3.4706,-3.4807,-3.4848,-3.4868,-3.485,-3.4624,-3.4093,-3.3221,-3.2444,-3.1855,-3.1054,-3.0573,-3.0285,-3.0483,-3.0829,-3.1613,-3.1813,-3.1813,-2.7838,0.0,-2.7588,-2.7683,0.0,-2.756,-2.769,-2.7775,-2.7258,-2.6903,-2.6689,-2.6835,-2.6997,-2.7083,-2.683,-2.6654,-2.6557,-2.6324,-2.6192,-2.6101,-2.6187,-2.6203,-2.622,-2.6584,-2.6823,-2.6861,-2.7336,-2.7961,-2.8743,-2.8533,-2.8755,-2.9465,-2.8755,-2.8197,-2.7824,-2.7317,-2.7171,-2.7434,-2.735,-2.7123,-2.6782,-2.5879,-2.5392,-2.5315,0.0,0.0,0.0,0.0,0.0,0.0,0.0,0.0,0.0,0.0,0.0,-2.366,-2.3656,-2.3678,-2.3747,-2.3813,-2.4039,-2.4538,-2.567,-2.6242,-2.5941,-2.6767,-2.7391,-2.7508,-2.788,-2.829,-2.87,-2.8756,-2.8944,-2.9334,-2.9453,-2.9512,-2.955,-2.9645,-2.9701,-2.9701,-2.9701,-2.9833,-3.0265,-3.0941,-3.1335,-3.1054,-3.1995,-3.2938,-3.2994,-3.3597,-3.4273,-3.463,-3.4687,-3.4706,-3.4706,-3.4727,-3.4747,-3.4768,-3.4848,-3.4906,-3.4906,-3.4567,-3.415,-3.3714,-3.2994,-3.2141,-3.1436,-3.0902,-3.0516,-3.0148,-3.0064,-3.0223,-3.0819,-3.0896,-3.0849,-2.7669,-2.7267,-2.7357,-2.7512,-2.7754,-2.7769,-2.7931,-2.8157,0.0,0.0,0.0,-2.742,-2.7536,-2.7446,-2.746,-2.7208,-2.6775,-2.6694,-2.6492,-2.6148,-2.6168,-2.6203,-2.622,-2.6336,-2.6819,-2.7557,-2.7721,-2.8585,-3.0005,-2.936,-2.9705,-3.0768,-2.9634,-2.9011,-2.8999,-2.7964,-2.7523,-2.7749,-2.7924,-2.7723,-2.7094,-2.6519,-2.6206,-2.6133,-2.4851,-2.4392,-2.4856,-2.4302,-2.4219,-2.4755,-2.4179,-2.4176,-2.4928,-2.4386,-2.4053,-2.4046,-2.4154,-2.4219,-2.4223,-2.4351,-2.478,-2.5582,-2.6948,-2.7468,-2.683,-2.7656,-2.8241,-2.832,-2.8934,-2.9344,-2.9386,-2.9388,-2.939,-2.9373,-2.9472,-2.9531,-2.9569,-2.9645,-2.9701,-2.9701,-2.9701,-2.9927,-3.0527,-3.0809,-3.0866,-3.0847,-3.1205,-3.145,-3.2317,-3.3713,-3.4732,-3.4769,-3.4768,-3.4788,-3.4788,-3.4809,-3.4809,-3.4809,-3.4735,-3.468,-3.4566,-3.4017,-3.3524,-3.3411,-3.2766,-3.2007,-3.1433,-3.1089,-3.0874,-3.0232,-3.0094,-3.0123,-3.019,-3.0176,-3.02,-2.7712,-2.7446,-2.7409,-2.7713,-2.8286,-2.8398,-2.8929,-2.9637,-2.9067,-2.8974,-2.9193,-2.9915,-2.972,-2.8805,-2.8483,-2.7955,-2.7331,-2.651,-2.6052,0.0,-2.6132,-2.6203,-2.6236,-2.6849,-2.7549,-2.8213,-2.8452,-2.9302,-3.0499,-2.9593,-2.9414,-3.0091,-2.9397,-2.9119,-2.9282,-2.8893,-2.8693,-2.8775,-2.834,-2.8119,-2.8165,-2.7479,-2.709,-2.6979,-2.6068,-2.5356,-2.4846,-2.4721,-2.4442,-2.3985,-2.3987,-2.4281,-2.4954,-2.494,-2.5176,-2.576,-2.5809,-2.5791,-2.5855,-2.5923,-2.6376,-2.7273,-2.7721,-2.792,-2.7927,-2.859,-2.9077,-2.9198,-2.9312,-2.9386,-2.9388,-2.939,-2.9392,-2.9412,-2.9511,-2.9588,-2.9607,-2.9683,-2.9683,-2.9701,-2.9701,-2.972,-3.002,-3.0603,-3.0829,-3.0431,-3.1373,-3.2259,-3.2504,-3.3771,-3.4695,-3.4788,-3.4788,-3.4788,-3.4733,-3.4829,-3.4774,-3.4887,-3.4283,-3.3866,-3.3847,-3.3146,-3.2672,-3.2615,-3.2008,-3.1478,-3.1267,-3.062,-3.0418,-3.0232,-3.0208,-3.0214,-3.0237,-3.0226,-3.0259,-2.7783,-2.6985,-2.7106,-2.7669,-2.8449,-2.9011,-2.9726,-3.0531,-3.038,-3.0022,-2.9642,-3.0021,-2.9593,-2.8614,-2.8411,-2.7907,-2.7122,-2.7081,-2.689,-2.6578,-2.7123,-2.7379,-2.7446,-2.8108,-2.886,-2.9653,-3.0166,-3.0781,-3.1439,-3.0948,-3.069,-3.0632,-2.9604,-2.9379,-2.9936,-2.8766,-2.8502,-2.9124,-2.8457,-2.8147,-2.8291,-2.7582,-2.6979,-2.6498,-2.6104,-2.5416,-2.4316,-2.4653,-2.4532,-2.3822,-2.4227,-2.4606,-2.4861,-2.5334,-2.5731,-2.6051,-2.6092,-2.6116,-2.6157,-2.669,-2.7269,-2.7893,-2.8363,-2.8685,-2.8788,-2.9122,-2.9326,-2.9386,-2.9388,-2.9388,-2.939,-2.9392,-2.9433,-2.9511,-2.9569,-2.9626,-2.9645,-2.9683,-2.972,-2.9756,-2.9719,-2.9888,-3.0357,-3.1167,-3.1638,-3.1372,-3.2353,-3.2786,-3.197,-3.3147,-3.4017,-3.3601,-3.3488,-3.3715,-3.4055,-3.3791,-3.3772,-3.4131,-3.3544,-3.307,-3.2937,-3.2312,-3.2027,-3.2308,-3.1796,-3.1547,-3.1811,-3.1724,-3.1348,-3.0897,-3.0882,-3.0822,-3.0484,-3.0337,-3.0349,-2.8266,-2.7212,-2.7418,-2.806,-2.8949,-2.9687,-3.0467,-3.1222,-3.1165,-3.0722,-3.0103,-3.0251,-2.964,-2.8468,-2.8506,-2.7907,-2.6942,-2.7277,-2.7361,-2.7175,-2.7783,-2.8207,-2.8439,-2.9085,-2.9938,-3.0867,-3.1541,-3.2059,-3.2513,-3.2437,-3.2049,-3.1376,-3.0296,-3.0103,-3.0834,-2.9248,-2.8801,-2.9431,-2.8774,-2.8345,-2.8246,-2.7691,-2.709,-2.6509,-2.6523,-2.5907,-2.4658,-2.5108,-2.5072,-2.4374,-2.4861,-2.5234,-2.5344,-2.5961,-2.6375,-2.6518,-2.6603,-2.6658,-2.6741,-2.7445,-2.8017,-2.8334,-2.887,-2.9265,-2.9368,-2.9388,-2.9388,-2.9388,-2.9388,-2.939,-2.9392,-2.9433,-2.9491,-2.9588,-2.9608,-2.9645,-2.9681,-2.9719,-2.9738,-2.979,-2.9905,-3.03,-3.094,-3.1618,-3.1844,-3.1804,-3.2766,-3.2802,-3.1756,-3.2667,-3.333,-3.2762,-3.246,-3.2691,-3.3259,-3.2918,-3.2786,-3.3317,-3.2692,-3.2368,-3.2236,-3.1798,-3.1625,-3.221,-3.2055,-3.192,-3.2444,-3.2588,-3.2248,-3.1604,-3.141,-3.1271,-3.0564,-3.0433,-3.0414,-2.9674,-2.9319,-2.8931,-2.9555,-3.0438,-3.0458,-3.105,-3.1921,-3.1329,-3.1151,-3.1235,-3.2289,-3.1294,-2.9294,-2.9371,-2.8488,-2.6708,-2.6297,-2.6454,-2.7033,-2.7158,-2.7668,-2.8472,-2.9135,-3.0162,-3.1371,-3.1748,-3.255,-3.3734,-3.3311,-3.2774,-3.2252,-3.1806,-3.156,-3.1631,-3.125,-3.0773,-3.0198,-2.9546,-2.8927,-2.8416,-2.8386,-2.827,-2.8085,-2.8102,-2.7743,-2.6659,-2.69,-2.6559,-2.5817,-2.5877,-2.6273,-2.6853,-2.7101,-2.7461,-2.8083,-2.8188,-2.8352,-2.8524,-2.8712,-2.8851,-2.9067,-2.9206,-2.9304,-2.9386,-2.9388,-2.9388,-2.9388,-2.939,-2.9373,-2.9412,-2.9511,-2.9588,-2.9607,-2.9664,-2.9699,-2.9774,-2.9754,-2.9771,-2.9789,-3.0506,-3.0996,-3.1069,-3.1238,-3.1027,-3.0696,-3.2036,-3.2526,-3.1588,-3.2781,-3.3522,-3.2836,-3.2526,-3.2462,-3.2596,-3.252,-3.2501,-3.2522,-3.1915,-3.1855,-3.2119,-3.1963,-3.1599,-3.2578,-3.2635,-3.2613,-3.2721,-3.2591,-3.2485,-3.2081,-3.1718,-3.1316,-3.0687,-3.049,-3.049,-2.9691,-2.9015,-2.8487,-2.9086,-3.0324,-3.0884,-3.1444,-3.2,-3.1329,-3.1251,-3.1616,-3.1867,-3.0684,-2.8503,-2.7955,-2.7114,-2.6184,-2.6875,-2.7339,-2.7738,-2.8629,-2.931,-2.9698,-3.0377,-3.1073,-3.1636,-3.2154,-3.28,-3.3316,-3.2951,-3.2594,-3.2326,-3.1545,-3.1353,-3.1844,-3.1129,-3.0617,-3.0391,-2.9758,-2.9053,-2.8416,-2.8327,-2.8067,-2.7638,-2.7969,-2.7611,-2.6522,-2.6798,-2.6708,-2.5975,-2.639,-2.6828,-2.7056,-2.7592,-2.8038,-2.8388,-2.8543,-2.8737,-2.897,-2.8998,-2.9108,-2.9304,-2.9326,-2.9368,-2.939,-2.939,-2.9411,-2.9451,-2.9412,-2.9433,-2.9511,-2.9607,-2.9664,-2.9664,-2.9718,-2.9941,-3.0486,-3.0524,-3.0731,-3.1219,-3.1181,-3.1124,-3.114,-3.1193,-3.1094,-3.1013,-3.2238,-3.2651,-3.1169,-3.2476,-3.3179,-3.2289,-3.2186,-3.2492,-3.2511,-3.2511,-3.2495,-3.2422,-3.2231,-3.2264,-3.2376,-3.2371,-3.2381,-3.3264,-3.3429,-3.3689,-3.4275,-3.4265,-3.4134,-3.3269,-3.2054,-3.1452,-3.0714,-3.0569,-3.0559,-2.9678,-2.8956,-2.8664,-2.9154,-3.007,-3.086,-3.1324,-3.1399,-3.0964,-3.096,-3.113,-3.0651,-2.9499,-2.7942,-2.7205,-2.6534,-2.594,-2.7114,-2.7896,-2.823,-2.9543,-3.027,-3.0518,-3.1056,-3.1421,-3.1729,-3.228,-3.2794,-3.2974,-3.2343,-3.2269,-3.2519,-3.1675,-3.1522,-3.214,-3.1479,-3.085,-3.0379,-2.9911,-2.9265,-2.8379,-2.8182,-2.7887,-2.7442,-2.7834,-2.7584,-2.6542,-2.7005,-2.7059,-2.6506,-2.704,-2.7388,-2.7353,-2.7951,-2.838,-2.8484,-2.8637,-2.8815,-2.9108,-2.913,-2.9218,-2.9368,-2.9388,-2.9388,-2.9392,-2.9373,-2.9433,-2.9511,-2.9511,-2.9531,-2.9607,-2.9683,-2.97,-2.9717,-2.9789,-3.0126,-3.0633,-3.0767,-3.0954,-3.1555,-3.1235,-3.1159,-3.125,-3.1455,-3.1583,-3.1483,-3.2724,-3.3459,-3.1882,-3.2978,-3.3907,-3.2661,-3.3058,-3.3083,-3.2749,-3.258,-3.2564,-3.2561,-3.2521,-3.2613,-3.2874,-3.2997,-3.3314,-3.414,-3.4319,-3.4534,-3.4883,-3.5252,-3.5213,-3.428,-3.3021,-3.1729,-3.1149,-3.0848,-3.077,-3.019,-2.9726,-3.0543,-3.0382,-2.987,-3.0312,-3.0408,-3.0196,-3.0243,-3.0074,-2.963,-2.8932,-2.8104,-2.7402,-2.8114,-2.7527,-2.5924,-2.6613,-2.7424,-2.8214,-2.9074,-2.9782,-3.0452,-3.0576,-3.0983,-3.1615,-3.1691,-3.2202,-3.2908,-3.1962,-3.2026,-3.3352,-3.2872,-3.2741,-3.2862,-3.309,-3.2272,-3.0395,-3.0242,-2.9585,-2.8255,-2.8032,-2.8035,-2.8093,-2.8174,-2.8075,-2.7949,-2.8047,-2.8047,-2.7956,-2.8039,-2.812,-2.8138,-2.8282,-2.8484,-2.8644,-2.8761,-2.8881,-2.9067,-2.9156,-2.9262,-2.9368,-2.9388,-2.9409,-2.9431,-2.9412,-2.9472,-2.9588,-2.9626,-2.9664,-2.9701,-2.9719,-2.9736,-2.979,-2.9842,-2.9952,-3.0045,-3.0213,-2.9983,-3.0343,-3.0873,-3.1101,-3.1174,-3.1929,-3.1827,-3.1778,-3.2844,-3.3742,-3.3695,-3.4539,-3.5028,-3.4952,-3.4827,-3.4649,-3.3083,-3.3045,-3.2931,-3.2851,-3.3073,-3.3035,-3.357,-3.4074,-3.4563,-3.4918,-3.507,-3.5232,-3.5412,-3.5329,-3.5065,-3.4241,-3.3051,-3.2,-3.1816,-3.1061,-3.1002,-2.9042,-2.8575,-2.9484,-2.9666,-2.9508,-2.9811,-2.9947,-2.9945,-2.9761,-2.9484,-2.9187,-2.8653,-2.7849,-2.6985,-2.7826,-2.755,-2.6509,-2.7245,-2.8099,-2.8885,-2.9716,-3.022,-3.0493,-3.0551,-3.075,-3.0991,-3.0788,-3.0807,-3.1263,-3.1726,-3.2315,-3.2946,-3.3419,-3.3438,-3.3142,-3.337,-3.2615,-3.0931,-3.0521,-2.9798,-2.8729,-2.8222,-2.7975,-2.8071,-2.806,-2.7986,-2.7957,-2.8042,-2.8053,-2.8042,-2.8126,-2.8182,-2.8209,-2.8318,-2.8518,-2.881,-2.8839,-2.8975,-2.9197,-2.9259,-2.9304,-2.939,-2.9392,-2.9431,-2.9492,-2.9531,-2.9551,-2.9645,-2.9682,-2.9718,-2.9809,-2.9825,-2.9825,-2.9825,-2.9876,-3.0156,-3.0589,-3.0722,-3.0928,-3.1345,-3.1402,-3.1004,-3.0644,-3.0696,-3.1007,-3.1428,-3.2473,-3.3221,-3.3518,-3.4482,-3.5292,-3.476,-3.4592,-3.4573,-3.4654,-3.4423,-3.4347,-3.3993,-3.3969,-3.4347,-3.4831,-3.4859,-3.5213,-3.5245,-3.5477,-3.5553,-3.5596,-3.5558,-3.521,-3.4546,-3.3314,-3.2773,-3.2638,-3.1777,-3.1777,-2.8094,-2.7847,-2.8689,-2.8972,-2.8805,-2.9139,-2.9362,-2.9397,-2.9175,-2.8981,-2.8819,-2.8638,-2.8026,-2.7315,-2.7727,-2.7905,-2.766,-2.823,-2.8787,-2.9362,-3.0137,-3.0526,-3.0568,-3.0651,-3.0749,-3.0664,-2.9967,-2.9901,-3.0484,-3.1108,-3.2054,-3.3442,-3.3871,-3.3835,-3.3523,-3.3678,-3.2949,-3.1355,-3.0536,-2.9885,-2.9047,-2.8259,-2.7871,-2.7929,-2.7917,-2.7917,-2.7946,-2.7986,-2.8014,-2.8025,-2.8126,-2.8209,-2.8264,-2.8406,-2.8612,-2.8863,-2.8957,-2.9089,-2.9262,-2.9323,-2.9349,-2.9392,-2.9433,-2.9472,-2.9588,-2.9645,-2.9664,-2.9681,-2.9735,-2.9806,-2.9842,-2.9876,-2.999,-3.0181,-3.0307,-3.0549,-3.1118,-3.1157,-3.1269,-3.1288,-3.1004,-3.0606,-3.0471,-3.0728,-3.1343,-3.2107,-3.3024,-3.3585,-3.3839,-3.4534,-3.5287,-3.471,-3.4416,-3.4693,-3.4822,-3.4841,-3.4936,-3.4699,-3.4641,-3.5187,-3.5451,-3.5515,-3.554,-3.5584,-3.5639,-3.5662,-3.5673,-3.5704,-3.5356,-3.4833,-3.4195,-3.3576,-3.3093,-3.2426,-3.2551,-2.7521,-2.7432,-2.8537,-2.8506,-2.7876,-2.8368,-2.8425,-2.8418,-2.8638,-2.8653,-2.8586,-2.8828,-2.8697,-2.8135,-2.8371,-2.8648,-2.9123,-2.9362,-2.9411,-2.951,-3.017,-3.0593,-3.0692,-3.0733,-3.0804,-3.083,-2.9631,-2.9844,-3.1096,-3.033,-3.1397,-3.4191,-3.4163,-3.3933,-3.4047,-3.4004,-3.3173,-3.1411,-3.0562,-2.9867,-2.893,-2.824,-2.7865,-2.7888,-2.7917,-2.7946,-2.8014,-2.7996,-2.8025,-2.8099,-2.8154,-2.8264,-2.8398,-2.8562,-2.8743,-2.8905,-2.9089,-2.9218,-2.9302,-2.937,-2.9392,-2.9433,-2.9453,-2.9531,-2.9626,-2.9664,-2.9701,-2.9736,-2.9825,-2.9859,-2.9861,-2.9969,-3.0286,-3.1004,-3.0968,-3.0947,-3.1156,-3.1174,-3.0873,-3.0267,-3.0059,-3.0357,-3.1165,-3.1673,-3.2387,-3.3455,-3.432,-3.4898,-3.5004,-3.532,-3.5476,-3.5374,-3.4846,-3.4615,-3.4824,-3.4982,-3.5121,-3.52,-3.5277,-3.5528,-3.5553,-3.5596,-3.5608,-3.5631,-3.5673,-3.5695,-3.5684,-3.5715,-3.5715,-3.525,-3.4728,-3.4322,-3.3984,-3.3548,-3.3268,-2.7112,-2.7211,-2.7609,-2.7706,-2.7604,-2.7814,-2.8035,-2.8357,-2.8686,-2.9009,-2.9255,-2.9648,-2.9672,-2.9723,-3.0194,-3.0418,-3.0261,-3.08,-3.0817,-3.0294,-3.0551,-3.0749,-3.0733,-3.0952,-3.0881,-3.0459,-2.9578,-2.9649,-3.0575,-3.0748,-3.1812,-3.323,-3.3916,-3.3805,-3.3398,-3.3047,-3.2406,-3.1847,-3.1196,-3.0507,-2.9737,-2.8961,-2.84,-2.801,-2.7957,-2.8071,-2.8246,-2.8154,-2.8081,-2.8126,-2.8172,-2.8264,-2.838,-2.8536,-2.8737,-2.8947,-2.9067,-2.92,-2.933,-2.9411,-2.9451,-2.9511,-2.955,-2.9608,-2.9664,-2.9681,-2.9736,-2.9806,-2.9876,-2.9876,-2.9969,-3.044,-3.0835,-3.1102,-3.0646,-3.0682,-3.1042,-3.0701,-3.0246,-2.9983,-2.9907,-3.0319,-3.1073,-3.173,-3.2444,-3.3777,-3.4374,-3.4678,-3.5325,-3.5547,-3.556,-3.5519,-3.4932,-3.4623,-3.5032,-3.5102,-3.4974,-3.528,-3.5531,-3.5608,-3.5651,-3.5662,-3.5654,-3.5665,-3.5687,-3.5706,-3.5706,-3.5706,-3.5716,-3.5542,-3.4981,-3.4894,-3.5039,-3.4739,-3.4236,-2.6989,-2.7167,-2.7248,-2.7386,-2.756,-2.756,-2.8111,-2.8821,-2.8905,-2.9513,-3.0461,-3.0653,-3.0833,-3.1139,-3.1835,-3.1914,-3.1515,-3.1867,-3.1667,-3.1091,-3.089,-3.0888,-3.0895,-3.1117,-3.1125,-3.0779,-3.0231,-3.0438,-3.125,-3.1528,-3.2166,-3.3261,-3.3636,-3.3419,-3.2835,-3.2666,-3.2476,-3.183,-3.1093,-3.0735,-3.0328,-2.9311,-2.8652,-2.8536,-2.8324,-2.8318,-2.8458,-2.8371,-2.8273,-2.8273,-2.8345,-2.8398,-2.8484,-2.8637,-2.8834,-2.9017,-2.9156,-2.9267,-2.9392,-2.9433,-2.9511,-2.9588,-2.9626,-2.9645,-2.97,-2.9717,-2.9789,-2.9859,-2.9912,-2.991,-2.9983,-3.0341,-3.0798,-3.1121,-3.1063,-3.0928,-3.1118,-3.0452,-3.0205,-3.0319,-3.0468,-3.1048,-3.1914,-3.1971,-3.2591,-3.4033,-3.4285,-3.4452,-3.5232,-3.5566,-3.5584,-3.5427,-3.4889,-3.4958,-3.5452,-3.5278,-3.4872,-3.524,-3.5673,-3.5673,-3.5695,-3.5695,-3.5687,-3.5678,-3.5698,-3.5698,-3.5718,-3.5708,-3.5689,-3.5398,-3.5243,-3.534,-3.5379,-3.5088,-3.4739,-2.7137,-2.7233,-2.7395,-2.7563,-2.7685,-2.7715,-2.846,-2.9565,-2.9154,-3.0066,-3.1583,-3.1682,-3.1869,-3.2442,-3.2912,-3.3011,-3.2777,-3.2429,-3.2068,-3.1666,-3.1281,-3.1026,-3.119,-3.1312,-3.1376,-3.1418,-3.1325,-3.1739,-3.229,-3.1929,-3.2472,-3.3467,-3.2934,-3.2591,-3.202,-3.272,-3.2179,-3.1269,-3.0633,-3.0695,-3.1023,-2.9491,-2.8637,-2.9249,-2.8792,-2.8536,-2.8587,-2.8612,-2.8612,-2.8587,-2.8562,-2.8587,-2.8662,-2.8858,-2.904,-2.9112,-2.9289,-2.9372,-2.9433,-2.9511,-2.9588,-2.9607,-2.9664,-2.9701,-2.9736,-2.9771,-2.9806,-2.9893,-2.991,-2.9907,-2.9907,-3.0116,-3.0511,-3.1156,-3.1724,-3.1819,-3.1156,-3.0468,-3.0481,-3.0899,-3.1271,-3.1775,-3.3077,-3.2756,-3.3467,-3.4438,-3.4578,-3.4864,-3.5284,-3.5623,-3.5628,-3.5361,-3.5016,-3.5162,-3.5607,-3.5472,-3.5134,-3.5338,-3.5725,-3.5725,-3.5716,-3.5727,-3.5707,-3.5708,-3.5747,-3.5728,-3.5631,-3.5582,-3.5631,-3.5582,-3.5563,-3.5689,-3.5582,-3.5311,-3.5251,-2.7623,-2.7292,-2.7869,-2.8203,-2.8308,-2.8336,-2.8924,-2.9754,-2.9296,-3.0106,-3.1544,-3.2299,-3.2552,-3.2901,-3.4169,-3.3957,-3.2765,-3.2807,-3.2408,-3.1546,-3.132,-3.132,-3.1479,-3.1521,-3.1596,-3.1706,-3.1771,-3.1792,-3.2038,-3.1935,-3.1837,-3.1652,-3.1255,-3.0732,-3.052,-3.0359,-3.0582,-3.1107,-3.1214,-3.092,-3.0609,-3.0349,-2.9647,-2.8747,-2.8644,-2.8637,-2.8737,-2.8881,-2.8834,-2.8594,-2.8662,-2.8737,-2.8815,-2.8957,-2.9115,-2.9228,-2.9351,-2.9433,-2.9531,-2.9569,-2.9607,-2.9664,-2.9682,-2.9718,-2.9771,-2.9842,-2.9876,-2.991,-2.9907,-2.9907,-3.0002,-3.0435,-3.0909,-3.1265,-3.195,-3.1857,-3.0739,-3.0696,-3.0877,-3.0529,-3.0487,-3.1161,-3.2027,-3.2615,-3.3142,-3.4242,-3.4793,-3.5078,-3.5444,-3.5659,-3.5681,-3.5693,-3.5491,-3.553,-3.5588,-3.551,-3.5463,-3.5562,-3.5716,-3.5746,-3.5756,-3.5766,-3.5737,-3.5708,-3.5853,-3.5881,-3.5523,-3.5309,-3.5436,-3.5776,-3.5736,-3.5765,-3.5765,-3.5618,-3.5585,-2.8477,-2.8195,-2.8687,-2.8951,-2.9049,-2.9267,-2.9743,-3.018,-3.0018,-3.0623,-3.1825,-3.2254,-3.2607,-3.299,-3.3979,-3.3816,-3.2732,-3.2899,-3.2523,-3.1958,-3.1555,-3.15,-3.1562,-3.16,-3.1809,-3.23,-3.25,-3.2521,-3.2406,-3.232,-3.1823,-3.1046,-3.0243,-2.9784,-2.9551,-2.953,-2.9611,-3.0268,-3.0513,-3.0493,-3.054,-3.0078,-2.9791,-2.9047,-2.8898,-2.8712,-2.8858,-2.8998,-2.8952,-2.8743,-2.8791,-2.8934,-2.9021,-2.9115,-2.9246,-2.9353,-2.9433,-2.9511,-2.9588,-2.9626,-2.9645,-2.9682,-2.9699,-2.9754,-2.9825,-2.9895,-2.9912,-2.9907,-2.9907,-2.9907,-3.0,-3.0397,-3.0848,-3.1298,-3.2001,-3.1756,-3.0181,-3.0437,-3.0734,-3.0632,-3.0685,-3.1168,-3.2292,-3.2622,-3.3331,-3.4279,-3.4802,-3.513,-3.5481,-3.5623,-3.5704,-3.5715,-3.5695,-3.5667,-3.5697,-3.5658,-3.5843,-3.596,-3.6135,-3.6096,-3.6125,-3.6134,-3.6289,-3.6317,-3.616,-3.6012,-3.5849,-3.5732,-3.586,-3.6062,-3.5907,-3.5799,-3.5799,-3.5815,-3.5811,-2.9416,-2.9401,-2.9525,-2.966,-2.9819,-3.019,-3.0514,-3.0924,-3.0698,-3.1218,-3.1968,-3.1964,-3.2167,-3.2734,-3.3168,-3.3152,-3.285,-3.2618,-3.2485,-3.2122,-3.1846,-3.1637,-3.164,-3.1637,-3.1984,-3.2555,-3.339,-3.3266,-3.2775,-3.2706,-3.2071,-3.0853,-2.9994,-2.9376,-2.8996,-2.9365,-2.9497,-2.9396,-2.9532,-2.9937,-3.0204,-2.9664,-2.9359,-2.9496,-2.9083,-2.8852,-2.8952,-2.9026,-2.9026,-2.8773,-2.9067,-2.916,-2.9222,-2.9291,-2.9373,-2.9434,-2.955,-2.9608,-2.9608,-2.9683,-2.9701,-2.9699,-2.9699,-2.9753,-2.9859,-2.9912,-2.991,-2.9907,-2.9907,-2.9905,-2.9924,-3.0013,-3.0497,-3.1197,-3.2029,-3.1664,-3.0822,-3.038,-3.0624,-3.1115,-3.1221,-3.2139,-3.2924,-3.3407,-3.3352,-3.3981,-3.4583,-3.5244,-3.5504,-3.5635,-3.5695,-3.5695,-3.5716,-3.5707,-3.5776,-3.5824,-3.6135,-3.6377,-3.6666,-3.6762,-3.68,-3.6887,-3.7117,-3.7144,-3.688,-3.6783,-3.6763,-3.6686,-3.6425,-3.6126,-3.5854,-3.5803,-3.5811,-3.5826,-3.5846,-2.951,-2.9401,-2.9525,-3.0075,-3.0716,-3.05,-3.0798,-3.144,-3.0567,-3.068,-3.1157,-3.1742,-3.1791,-3.1523,-3.2605,-3.2773,-3.1911,-3.2156,-3.2253,-3.1794,-3.1809,-3.1746,-3.1765,-3.1746,-3.1849,-3.2248,-3.2762,-3.2752,-3.2258,-3.1706,-3.0976,-3.0152,-2.9008,-2.8235,-2.837,-2.8582,-2.8823,-2.9226,-2.9547,-2.9755,-2.997,-2.9944,-2.9667,-2.946,-2.914,-2.9058,-2.9071,-2.9185,-2.9228,-2.9209,-2.923,-2.9332,-2.9412,-2.9453,-2.9493,-2.9589,-2.9645,-2.9663,-2.9681,-2.97,-2.9699,-2.9717,-2.9771,-2.9825,-2.9895,-2.991,-2.9907,-2.9907,-2.9907,-2.9921,-2.9972,-3.0007,-3.0494,-3.1207,-3.1619,-3.1901,-3.2012,-3.2035,-3.1607,-3.0906,-3.0713,-3.0772,-3.1373,-3.2724,-3.3128,-3.3658,-3.4407,-3.5261,-3.5469,-3.554,-3.5629,-3.562,-3.5728,-3.5747,-3.5873,-3.6182,-3.6822,-3.7228,-3.7525,-3.7899,-3.7938,-3.777,-3.805,-3.7902,-3.7525,-3.7493,-3.7532,-3.665,-3.6195,-3.5993,-3.5838,-3.5833,-3.5846,-3.5859,-3.5872,-3.0078,-2.9585,-3.0443,-3.0997,-3.1236,-3.1413,-3.1542,-3.1605,-3.1122,-3.0806,-3.0808,-3.1372,-3.1352,-3.1083,-3.1911,-3.1873,-3.1528,-3.1781,-3.1931,-3.1757,-3.1763,-3.18,-3.18,-3.18,-3.1817,-3.1903,-3.2559,-3.2357,-3.1566,-3.1029,-3.0436,-2.9429,-2.8268,-2.8182,-2.8435,-2.8575,-2.8984,-2.951,-3.0098,-3.0148,-2.9569,-3.0246,-3.0533,-2.9899,-2.9517,-2.9218,-2.9691,-2.9455,-2.939,-2.9394,-2.9471,-2.9511,-2.955,-2.9589,-2.9626,-2.9662,-2.9735,-2.9735,-2.9735,-2.9754,-2.9753,-2.9789,-2.9842,-2.9859,-2.9893,-2.9907,-2.9907,-2.9905,-2.994,-2.9972,-3.0076,-3.0525,-3.0937,-3.1291,-3.1798,-3.2218,-3.2577,-3.2703,-3.2484,-3.1659,-3.1655,-3.1975,-3.2454,-3.2894,-3.3342,-3.4063,-3.4195,-3.4921,-3.4863,-3.4991,-3.5369,-3.5495,-3.5688,-3.5823,-3.5968,-3.6548,-3.7611,-3.8152,-3.87,-3.922,-3.9617,-3.9325,-3.9039,-3.8702,-3.8351,-3.8208,-3.8052,-3.7053,-3.6177,-3.5944,-3.5872,-3.5885,-3.5891,-3.5903,-3.5914,-3.0638,-2.9778,-3.1262,-3.1603,-3.1351,-3.1992,-3.2019,-3.1674,-3.1627,-3.1166,-3.0833,-3.0935,-3.1099,-3.1089,-3.1241,-3.1269,-3.1406,-3.1521,-3.1668,-3.178,-3.18,-3.18,-3.18,-3.18,-3.18,-3.1906,-3.2182,-3.1771,-3.1168,-3.0715,-3.0204,-2.9176,-2.8569,-2.8741,-2.9237,-2.9454,-2.96,-2.9809,-3.034,-3.0195,-2.9393,-3.0259,-3.0837,-3.0937,-3.0378,-3.0068,-3.0454,-3.0283,-2.9938,-2.9905,-3.002,-3.0039,-2.9964,-2.9701,-2.9717,-2.9717,-2.9808,-2.9825,-2.9825,-2.9825,-2.9842,-2.9912,-2.9895,-2.991,-2.9924,-2.994,-2.994,-2.9956,-3.0007,-3.0038,-3.016,-3.078,-3.1234,-3.1607,-3.2271,-3.2806,-3.2932,-3.3044,-3.3196,-3.2756,-3.2512,-3.2667,-3.3145,-3.3592,-3.4008,-3.432,-3.441,-3.4497,-3.4468,-3.4768,-3.534,-3.5882,-3.6181,-3.7042,-3.7311,-3.7106,-3.8128,-3.9038,-3.9682,-4.0039,-4.0552,-4.0026,-3.95,-3.95,-3.926,-3.8832,-3.8254,-3.7377,-3.6637,-3.615,-3.5903,-3.5908,-3.5919,-3.5924,-3.5958,-2.9937,-2.9825,-3.0365,-3.0799,-3.1025,-3.1019,-3.1184,-3.1271,-3.1071,-3.0908,-3.0888,-3.0975,-3.1072,-3.1151,-3.1235,-3.1389,-3.1504,-3.1617,-3.1671,-3.18,-3.18,-3.18,-3.18,-3.18,-3.1819,-3.1702,-3.16,-3.115,-3.0872,-3.0414,-3.0229,-2.9986,-2.9844,-3.0048,-3.0273,-3.051,-3.0306,-3.0051,-3.0323,-2.9966,-2.9441,-2.9929,-3.1023,-3.1525,-3.1316,-3.1355,-3.1576,-3.168,-3.1648,-3.1672,-3.175,-3.1675,-3.1205,-3.0283,-2.9866,-2.9918,-2.9897,-2.9876,-2.9878,-2.9895,-2.9895,-2.9895,-2.9912,-2.9964,-2.9994,-3.0048,-3.0197,-3.0266,-3.0262,-3.0198,-3.0132,-3.1153,-3.1416,-3.1832,-3.2726,-3.3643,-3.3827,-3.4122,-3.4186,-3.3493,-3.3277,-3.3314,-3.3857,-3.411,-3.411,-3.4294,-3.4361,-3.4535,-3.4642,-3.5155,-3.5872,-3.6423,-3.6906,-3.7969,-3.8937,-3.8498,-3.8726,-3.9772,-4.0312,-4.026,-4.0481,-4.013,-3.9857,-3.9493,-3.8967,-3.8311,-3.777,-3.7327,-3.6806,-3.6104,-3.5987,-3.5934,-3.5938,-3.5966,-3.5985,-2.9441,-2.9,-3.0074,-3.0573,-3.0618,-3.077,-3.1039,-3.1265,-3.0949,-3.084,-3.0912,-3.1032,-3.1151,-3.1213,-3.1274,-3.1428,-3.1579,-3.1654,-3.1763,-3.18,-3.18,-3.18,-3.1837,-3.1819,-3.1929,-3.1828,-3.1377,-3.101,-3.1025,-3.0861,-3.055,-3.0353,-3.0451,-3.0814,-3.1135,-3.1064,-3.0903,-3.0566,-3.0611,-3.0137,-2.9167,-2.9848,-3.1075,-3.2381,-3.2311,-3.2198,-3.2542,-3.2212,-3.1878,-3.1561,-3.1525,-3.1356,-3.0978,-3.0542,-3.005,-3.0368,-3.0156,-2.991,-2.991,-2.991,-2.9907,-2.9943,-2.9962,-3.0222,-3.0516,-3.0738,-3.0868,-3.1222,-3.139,-3.1424,-3.1535,-3.218,-3.2462,-3.242,-3.3261,-3.3922,-3.4155,-3.457,-3.4462,-3.4191,-3.4464,-3.4594,-3.4652,-3.4681,-3.4322,-3.4253,-3.4331,-3.4563,-3.4835,-3.5512,-3.6306,-3.7128,-3.7677,-3.8466,-3.9473,-3.9441,-3.9325,-4.0273,-4.063,-4.0578,-4.0208,-3.9786,-3.9363,-3.8998,-3.8399,-3.7649,-3.7342,-3.6913,-3.6473,-3.613,-3.6052,-3.5994,-3.6001,-3.6007,-3.6018,-2.9061,-2.821,-2.9925,-3.0396,-3.0164,-3.0637,-3.1001,-3.1133,-3.0941,-3.0895,-3.0952,-3.1072,-3.1151,-3.123,-3.1329,-3.1449,-3.1617,-3.1746,-3.18,-3.18,-3.1819,-3.1819,-3.1856,-3.1912,-3.202,-3.2092,-3.1811,-3.1368,-3.1228,-3.1238,-3.108,-3.1008,-3.0975,-3.1613,-3.2277,-3.2107,-3.16,-3.1492,-3.1261,-3.0558,-2.9947,-3.0457,-3.1918,-3.3948,-3.3094,-3.2898,-3.343,-3.3114,-3.2613,-3.2239,-3.1977,-3.1676,-3.1069,-3.0763,-3.0913,-3.114,-3.0457,-3.0021,-2.9907,-2.9924,-2.994,-2.9991,-3.0197,-3.0662,-3.1112,-3.1451,-3.1828,-3.2454,-3.2546,-3.247,-3.252,-3.3414,-3.3394,-3.3142,-3.3559,-3.4259,-3.4285,-3.4552,-3.5075,-3.519,-3.562,-3.5602,-3.5387,-3.495,-3.4523,-3.462,-3.4725,-3.5075,-3.5366,-3.5879,-3.6692,-3.7763,-3.8486,-3.902,-3.9676,-4.0104,-4.0163,-4.0688,-4.0637,-4.0364,-3.9864,-3.9324,-3.8848,-3.8268,-3.7537,-3.6859,-3.6672,-3.6657,-3.6469,-3.6277,-3.6124,-3.6183,-3.643,-3.6222,-3.6018,-2.8824,-2.8281,-2.9592,-2.9895,-2.9542,-3.0069,-3.0445,-3.0617,-3.0699,-3.0828,-3.0975,-3.1015,-3.1112,-3.123,-3.1402,-3.1576,-3.1674,-3.1783,-3.1768,-3.1699,-3.1823,-3.1894,-3.193,-3.2108,-3.2214,-3.2318,-3.2298,-3.1925,-3.1656,-3.1611,-3.1649,-3.1684,-3.2319,-3.3196,-3.3599,-3.3037,-3.3294,-3.304,-3.1924,-3.1201,-3.1328,-3.2024,-3.3073,-3.3971,-3.417,-3.4086,-3.4261,-3.4057,-3.393,-3.3953,-3.4108,-3.4242,-3.4207,-3.362,-3.2936,-3.21,-3.0983,-2.9907,-3.0018,-3.0108,-3.0254,-3.044,-3.0795,-3.1169,-3.1749,-3.2317,-3.2733,-3.2615,-3.2787,-3.294,-3.3165,-3.3586,-3.3483,-3.3723,-3.4212,-3.452,-3.4532,-3.4815,-3.5314,-3.5465,-3.5699,-3.5747,-3.5666,-3.5169,-3.4769,-3.4944,-3.5158,-3.5527,-3.6079,-3.6709,-3.7339,-3.8439,-3.9298,-3.9831,-3.9857,-4.0292,-4.0467,-4.0935,-4.0545,-4.0078,-3.9441,-3.8784,-3.7956,-3.7342,-3.6707,-3.6501,-3.6583,-3.659,-3.6518,-3.6518,-3.6498,-3.6746,-3.7067,-3.6668,-3.6035,-2.8658,-2.8541,-2.9234,-2.9543,-2.9621,-3.0011,-3.0356,-3.0593,-3.0778,-3.0858,-3.0998,-3.1095,-3.119,-3.1346,-3.1479,-3.1373,-3.1351,-3.1666,-3.1562,-3.1495,-3.1722,-3.2038,-3.2091,-3.2214,-3.2336,-3.2473,-3.259,-3.2565,-3.2275,-3.2268,-3.2367,-3.254,-3.2991,-3.3393,-3.4073,-3.3378,-3.273,-3.1934,-3.0961,-3.0912,-3.195,-3.2493,-3.3049,-3.4375,-3.4498,-3.4561,-3.4602,-3.4602,-3.4344,-3.4162,-3.4071,-3.3828,-3.3544,-3.3144,-3.2781,-3.2533,-3.1922,-3.1257,-3.082,-3.076,-3.0947,-3.1378,-3.1851,-3.2263,-3.2829,-3.3532,-3.4063,-3.414,-3.412,-3.4082,-3.4094,-3.4492,-3.45,-3.4644,-3.4861,-3.4968,-3.5072,-3.5288,-3.5599,-3.5669,-3.5747,-3.5773,-3.5829,-3.5682,-3.541,-3.5496,-3.5729,-3.6068,-3.6938,-3.7972,-3.8602,-3.9298,-4.0013,-4.0637,-4.0422,-4.0448,-4.0292,-4.0487,-4.0136,-3.961,-3.8934,-3.8219,-3.7435,-3.7175,-3.707,-3.6859,-3.6729,-3.6765,-3.6925,-3.6944,-3.6947,-3.696,-3.6914,-3.6504,-3.6094,-2.8432,-2.8498,-2.8965,-2.9409,-2.9782,-3.0136,-3.0448,-3.0773,-3.0897,-3.0993,-3.1078,-3.1173,-3.1346,-3.15,-3.1487,-3.1253,-3.0818,-3.1582,-3.141,-3.1324,-3.1655,-3.2179,-3.2318,-3.2404,-3.2541,-3.259,-3.2787,-3.288,-3.2961,-3.2988,-3.3014,-3.3178,-3.3321,-3.3702,-3.3696,-3.3341,-3.2706,-3.1568,-3.1151,-3.1496,-3.2362,-3.2695,-3.3399,-3.4139,-3.4561,-3.4602,-3.4602,-3.4623,-3.4292,-3.407,-3.3733,-3.3582,-3.3448,-3.3256,-3.3099,-3.2963,-3.2771,-3.2597,-3.2118,-3.1927,-3.2057,-3.2416,-3.2966,-3.3287,-3.4105,-3.4904,-3.5171,-3.498,-3.5035,-3.5108,-3.5273,-3.5243,-3.5172,-3.5191,-3.5366,-3.5509,-3.5608,-3.5646,-3.5679,-3.5737,-3.5773,-3.5782,-3.5896,-3.6079,-3.6098,-3.6118,-3.634,-3.6705,-3.7739,-3.9006,-3.9597,-4.013,-4.0429,-4.0929,-4.0799,-4.0584,-4.039,-3.9902,-3.9571,-3.9006,-3.8233,-3.7639,-3.7011,-3.6965,-3.7269,-3.7725,-3.79,-3.7624,-3.7367,-3.7412,-3.7337,-3.6813,-3.6531,-3.6196,-3.6094,-2.8154,-2.7827,-2.8898,-2.9393,-2.9645,-3.025,-3.0617,-3.0771,-3.0937,-3.105,-3.1173,-3.1274,-3.1372,-3.1507,-3.1514,-3.1278,-3.0714,-3.1671,-3.1551,-3.1498,-3.188,-3.24,-3.2553,-3.2654,-3.2805,-3.2884,-3.3011,-3.3122,-3.3244,-3.3286,-3.3364,-3.3393,-3.352,-3.4108,-3.4202,-3.3732,-3.3031,-3.2342,-3.2381,-3.2493,-3.2944,-3.329,-3.4217,-3.4411,-3.4602,-3.4602,-3.4602,-3.4666,-3.4672,-3.4507,-3.4131,-3.4112,-3.4205,-3.3954,-3.3777,-3.3775,-3.3792,-3.3691,-3.3497,-3.2928,-3.2626,-3.2851,-3.3382,-3.4159,-3.4827,-3.5057,-3.5209,-3.5207,-3.5277,-3.5304,-3.5335,-3.5345,-3.5435,-3.5483,-3.5534,-3.5581,-3.5657,-3.5728,-3.5766,-3.5801,-3.5829,-3.5877,-3.6196,-3.6437,-3.6864,-3.695,-3.7751,-3.8128,-3.8804,-3.987,-4.0383,-4.0799,-4.0864,-4.1026,-4.0974,-4.0662,-4.0058,-3.9298,-3.8733,-3.809,-3.7331,-3.686,-3.6796,-3.7152,-3.7589,-3.8342,-3.8896,-3.8475,-3.8159,-3.8014,-3.7767,-3.7445,-3.6824,-3.6364,-3.6225,-2.8418,-2.8513,-2.9223,-2.9392,-2.9296,-3.0251,-3.0484,-3.0381,-3.0791,-3.1089,-3.1218,-3.1295,-3.1192,-3.1173,-3.1524,-3.1201,-3.0591,-3.1826,-3.1753,-3.185,-3.2211,-3.2681,-3.2848,-3.288,-3.2948,-3.3042,-3.3165,-3.3274,-3.3352,-3.3491,-3.3661,-3.3671,-3.3698,-3.389,-3.4042,-3.3894,-3.3412,-3.3259,-3.3123,-3.2854,-3.3758,-3.3484,-3.4033,-3.4564,-3.4602,-3.4623,-3.4666,-3.4708,-3.479,-3.4774,-3.4548,-3.4736,-3.4924,-3.4653,-3.4573,-3.459,-3.4587,-3.462,-3.4541,-3.399,-3.3704,-3.42,-3.4563,-3.4866,-3.519,-3.5226,-3.5258,-3.5289,-3.532,-3.5364,-3.5416,-3.5476,-3.5547,-3.557,-3.5615,-3.5678,-3.5708,-3.5766,-3.5793,-3.5791,-3.5935,-3.604,-3.6456,-3.688,-3.7366,-3.7833,-3.8751,-3.9532,-3.9935,-4.0292,-4.0643,-4.0747,-4.0734,-4.076,-4.0701,-4.0195,-3.9591,-3.8792,-3.7954,-3.7448,-3.696,-3.7088,-3.7123,-3.7474,-3.7981,-3.8736,-3.915,-3.9082,-3.8907,-3.8643,-3.8487,-3.8337,-3.7585,-3.6547,-3.6367,-2.8497,-2.8683,-2.9358,-2.9534,-2.9508,-3.0394,-3.0597,-3.0376,-3.0808,-3.1031,-3.1028,-3.0844,-3.0773,-3.0853,-3.1201,-3.1307,-3.0984,-3.1797,-3.2012,-3.2179,-3.2451,-3.2939,-3.306,-3.3122,-3.3152,-3.3226,-3.3316,-3.3422,-3.3549,-3.3716,-3.386,-3.3947,-3.3998,-3.4086,-3.4006,-3.378,-3.3728,-3.3665,-3.3534,-3.2975,-3.403,-3.3977,-3.392,-3.4545,-3.4602,-3.4645,-3.4727,-3.4769,-3.4831,-3.4794,-3.4736,-3.4827,-3.492,-3.4992,-3.5007,-3.51,-3.5193,-3.519,-3.5018,-3.4827,-3.4617,-3.4923,-3.5057,-3.5152,-3.5226,-3.5258,-3.5304,-3.5335,-3.5393,-3.5449,-3.5509,-3.5584,-3.5612,-3.5648,-3.5689,-3.5737,-3.5747,-3.5773,-3.5782,-3.581,-3.5943,-3.6126,-3.7082,-3.7622,-3.835,-3.8875,-3.9617,-4.0,-3.987,-4.0188,-4.0461,-4.0442,-4.0266,-4.0292,-4.0273,-3.9337,-3.85,-3.8246,-3.7525,-3.7233,-3.6947,-3.7152,-3.7717,-3.838,-3.8867,-3.9282,-3.9282,-3.9082,-3.9146,-3.9223,-3.8644,-3.7776,-3.7238,-3.6254,-3.6332,-2.8373,-2.8084,-2.9299,-2.9908,-3.011,-3.0733,-3.0942,-3.0746,-3.0898,-3.0764,-3.0372,-2.9863,-3.0093,-3.0681,-3.1011,-3.1144,-3.1444,-3.2207,-3.2442,-3.2281,-3.2714,-3.3129,-3.3244,-3.3274,-3.3334,-3.3462,-3.353,-3.3643,-3.378,-3.3895,-3.4049,-3.4173,-3.4245,-3.4335,-3.4311,-3.4363,-3.4061,-3.362,-3.4067,-3.3977,-3.3886,-3.4189,-3.4451,-3.4545,-3.4645,-3.4706,-3.4543,-3.4812,-3.4832,-3.4698,-3.4501,-3.4649,-3.5086,-3.462,-3.4674,-3.5152,-3.5209,-3.5209,-3.519,-3.5152,-3.5152,-3.5171,-3.519,-3.5242,-3.5293,-3.5304,-3.5345,-3.5422,-3.5457,-3.5528,-3.5577,-3.5654,-3.5688,-3.5708,-3.5745,-3.5791,-3.5791,-3.5799,-3.5834,-3.6165,-3.6095,-3.6227,-3.7416,-3.8442,-3.9286,-3.9961,-4.0572,-4.0598,-4.0195,-4.0273,-4.0584,-4.0409,-4.0234,-4.0175,-3.9922,-3.8305,-3.7428,-3.7292,-3.718,-3.6966,-3.7122,-3.7478,-3.818,-3.909,-3.9246,-3.9199,-3.9135,-3.9026,-3.8809,-3.839,-3.7375,-3.6583,-3.6196,-3.6082,-3.6183,-2.8575,-2.8335,-2.9475,-2.9878,-2.9954,-3.0647,-3.0796,-3.0352,-3.0031,-2.977,-2.9746,-2.9489,-2.9695,-3.0295,-3.1014,-3.1388,-3.1854,-3.2616,-3.2877,-3.2919,-3.3166,-3.3291,-3.3422,-3.3452,-3.3491,-3.3615,-3.368,-3.3788,-3.3921,-3.4074,-3.4197,-3.4358,-3.4431,-3.4498,-3.4517,-3.4517,-3.4355,-3.4264,-3.4411,-3.4411,-3.4245,-3.4451,-3.4604,-3.4586,-3.463,-3.4523,-3.4206,-3.4605,-3.4811,-3.4615,-3.4377,-3.4871,-3.5193,-3.4767,-3.4955,-3.5242,-3.5261,-3.5261,-3.5261,-3.5207,-3.519,-3.5207,-3.5239,-3.527,-3.532,-3.5407,-3.5463,-3.5528,-3.5589,-3.5646,-3.5728,-3.5737,-3.5773,-3.576,-3.5803,-3.583,-3.5838,-3.5877,-3.5981,-3.6591,-3.6786,-3.7513,-3.8546,-3.928,-4.0085,-4.039,-4.0869,-4.0896,-4.0584,-4.0682,-4.0916,-4.0623,-4.0409,-4.0273,-3.9649,-3.8112,-3.7747,-3.8073,-3.7547,-3.6904,-3.7196,-3.7781,-3.8174,-3.8837,-3.8915,-3.8973,-3.8681,-3.8369,-3.7903,-3.7292,-3.6934,-3.6785,-3.6846,-3.6498,-3.6055,-2.8783,-2.9005,-2.9613,-2.9947,-3.0139,-3.079,-3.0707,-3.0027,-2.924,-2.8853,-2.8922,-2.8868,-2.9275,-2.9972,-3.0733,-3.1782,-3.2283,-3.2973,-3.3364,-3.3441,-3.3429,-3.3499,-3.352,-3.3605,-3.3671,-3.378,-3.3868,-3.3972,-3.4074,-3.4197,-3.4358,-3.4473,-3.4539,-3.4561,-3.4602,-3.4583,-3.4583,-3.4508,-3.4583,-3.4586,-3.4548,-3.4588,-3.4457,-3.4405,-3.441,-3.4471,-3.415,-3.4356,-3.488,-3.4645,-3.4811,-3.5209,-3.5245,-3.5277,-3.5312,-3.5308,-3.5308,-3.5308,-3.5289,-3.5289,-3.5289,-3.5289,-3.532,-3.533,-3.5374,-3.547,-3.5546,-3.5623,-3.5707,-3.5747,-3.5784,-3.5818,-3.5823,-3.5826,-3.5833,-3.5859,-3.5885,-3.5905,-3.6255,-3.6858,-3.7553,-3.8481,-3.9481,-4.0208,-4.0883,-4.0992,-4.1106,-4.0978,-4.085,-4.0978,-4.0822,-4.0329,-3.9931,-3.9555,-3.8994,-3.8007,-3.7987,-3.876,-3.8252,-3.7492,-3.7628,-3.8252,-3.841,-3.833,-3.8018,-3.7823,-3.7882,-3.7653,-3.7566,-3.76,-3.7632,-3.7562,-3.7591,-3.7131,-3.6515,-2.9119,-2.9848,-2.9724,-3.0066,-3.0727,-3.0813,-3.0573,-2.9986,-2.8784,-2.8253,-2.8253,-2.7881,-2.8711,-3.0047,-3.0455,-3.15,-3.2745,-3.325,-3.3404,-3.3481,-3.3506,-3.3585,-3.3661,-3.3753,-3.3788,-3.3895,-3.4023,-3.4124,-3.4221,-3.434,-3.4473,-3.4464,-3.4508,-3.447,-3.4451,-3.4526,-3.4545,-3.4602,-3.4604,-3.4626,-3.4666,-3.4708,-3.4427,-3.4317,-3.4433,-3.4358,-3.4281,-3.4541,-3.4897,-3.5005,-3.5133,-3.5242,-3.5296,-3.5312,-3.5324,-3.532,-3.5335,-3.5335,-3.5335,-3.5364,-3.5393,-3.5393,-3.536,-3.5402,-3.547,-3.5558,-3.5635,-3.5698,-3.5766,-3.5793,-3.5818,-3.585,-3.5878,-3.5872,-3.5879,-3.5885,-3.5885,-3.6099,-3.6482,-3.7053,-3.7695,-3.8622,-3.9803,-4.0666,-4.1114,-4.11,-4.1018,-4.0629,-4.0625,-4.0964,-4.059,-3.9535,-3.9103,-3.8615,-3.8131,-3.8129,-3.8495,-3.9348,-3.9195,-3.8648,-3.8765,-3.8743,-3.8869,-3.8487,-3.7113,-3.6844,-3.7648,-3.7823,-3.7634,-3.7747,-3.8081,-3.8183,-3.8173,-3.7828,-3.746,-2.9202,-2.8933,-2.9945,-3.0084,-2.9509,-2.9223,-2.897,-2.871,-2.8305,-2.8269,-2.8401,-2.8404,-2.9376,-3.0956,-3.1262,-3.2133,-3.2853,-3.3364,-3.3462,-3.3538,-3.3585,-3.3642,-3.3716,-3.3823,-3.3876,-3.3972,-3.4099,-3.4245,-3.4316,-3.4431,-3.4127,-3.3851,-3.4282,-3.4207,-3.4207,-3.4339,-3.4529,-3.4645,-3.4647,-3.4689,-3.4728,-3.4751,-3.4489,-3.449,-3.468,-3.4545,-3.4219,-3.4649,-3.4852,-3.4541,-3.5012,-3.5239,-3.5312,-3.5339,-3.5383,-3.5383,-3.5398,-3.5398,-3.5427,-3.5412,-3.5435,-3.5515,-3.5509,-3.5521,-3.557,-3.5626,-3.5708,-3.5775,-3.5818,-3.5842,-3.5845,-3.5872,-3.5891,-3.5897,-3.5897,-3.5897,-3.5942,-3.6201,-3.6668,-3.774,-3.8375,-3.916,-4.032,-4.076,-4.113,-4.1115,-4.0933,-4.0545,-4.042,-4.0775,-4.0574,-3.9507,-3.9188,-3.8962,-3.9137,-3.9195,-3.9484,-3.9793,-3.966,-3.9658,-3.9791,-3.973,-3.9515,-3.8785,-3.7656,-3.7596,-3.8121,-3.8185,-3.8254,-3.8278,-3.8534,-3.8656,-3.8688,-3.8457,-3.8378,-2.9633,-2.9465,-2.9817,-2.9538,-2.8742,-2.8374,-2.8305,-2.8288,-2.8304,-2.8401,-2.8633,-2.9103,-3.0117,-3.1296,-3.1706,-3.2283,-3.3142,-3.3422,-3.3549,-3.3633,-3.3661,-3.3753,-3.3868,-3.3943,-3.4037,-3.4111,-3.4245,-3.4404,-3.4353,-3.4139,-3.3851,-3.4038,-3.4245,-3.4038,-3.4116,-3.4438,-3.4609,-3.4689,-3.473,-3.4771,-3.4792,-3.4812,-3.4718,-3.4585,-3.4865,-3.4615,-3.4042,-3.4623,-3.4541,-3.4366,-3.4971,-3.5002,-3.5185,-3.5398,-3.5441,-3.5455,-3.5482,-3.5495,-3.5522,-3.5528,-3.5565,-3.5593,-3.5646,-3.5657,-3.5678,-3.5718,-3.5765,-3.5799,-3.5857,-3.5885,-3.5885,-3.5883,-3.5889,-3.5894,-3.5894,-3.5914,-3.6099,-3.6324,-3.7279,-3.8438,-3.9277,-4.0005,-4.0594,-4.0937,-4.1,-4.0762,-4.0713,-4.0641,-4.0527,-4.0702,-4.0487,-3.9756,-3.9706,-3.9686,-3.9882,-3.9941,-3.9961,-4.0098,-4.0273,-4.0332,-4.0621,-4.0293,-3.9707,-3.9082,-3.8363,-3.8525,-3.8783,-3.9009,-3.9111,-3.9178,-3.9387,-3.9699,-3.9726,-3.9433,-3.943,-3.0062,-3.051,-2.9539,-2.8778,-2.8285,-2.8287,-2.8297,-2.8466,-2.8496,-2.8682,-2.9106,-2.986,-3.0759,-3.1728,-3.2102,-3.2523,-3.3112,-3.3433,-3.3633,-3.3726,-3.378,-3.3839,-3.3852,-3.4115,-3.4041,-3.4228,-3.439,-3.4476,-3.4311,-3.3998,-3.3851,-3.4376,-3.3851,-3.3588,-3.3834,-3.4461,-3.4691,-3.4771,-3.4812,-3.4851,-3.4908,-3.4869,-3.4715,-3.4312,-3.4611,-3.4854,-3.4282,-3.4238,-3.4477,-3.4722,-3.4829,-3.4779,-3.5144,-3.5455,-3.5495,-3.5534,-3.554,-3.5577,-3.5612,-3.5635,-3.5667,-3.5698,-3.5718,-3.5728,-3.5757,-3.6056,-3.6187,-3.6005,-3.6034,-3.6021,-3.602,-3.5928,-3.5894,-3.5899,-3.5899,-3.6124,-3.6473,-3.7054,-3.8199,-3.9247,-3.9969,-4.0586,-4.0488,-4.0801,-4.1094,-4.0605,-4.0527,-4.0684,-4.0603,-4.0695,-4.0446,-4.0038,-4.0194,-4.0244,-4.0242,-4.0264,-4.0142,-4.0279,-4.0578,-4.0682,-4.0722,-4.0312,-3.9766,-3.9473,-3.9258,-3.9258,-3.9442,-3.9574,-3.9861,-4.0372,-4.0596,-4.0876,-4.0762,-4.0289,-4.0264,-2.8864,-2.8744,-2.8596,-2.8476,-2.8286,-2.795,-2.7809,-2.7906,-2.8579,-2.9509,-3.051,-3.1052,-3.1618,-3.2242,-3.2611,-3.2997,-3.3171,-3.3455,-3.3643,-3.3807,-3.3921,-3.3802,-3.3603,-3.4087,-3.3956,-3.3825,-3.402,-3.4373,-3.4261,-3.3736,-3.3118,-3.2949,-3.2987,-3.3458,-3.3349,-3.4088,-3.4752,-3.487,-3.4945,-3.4944,-3.5001,-3.5075,-3.5011,-3.4876,-3.5102,-3.5136,-3.4808,-3.4898,-3.5047,-3.5197,-3.52,-3.5273,-3.5457,-3.5534,-3.5572,-3.5589,-3.5623,-3.5667,-3.5669,-3.5699,-3.5708,-3.5757,-3.5775,-3.5794,-3.5987,-3.6487,-3.6627,-3.6358,-3.6281,-3.6261,-3.6156,-3.6045,-3.5914,-3.5919,-3.5943,-3.6376,-3.6863,-3.8012,-3.9155,-3.9863,-4.0566,-4.0644,-4.0527,-4.0664,-4.0937,-4.1035,-4.1035,-4.0996,-4.0644,-4.0574,-4.0609,-4.0384,-4.0693,-4.0759,-4.0698,-4.0623,-4.0528,-4.0584,-4.0862,-4.0892,-4.082,-4.0469,-4.0117,-4.0312,-4.0293,-4.0059,-3.9902,-3.998,-4.0369,-4.0935,-4.1113,-4.1112,-4.1108,-4.0748,-4.0857,-2.8793,-2.8613,-2.8506,-2.8315,-2.8025,-2.7801,-2.7871,-2.8301,-2.8894,-2.9821,-3.0889,-3.1386,-3.1778,-3.2294,-3.2775,-3.2937,-3.3031,-3.3468,-3.3689,-3.3895,-3.403,-3.3993,-3.4023,-3.412,-3.3802,-3.3612,-3.3337,-3.3494,-3.3907,-3.3344,-3.263,-3.3009,-3.3498,-3.3406,-3.3278,-3.4337,-3.4812,-3.4945,-3.5035,-3.5089,-3.5091,-3.5143,-3.5196,-3.5176,-3.5193,-3.5209,-3.5089,-3.5047,-3.5021,-3.5234,-3.5402,-3.5432,-3.5521,-3.5558,-3.5612,-3.5646,-3.5707,-3.5737,-3.5794,-3.5842,-3.587,-3.5937,-3.586,-3.5879,-3.5937,-3.6417,-3.6892,-3.6766,-3.7357,-3.7436,-3.6884,-3.6651,-3.6264,-3.6119,-3.6196,-3.6469,-3.7504,-3.8787,-3.9453,-3.9844,-4.0312,-4.041,-4.0391,-4.0644,-4.082,-4.0586,-4.0723,-4.1152,-4.084,-4.0611,-4.0606,-4.0642,-4.0915,-4.1052,-4.0952,-4.0938,-4.0943,-4.1055,-4.1114,-4.1066,-4.0957,-4.0703,-4.0527,-4.0644,-4.0644,-4.043,-4.0347,-4.0349,-4.0545,-4.0995,-4.1107,-4.1114,-4.1108,-4.1108,-4.1104,-2.892,-2.9093,-2.8635,-2.8171,-2.7709,-2.7795,-2.8213,-2.8828,-2.9158,-2.9594,-3.023,-3.1017,-3.1105,-3.1516,-3.2173,-3.2293,-3.2571,-3.3113,-3.3521,-3.3972,-3.4198,-3.4027,-3.4132,-3.4355,-3.3942,-3.3417,-3.3008,-3.3177,-3.3535,-3.2878,-3.2954,-3.4085,-3.4182,-3.3863,-3.4489,-3.4851,-3.4945,-3.5057,-3.5127,-3.5179,-3.5176,-3.519,-3.5209,-3.5209,-3.5209,-3.5261,-3.5028,-3.4868,-3.4798,-3.5191,-3.5689,-3.5719,-3.5921,-3.6052,-3.6104,-3.6193,-3.6415,-3.6423,-3.6382,-3.6456,-3.6386,-3.627,-3.6126,-3.6118,-3.6273,-3.655,-3.7051,-3.7491,-3.8089,-3.8084,-3.7527,-3.7073,-3.6668,-3.6484,-3.6579,-3.6833,-3.816,-3.9453,-3.9844,-4.0117,-4.0351,-4.0469,-4.0703,-4.0937,-4.0801,-4.0527,-4.0485,-4.0832,-4.1062,-4.094,-4.0876,-4.0876,-4.0999,-4.1094,-4.1116,-4.1133,-4.1133,-4.1125,-4.1144,-4.1168,-4.1113,-4.0879,-4.0781,-4.0859,-4.082,-4.0555,-4.0591,-4.0633,-4.0889,-4.1064,-4.1099,-4.1108,-4.1108,-4.1108,-4.1104,-2.7629,-2.7851,-2.7862,-2.7829,-2.7818,-2.8014,-2.8209,-2.8345,-2.8533,-2.8748,-2.9206,-2.9836,-3.0351,-3.0966,-3.1247,-3.1637,-3.2465,-3.2973,-3.3522,-3.4,-3.4271,-3.4045,-3.3899,-3.4057,-3.3966,-3.35,-3.3068,-3.3275,-3.3428,-3.2788,-3.2731,-3.3807,-3.3884,-3.3809,-3.3999,-3.4452,-3.5057,-3.5129,-3.5164,-3.5215,-3.5212,-3.5209,-3.5226,-3.5261,-3.5296,-3.5308,-3.5228,-3.5196,-3.5273,-3.5637,-3.6168,-3.6187,-3.6452,-3.6871,-3.7085,-3.7007,-3.7245,-3.7483,-3.7498,-3.7486,-3.7454,-3.7513,-3.7362,-3.7121,-3.7214,-3.73,-3.7663,-3.7872,-3.8237,-3.8155,-3.7741,-3.7417,-3.7085,-3.7186,-3.7308,-3.7858,-3.8807,-3.9902,-4.0664,-4.1094,-4.1484,-4.168,-4.1933,-4.2031,-4.1953,-4.1601,-4.1113,-4.1375,-4.1116,-4.1111,-4.1111,-4.1114,-4.1116,-4.1147,-4.1152,-4.1172,-4.1172,-4.1172,-4.117,-4.117,-4.1149,-4.1103,-4.1062,-4.126,-4.093,-4.0555,-4.0631,-4.1114,-4.0899,-4.1019,-4.1074,-4.1108,-4.1108,-4.1108,-4.1108]}]]